[[{"header":{"parameterUnit":"m.s-1","parameterCategory":1,"la1":30.6,"la2":29.2853,"lo1":-89.7004,"lo2":-87.6739,"dy":0.0162,"dx":0.0183,"nx":112,"ny":82,"refTime":"2024-08-05T18:00:00:Z","depth":0,"parameterNumber":2,"parameterNumberName":"U-component_of_WINDS"},"data":[0.0,0.0,0.0,0.0,0.0,0.0,0.0,0.0,0.0,0.0,0.0,0.0,0.0,0.0,0.0,0.0,0.0,0.0,0.0,0.0,0.0,0.0,0.0,0.0,0.0,0.0,0.0,0.0,0.0,0.0,0.0,0.0,0.0,0.0,0.0,0.0,0.0,0.0,0.0,0.0,0.0,0.0,0.0,0.0,0.0,0.0,0.0,0.0,0.0,0.0,0.0,0.0,0.0,0.0,0.0,0.0,0.0,0.0,0.0,0.0,0.0,0.0,0.0,0.0,0.0,0.0,0.0,0.0,0.0,0.0,0.0,0.0,0.0,0.0,0.0,0.0,0.0,0.0,0.0,0.0,0.0,0.0,0.0,0.0,0.0,0.0,0.0,0.0,0.0,0.0,2.5503,2.5961,2.6367,2.6193,2.5297,2.5128,2.5067,2.5067,0.0,0.0,0.0,0.0,0.0,0.0,0.0,0.0,0.0,0.0,0.0,0.0,0.0,0.0,0.0,0.0,0.0,0.0,0.0,0.0,0.0,0.0,0.0,0.0,0.0,0.0,0.0,0.0,0.0,0.0,0.0,0.0,0.0,0.0,0.0,0.0,0.0,0.0,0.0,0.0,0.0,0.0,0.0,0.0,0.0,0.0,0.0,0.0,0.0,0.0,0.0,0.0,0.0,0.0,0.0,0.0,0.0,0.0,0.0,0.0,0.0,0.0,0.0,0.0,0.0,0.0,0.0,0.0,0.0,0.0,0.0,0.0,0.0,0.0,0.0,0.0,0.0,0.0,0.0,0.0,0.0,0.0,0.0,0.0,0.0,0.0,0.0,0.0,0.0,0.0,0.0,0.0,0.0,0.0,0.0,0.0,0.0,0.0,0.0,0.0,0.0,0.0,0.0,0.0,2.5924,2.5997,2.6068,2.5852,2.5259,2.4776,2.4511,2.4511,0.0,0.0,0.0,0.0,0.0,0.0,0.0,0.0,0.0,0.0,0.0,0.0,0.0,0.0,0.0,0.0,0.0,0.0,0.0,0.0,0.0,0.0,0.0,0.0,0.0,0.0,0.0,0.0,0.0,0.0,0.0,0.0,0.0,0.0,0.0,0.0,0.0,0.0,0.0,0.0,0.0,0.0,0.0,0.0,0.0,0.0,0.0,0.0,0.0,0.0,0.0,0.0,0.0,0.0,0.0,0.0,0.0,0.0,0.0,0.0,0.0,0.0,0.0,0.0,0.0,0.0,0.0,0.0,0.0,0.0,0.0,0.0,0.0,0.0,0.0,0.0,0.0,0.0,0.0,0.0,0.0,0.0,0.0,0.0,0.0,0.0,0.0,0.0,0.0,0.0,0.0,0.0,0.0,0.0,0.0,0.0,0.0,0.0,0.0,0.0,0.0,0.0,0.0,2.5373,2.5449,2.5182,2.5373,2.5335,2.4816,2.4552,2.4389,2.4389,2.3191,0.0,0.0,0.0,0.0,0.0,0.0,0.0,0.0,0.0,0.0,0.0,0.0,0.0,0.0,0.0,0.0,0.0,0.0,0.0,0.0,0.0,0.0,0.0,0.0,0.0,0.0,0.0,0.0,0.0,0.0,0.0,0.0,0.0,0.0,0.0,0.0,0.0,0.0,0.0,0.0,0.0,0.0,0.0,0.0,0.0,0.0,0.0,0.0,0.0,0.0,0.0,0.0,0.0,0.0,0.0,0.0,0.0,0.0,0.0,0.0,0.0,0.0,0.0,0.0,0.0,0.0,0.0,0.0,0.0,0.0,0.0,0.0,0.0,0.0,0.0,0.0,0.0,0.0,0.0,0.0,0.0,0.0,0.0,0.0,0.0,0.0,0.0,0.0,0.0,0.0,0.0,0.0,0.0,0.0,0.0,0.0,0.0,0.0,0.0,0.0,0.0,0.0,2.4831,2.4855,2.443,2.4855,2.4973,2.443,2.425,2.4116,2.401,2.24,0.0,0.0,0.0,0.0,0.0,0.0,0.0,0.0,0.0,0.0,0.0,0.0,0.0,0.0,0.0,0.0,0.0,0.0,0.0,0.0,0.0,0.0,0.0,0.0,0.0,0.0,0.0,0.0,0.0,0.0,0.0,0.0,0.0,0.0,0.0,0.0,0.0,0.0,0.0,0.0,0.0,0.0,0.0,0.0,0.0,0.0,0.0,0.0,0.0,0.0,0.0,0.0,0.0,0.0,0.0,0.0,0.0,0.0,0.0,0.0,0.0,0.0,0.0,0.0,0.0,0.0,0.0,0.0,0.0,0.0,0.0,0.0,0.0,0.0,0.0,0.0,0.0,0.0,0.0,0.0,0.0,0.0,0.0,0.0,0.0,0.0,0.0,0.0,0.0,0.0,0.0,0.0,0.0,0.0,0.0,0.0,0.0,0.0,0.0,0.0,0.0,0.0,2.4736,2.443,2.4389,2.4855,2.4973,2.443,2.384,2.3277,2.2866,2.1539,0.0,0.0,0.0,0.0,0.0,0.0,0.0,0.0,0.0,0.0,0.0,0.0,0.0,0.0,0.0,0.0,0.0,0.0,0.0,0.0,0.0,0.0,0.0,0.0,0.0,0.0,0.0,0.0,0.0,0.0,0.0,0.0,0.0,0.0,0.0,0.0,0.0,0.0,0.0,0.0,0.0,0.0,0.0,0.0,0.0,0.0,0.0,0.0,0.0,0.0,0.0,0.0,0.0,0.0,0.0,0.0,0.0,0.0,0.0,0.0,0.0,0.0,0.0,0.0,0.0,0.0,0.0,0.0,0.0,0.0,0.0,0.0,0.0,0.0,0.0,0.0,0.0,0.0,0.0,0.0,0.0,0.0,0.0,0.0,0.0,0.0,0.0,0.0,0.0,0.0,0.0,0.0,0.0,0.0,0.0,0.0,0.0,0.0,0.0,0.0,0.0,0.0,2.4736,2.4266,0.0,2.4074,2.3948,2.3401,2.3466,2.3126,2.2154,0.0,0.0,0.0,0.0,0.0,0.0,0.0,0.0,0.0,0.0,0.0,0.0,0.0,0.0,0.0,0.0,0.0,0.0,0.0,0.0,0.0,0.0,0.0,0.0,0.0,0.0,0.0,0.0,0.0,0.0,0.0,0.0,0.0,0.0,0.0,0.0,0.0,0.0,0.0,0.0,0.0,0.0,0.0,0.0,0.0,0.0,0.0,0.0,0.0,0.0,0.0,0.0,0.0,0.0,0.0,0.0,0.0,0.0,0.0,0.0,0.0,0.0,0.0,0.0,0.0,0.0,0.0,0.0,0.0,0.0,0.0,0.0,0.0,0.0,0.0,0.0,0.0,0.0,0.0,0.0,0.0,0.0,0.0,0.0,0.0,0.0,0.0,0.0,0.0,0.0,0.0,0.0,0.0,0.0,0.0,0.0,0.0,0.0,0.0,0.0,0.0,0.0,2.4837,2.4471,2.3991,0.0,2.3595,2.3355,2.2727,2.2877,2.2532,2.1455,0.0,0.0,0.0,0.0,0.0,0.0,0.0,0.0,0.0,0.0,0.0,0.0,0.0,0.0,0.0,0.0,0.0,0.0,0.0,0.0,0.0,0.0,0.0,0.0,0.0,0.0,0.0,0.0,0.0,0.0,0.0,0.0,0.0,0.0,0.0,0.0,0.0,0.0,0.0,0.0,0.0,0.0,0.0,0.0,0.0,0.0,0.0,0.0,0.0,0.0,0.0,0.0,0.0,0.0,0.0,0.0,0.0,0.0,0.0,0.0,0.0,0.0,0.0,0.0,0.0,0.0,0.0,0.0,0.0,0.0,0.0,0.0,0.0,0.0,0.0,0.0,0.0,0.0,0.0,0.0,0.0,0.0,0.0,0.0,0.0,0.0,0.0,0.0,0.0,0.0,0.0,0.0,0.0,0.0,0.0,0.0,0.0,0.0,0.0,0.0,0.0,0.0,2.43,2.3906,2.3595,2.3595,2.3595,2.334,2.2727,2.2069,2.141,0.0,0.0,0.0,0.0,0.0,0.0,0.0,0.0,0.0,0.0,0.0,0.0,0.0,0.0,0.0,0.0,0.0,0.0,0.0,0.0,0.0,0.0,0.0,0.0,0.0,0.0,0.0,0.0,0.0,0.0,0.0,0.0,0.0,0.0,0.0,0.0,0.0,0.0,0.0,0.0,0.0,0.0,0.0,0.0,0.0,0.0,0.0,0.0,0.0,0.0,0.0,0.0,0.0,0.0,0.0,0.0,0.0,0.0,0.0,0.0,0.0,0.0,0.0,0.0,0.0,0.0,0.0,0.0,0.0,0.0,0.0,0.0,0.0,0.0,0.0,0.0,0.0,0.0,0.0,0.0,0.0,0.0,0.0,0.0,0.0,0.0,0.0,0.0,0.0,0.0,0.0,0.0,0.0,0.0,0.0,0.0,0.0,0.0,0.0,0.0,0.0,0.0,0.0,2.4219,2.3906,2.3595,2.3595,2.3206,2.2682,2.2039,2.1799,2.1201,2.0064,0.0,0.0,0.0,0.0,0.0,0.0,0.0,0.0,0.0,0.0,0.0,0.0,0.0,0.0,0.0,0.0,0.0,0.0,0.0,0.0,0.0,0.0,0.0,0.0,0.0,0.0,0.0,0.0,0.0,0.0,0.0,0.0,0.0,0.0,0.0,0.0,0.0,0.0,0.0,0.0,0.0,0.0,0.0,0.0,0.0,0.0,0.0,0.0,0.0,0.0,0.0,0.0,0.0,0.0,0.0,0.0,0.0,0.0,0.0,0.0,0.0,0.0,0.0,0.0,0.0,0.0,0.0,0.0,0.0,0.0,0.0,0.0,0.0,0.0,0.0,0.0,0.0,0.0,0.0,0.0,0.0,0.0,0.0,0.0,0.0,0.0,0.0,0.0,0.0,0.0,0.0,0.0,0.0,0.0,0.0,0.0,0.0,0.0,0.0,0.0,0.0,0.0,2.3948,2.3794,2.3595,2.3595,2.3041,2.2413,2.1754,2.1455,2.0842,1.975,0.0,0.0,0.0,0.0,0.0,0.0,0.0,0.0,0.0,0.0,0.0,0.0,0.0,0.0,0.0,0.0,0.0,0.0,0.0,0.0,0.0,0.0,0.0,0.0,0.0,0.0,0.0,0.0,0.0,0.0,0.0,0.0,0.0,0.0,0.0,0.0,0.0,0.0,0.0,0.0,0.0,0.0,0.0,0.0,0.0,0.0,0.0,0.0,0.0,0.0,0.0,0.0,0.0,0.0,0.0,0.0,0.0,0.0,0.0,0.0,0.0,0.0,0.0,0.0,0.0,0.0,0.0,0.0,0.0,0.0,0.0,0.0,0.0,0.0,0.0,0.0,0.0,0.0,0.0,0.0,0.0,0.0,0.0,0.0,0.0,0.0,0.0,0.0,0.0,0.0,0.0,0.0,0.0,0.0,0.0,0.0,0.0,0.0,0.0,0.0,0.0,0.0,2.3558,2.3595,2.358,2.352,2.2951,2.2323,2.1665,2.0991,2.0311,1.9683,0.0,0.0,0.0,0.0,0.0,0.0,0.0,0.0,0.0,0.0,0.0,0.0,0.0,0.0,0.0,0.0,0.0,0.0,0.0,0.0,0.0,0.0,0.0,0.0,0.0,0.0,0.0,0.0,0.0,0.0,0.0,0.0,0.0,0.0,0.0,0.0,0.0,0.0,0.0,0.0,0.0,0.0,0.0,0.0,0.0,0.0,0.0,0.0,0.0,0.0,0.0,0.0,0.0,0.0,0.0,0.0,0.0,0.0,0.0,0.0,2.3799,2.365,0.0,0.0,0.0,0.0,0.0,0.0,0.0,0.0,0.0,0.0,0.0,0.0,0.0,0.0,0.0,0.0,0.0,0.0,0.0,0.0,0.0,0.0,0.0,0.0,0.0,0.0,0.0,0.0,0.0,0.0,0.0,0.0,0.0,0.0,0.0,0.0,0.0,0.0,0.0,0.0,2.3548,2.3595,2.3415,2.2921,2.2293,2.1635,2.0976,2.0303,1.9678,1.9095,1.908,0.0,0.0,0.0,0.0,0.0,0.0,0.0,0.0,0.0,0.0,0.0,0.0,0.0,0.0,0.0,0.0,0.0,0.0,0.0,0.0,0.0,0.0,0.0,0.0,0.0,0.0,0.0,0.0,0.0,0.0,0.0,0.0,0.0,0.0,0.0,0.0,0.0,0.0,0.0,0.0,0.0,0.0,0.0,0.0,0.0,0.0,0.0,0.0,0.0,0.0,0.0,0.0,0.0,0.0,0.0,0.0,0.0,0.0,0.0,2.4216,2.4357,0.0,0.0,0.0,0.0,0.0,0.0,0.0,0.0,0.0,0.0,0.0,0.0,0.0,0.0,0.0,0.0,0.0,0.0,0.0,0.0,0.0,0.0,0.0,0.0,0.0,0.0,0.0,0.0,0.0,0.0,0.0,0.0,0.0,0.0,0.0,0.0,0.0,0.0,0.0,0.0,2.3563,2.3595,2.3355,2.2742,2.2084,2.1425,2.0782,1.9842,1.9207,1.893,1.8896,0.0,0.0,0.0,0.0,0.0,0.0,0.0,0.0,0.0,0.0,0.0,0.0,0.0,0.0,0.0,0.0,0.0,0.0,0.0,0.0,0.0,0.0,0.0,0.0,0.0,0.0,0.0,0.0,0.0,0.0,0.0,0.0,0.0,0.0,0.0,0.0,0.0,0.0,0.0,0.0,0.0,0.0,0.0,0.0,0.0,0.0,0.0,0.0,0.0,0.0,0.0,0.0,0.0,2.1786,2.2048,2.26,2.2004,2.2048,2.2688,2.3102,2.3928,2.4847,2.413,0.0,0.0,0.0,0.0,0.0,0.0,0.0,0.0,0.0,0.0,0.0,0.0,0.0,0.0,0.0,0.0,0.0,0.0,0.0,0.0,0.0,0.0,2.2862,2.3197,2.3293,2.3654,2.5102,0.0,0.0,0.0,0.0,0.0,0.0,0.0,0.0,0.0,0.0,0.0,2.3578,2.3595,2.331,2.2577,2.2024,2.1341,2.0474,1.9491,1.8817,1.8612,1.8713,1.8609,0.0,0.0,0.0,0.0,0.0,0.0,0.0,0.0,0.0,0.0,0.0,0.0,0.0,0.0,0.0,0.0,0.0,0.0,0.0,0.0,0.0,0.0,0.0,0.0,0.0,0.0,0.0,0.0,0.0,0.0,0.0,0.0,2.5845,2.545,0.0,0.0,0.0,0.0,0.0,0.0,0.0,0.0,0.0,0.0,0.0,0.0,0.0,2.0625,1.9925,1.9962,1.9962,1.9925,1.9885,1.9935,1.9999,1.9922,1.9935,1.9986,2.007,0.0,2.3688,2.3009,0.0,0.0,0.0,0.0,0.0,0.0,0.0,0.0,0.0,0.0,0.0,0.0,0.0,0.0,0.0,0.0,0.0,0.0,0.0,0.0,0.0,0.0,2.3354,2.2884,2.2774,2.31,2.4375,2.4128,2.3659,2.3442,2.3915,2.4154,0.0,0.0,0.0,0.0,0.0,0.0,2.3595,2.3595,2.3146,2.1949,2.1739,2.1015,1.9275,1.8988,1.8496,1.7585,1.7993,1.827,1.8206,1.8324,0.0,0.0,0.0,0.0,0.0,0.0,0.0,0.0,0.0,0.0,0.0,0.0,0.0,0.0,0.0,0.0,0.0,0.0,0.0,0.0,0.0,0.0,0.0,0.0,0.0,0.0,0.0,0.0,0.0,2.473,2.61,2.5466,2.6111,2.6081,0.0,0.0,0.0,0.0,0.0,0.0,0.0,0.0,0.0,1.8818,1.8353,1.7802,1.7093,1.7093,1.7093,1.7093,1.7093,1.7093,1.7093,1.7093,1.7332,1.7778,1.7778,1.8894,2.0788,2.1247,2.165,2.1993,0.0,0.0,0.0,0.0,2.277,2.3142,2.3747,2.3634,2.3326,2.382,0.0,0.0,0.0,0.0,0.0,0.0,0.0,2.1028,2.0735,2.0667,2.0752,2.0759,2.0772,2.0951,2.1494,2.1294,2.1665,2.3606,2.4146,2.403,2.3147,0.0,0.0,0.0,0.0,2.3595,2.3595,2.3595,2.3116,2.1829,2.1695,2.0931,1.9084,1.8612,1.8145,1.7353,1.7592,1.7887,1.8179,1.8081,1.8111,0.0,0.0,0.0,0.0,0.0,0.0,0.0,0.0,0.0,0.0,0.0,0.0,0.0,0.0,0.0,0.0,0.0,0.0,0.0,0.0,0.0,0.0,0.0,0.0,0.0,0.0,0.0,0.0,2.507,2.5935,2.5644,2.617,2.6021,0.0,0.0,0.0,0.0,0.0,0.0,1.9242,1.7914,1.6863,1.6224,1.5435,1.4659,1.3988,1.3988,1.3988,1.3988,1.3988,1.4123,1.4317,1.4317,1.4753,1.5524,1.5524,1.629,1.7596,1.9187,2.022,2.0772,2.0911,2.1332,2.1917,2.186,2.1981,2.226,2.288,2.2652,2.2247,2.3014,2.2803,2.2236,2.2434,0.0,0.0,0.0,0.0,1.9114,1.8971,1.8722,1.8566,1.8802,1.887,1.8904,1.9028,1.8944,1.9726,2.2949,2.3635,2.3447,2.2682,0.0,0.0,0.0,0.0,2.3595,2.3595,2.3595,2.3176,2.2054,2.1949,2.1144,1.9122,1.8579,1.799,1.716,1.7397,1.7777,1.8191,1.8113,1.8218,1.8436,0.0,0.0,0.0,0.0,0.0,0.0,0.0,0.0,0.0,0.0,0.0,0.0,0.0,0.0,0.0,0.0,0.0,0.0,0.0,0.0,0.0,0.0,0.0,0.0,0.0,0.0,0.0,0.0,0.0,2.6386,2.5655,0.0,0.0,0.0,0.0,1.7889,1.7645,1.694,1.5575,1.4629,1.379,1.3067,1.219,1.1365,1.065,1.065,1.065,1.065,1.065,1.1091,1.1859,1.1859,1.2318,1.3183,1.3183,1.3657,1.4601,1.6813,1.812,1.8725,1.8838,1.8471,1.802,1.9278,1.9312,1.8828,1.9389,1.9502,1.9581,1.9988,2.0002,1.9868,1.9907,1.9508,0.0,0.0,1.9149,1.9025,1.8656,1.8532,1.834,1.7812,1.7711,1.7846,1.8442,1.7919,1.8121,0.0,2.1906,2.2393,2.2415,0.0,2.412,2.2881,2.3187,2.3595,2.3595,2.3595,2.3355,2.2739,2.2664,2.1671,1.9307,1.9086,1.8342,1.6633,1.7551,1.8179,1.8204,1.8527,1.8359,1.7688,1.6922,0.0,0.0,0.0,0.0,0.0,0.0,0.0,0.0,0.0,0.0,0.0,0.0,0.0,0.0,0.0,0.0,0.0,0.0,0.0,0.0,0.0,0.0,0.0,0.0,0.0,0.0,0.0,0.0,2.5169,2.4883,0.0,2.2098,2.0505,1.8758,1.6743,1.6249,1.5089,1.2923,1.3136,1.2445,1.0512,0.9674,0.9285,0.9396,0.8634,0.8281,0.8281,0.8687,0.9018,0.9336,0.9336,1.0097,1.1363,1.1363,1.2181,1.3485,1.4287,1.5876,1.7856,1.7954,1.8305,1.869,1.884,1.8942,1.9016,1.9245,1.8944,1.8495,1.8606,1.9017,1.9441,1.9441,1.8896,1.8208,1.7728,1.7032,1.6243,1.552,1.5162,1.4928,1.466,1.5051,1.5449,1.5674,1.5909,1.656,1.8412,1.9959,2.0868,2.0649,2.2125,2.3035,2.218,2.2634,2.3143,2.3551,2.3595,2.3355,2.2742,2.2724,2.185,1.9781,1.9612,1.8909,1.7188,1.779,1.8204,1.8204,1.7757,1.7523,1.7622,1.6415,1.5322,0.0,0.0,0.0,0.0,0.0,0.0,0.0,0.0,0.0,0.0,0.0,0.0,0.0,0.0,0.0,0.0,0.0,0.0,0.0,0.0,0.0,0.0,0.0,0.0,0.0,2.4916,2.4736,2.4153,2.379,2.2815,2.0771,1.887,1.6863,1.4782,1.4387,1.3202,1.0712,1.1078,0.991,0.6741,0.6147,0.5913,0.5832,0.5088,0.4888,0.5298,0.5694,0.6359,0.7102,0.7102,0.8066,0.9666,0.999,1.0871,1.2189,1.2443,1.3908,1.5979,1.6602,1.7152,1.7616,1.7734,1.7694,1.7599,1.7916,1.7737,1.7338,1.7338,1.7859,1.8412,1.8412,1.7996,1.7338,1.6455,1.5542,1.4648,1.3638,1.3182,1.3009,1.3009,1.3433,1.3855,1.4145,1.4628,1.5361,1.6519,1.8115,1.9321,1.9571,2.0923,2.1807,2.1471,2.2161,2.283,2.3231,2.3465,2.3445,2.3041,2.2812,2.2047,2.0362,2.0042,1.9274,1.7781,1.8179,1.848,1.848,1.7571,1.7243,1.7567,1.613,1.4991,1.4213,0.0,0.0,0.0,0.0,0.0,0.0,0.0,0.0,0.0,0.0,0.0,0.0,0.0,0.0,0.0,0.0,0.0,0.0,0.0,0.0,0.0,0.0,0.0,2.5086,2.4736,2.4168,2.3576,2.2355,2.0793,1.877,1.7148,1.4917,1.1851,1.1877,1.1065,0.8826,0.8078,0.5888,0.1848,0.166,0.1064,-0.0,-0.0066,0.0531,0.1665,0.1732,0.2994,0.5259,0.5325,0.6248,0.7957,0.8812,0.9697,1.0488,1.1384,1.2205,1.3053,1.4672,1.4808,1.4323,1.5843,1.5487,1.4332,1.5108,1.5693,1.6105,1.6105,1.6338,1.6626,1.6626,1.6626,1.6403,1.5219,1.4852,1.4577,1.3283,1.2948,1.2948,1.2948,1.2948,1.3183,1.3965,1.4213,1.4451,1.5235,1.643,1.7832,1.9277,2.0054,2.0496,2.0775,2.1846,0.0,2.2694,2.3187,2.3551,2.3551,2.3054,2.2224,2.1028,2.0375,1.9491,1.8314,1.8744,1.8995,1.897,1.8084,1.7578,1.7523,1.6073,1.4991,1.4154,0.0,0.0,0.0,0.0,0.0,0.0,0.0,0.0,0.0,0.0,0.0,0.0,0.0,0.0,0.0,0.0,0.0,0.0,0.0,0.0,0.0,2.4595,2.4958,2.5189,2.4736,2.4184,2.3651,2.1988,2.02,1.855,1.5558,1.2658,1.0108,0.9444,0.833,0.6436,0.3687,0.2278,0.2401,-0.1403,-0.2342,-0.0,-0.0865,-0.1131,-0.0799,0.0066,0.1328,0.2795,0.3259,0.4452,0.6183,0.7042,0.7887,0.8726,0.9633,1.0451,1.1418,1.3622,1.4016,1.3425,1.4433,1.456,1.4332,1.5108,1.5488,1.5586,1.5586,1.5674,1.5771,1.5771,1.5771,1.5563,1.4653,1.3943,1.3317,1.2351,1.1717,1.1233,1.1233,1.2151,1.307,1.3312,1.4273,1.5108,1.5352,1.5673,1.644,1.789,1.8755,1.9547,2.066,2.1091,0.0,2.2558,2.283,2.2934,2.2934,2.2785,2.2197,2.0946,2.0656,2.009,1.8832,1.9296,1.9143,1.822,1.7794,1.7079,1.6026,1.5031,1.4145,0.0,0.0,0.0,0.0,0.0,0.0,0.0,0.0,0.0,0.0,0.0,0.0,0.0,0.0,0.0,0.0,0.0,0.0,0.0,0.0,0.0,0.0,2.4734,2.5144,2.491,2.4389,2.3864,2.3275,2.1661,1.9888,1.8119,1.5145,1.2216,0.9421,0.8242,0.6766,0.4761,0.1676,0.047,0.1537,-0.1473,-0.2885,-0.2274,-0.2943,-0.328,-0.3282,-0.2604,-0.1133,0.1067,0.22,0.3666,0.5474,0.6326,0.6981,0.7567,0.8812,0.9576,0.0,0.0,0.0,0.0,0.0,1.3416,1.3786,1.4204,1.4392,1.4451,1.4815,1.4874,1.4932,1.5294,1.5167,1.4805,1.4323,1.3364,1.2451,1.2328,1.1717,1.117,1.1538,1.2336,1.307,1.3433,1.4273,1.4991,1.5352,1.5642,0.0,1.7413,1.7961,1.8703,2.0181,2.0597,2.1091,2.1799,2.2114,2.23,2.23,2.2067,2.1609,2.0845,2.0547,0.0,0.0,0.0,1.9172,1.7856,1.7367,0.0,0.0,0.0,0.0,0.0,0.0,0.0,0.0,1.1873,1.1024,0.0,0.0,0.0,0.0,0.0,0.0,0.0,0.0,0.0,0.0,0.0,0.0,0.0,0.0,0.0,0.0,2.4745,2.5012,2.4471,2.3991,2.345,2.2875,2.1485,1.98,1.7848,1.5395,1.2679,0.9668,0.797,0.6167,0.4138,0.2002,0.0,0.0,0.0,-0.1203,-0.457,-0.4706,-0.4779,-0.4788,-0.4788,-0.3086,0.0067,0.2002,0.3877,0.5627,0.6465,0.685,0.6981,0.8619,0.9338,0.9594,1.1087,1.171,1.1834,1.1834,1.2266,1.2887,1.2948,0.0,0.0,1.3974,1.4273,1.4451,1.5167,1.4874,1.4332,1.4332,1.3235,1.2258,1.294,1.2512,1.2143,1.2826,1.307,1.3304,1.4034,1.4264,1.4569,1.5342,1.6036,1.6765,1.7578,1.7743,1.8178,1.9579,2.0295,2.0696,2.0795,2.1245,2.1615,2.1615,0.0,0.0,2.0696,2.0144,1.9798,1.9798,1.9631,1.898,1.7633,1.681,1.6093,1.541,1.541,1.4763,1.341,1.3713,1.3202,1.1864,1.163,1.0584,0.0,0.0,0.0,0.0,0.0,0.0,0.0,0.0,0.0,0.0,0.0,0.0,0.0,0.0,0.0,2.4349,2.4815,2.5012,2.4471,2.4307,2.4032,2.3508,2.1755,2.02,1.9105,1.5415,1.2502,1.124,0.8648,0.6889,0.6433,0.6449,0.5114,0.2255,0.2586,0.2056,0.04,-0.0532,-0.1063,-0.1063,-0.1063,0.0,0.0067,0.2579,0.4844,0.6836,0.7456,0.7767,0.7832,0.8877,0.9722,1.0364,1.0737,1.1226,1.1834,1.1834,1.1896,1.2135,1.2757,1.3425,1.3965,1.4154,1.4628,1.5167,1.5352,1.5294,0.0,1.5177,1.4501,1.3786,1.3906,1.3364,1.2826,1.2948,1.3485,1.4025,1.4154,1.4688,1.54,1.614,1.6368,1.6922,1.8286,1.8501,1.8768,1.9695,1.9901,2.0207,2.0746,2.0894,2.0979,2.0979,2.0894,2.0597,2.0055,1.985,1.9798,1.9798,1.8661,1.7895,1.7633,1.6301,1.5526,1.541,1.541,1.4763,1.341,1.3713,1.3202,1.187,1.2051,1.1046,0.0,0.0,0.0,0.0,0.0,0.0,0.0,0.0,0.0,0.0,0.0,2.2759,2.3088,0.0,2.4307,2.4032,2.4471,2.4632,2.4074,2.3716,2.3572,2.3608,2.2426,2.1069,1.956,1.6798,1.4157,1.1776,1.0207,0.8862,0.7618,0.8086,0.7553,0.584,0.5771,0.5048,0.3597,0.3845,0.398,0.3995,0.3977,0.4169,0.4438,0.5759,0.6837,0.7536,0.7842,0.8027,0.8091,0.9372,1.0395,1.1226,1.1226,1.1226,1.1226,1.1226,1.1226,1.1288,1.2143,1.2687,1.3114,1.3965,1.4451,1.4864,1.5294,1.5108,1.4874,1.5294,1.451,1.3786,1.4569,1.4213,1.3726,1.4094,1.451,1.4923,1.5264,1.568,1.614,1.6922,1.7357,1.7841,1.8555,1.8992,1.9371,1.9747,1.9798,1.9901,2.0258,2.0295,2.0295,2.0295,2.0597,2.0547,1.985,1.9798,1.9798,1.9798,1.8768,1.795,1.7633,1.6528,1.5748,1.541,1.541,1.4805,1.3623,1.3802,1.3286,1.2091,1.2231,1.1248,0.0,0.0,0.0,0.0,0.0,0.0,0.0,2.2307,2.2678,2.2678,2.3079,2.3465,2.3595,2.3948,2.4116,2.3681,2.4158,2.4302,2.3628,2.3284,2.3183,2.333,2.2717,2.1605,1.982,1.8307,1.6077,1.278,1.2329,1.125,0.9099,0.94,0.9488,0.9121,0.8835,0.7897,0.6183,0.7702,0.8403,0.8265,0.8208,0.8452,0.8857,0.9057,0.8958,0.8715,0.8907,0.8971,0.9099,1.0425,1.1377,1.2012,1.2012,1.1655,1.1052,1.0863,1.0926,1.1178,1.1841,1.2135,1.2504,1.3777,1.4332,1.4569,1.5167,1.4932,1.4569,1.5235,1.4451,1.3786,1.505,1.4932,1.4628,1.54,1.5633,1.5806,1.6539,1.6708,1.6922,1.7688,1.8286,1.8768,1.8874,1.9515,2.0003,2.0003,2.0003,2.0055,2.0131,2.0093,2.0055,2.0181,2.0547,2.0597,2.0055,2.0003,1.9952,1.9798,1.9097,1.8394,1.7633,1.6866,1.6151,1.541,1.541,1.493,1.4048,1.3925,1.3401,1.2437,1.2352,1.1248,2.3595,2.3595,2.358,2.352,2.349,2.3346,0.0,2.264,2.2684,2.2684,2.2741,2.2965,2.3508,2.3638,2.3681,2.3595,2.4471,2.4689,2.348,2.4026,2.4028,2.2593,2.1558,2.084,2.0585,1.8684,1.7048,1.5924,1.4582,1.3408,1.2496,1.2496,1.1873,1.0368,1.0961,1.0497,0.8798,0.9674,0.9743,0.9076,0.9064,0.9064,0.9197,0.9977,1.0662,1.1319,1.2104,1.2435,1.2443,1.2626,1.2757,1.2887,1.2887,1.2826,1.2642,1.1958,1.2143,1.2765,1.2826,1.3304,1.3965,1.4145,1.4688,1.5294,1.5352,1.5352,1.5294,1.5352,1.5284,1.5167,1.5352,1.5352,1.5459,1.6208,1.6379,1.6595,1.7302,1.7468,1.7688,1.8436,1.8661,1.8927,1.9579,2.0245,2.0696,2.0696,2.0696,2.0881,2.1424,2.1015,2.0881,2.1424,2.1064,2.0746,2.0696,2.0696,2.0446,1.985,1.9097,1.8394,1.7633,1.6866,1.6151,1.541,1.541,1.516,1.4622,1.4128,1.3564,1.2975,1.2542,1.1248,2.3492,2.3595,2.3595,2.3595,2.3595,2.3551,2.3275,2.3231,2.3231,2.3231,2.3231,2.329,2.3551,2.3879,2.4074,2.4074,2.4697,2.4866,2.3916,2.3791,2.3458,2.2447,2.2077,2.1535,2.0804,1.9485,1.8144,1.6685,1.6003,1.4929,1.3267,1.402,1.3929,1.2651,1.3339,1.2939,1.1287,1.2118,1.189,1.0677,1.1141,1.1403,1.1403,1.1796,1.2112,1.2472,1.3313,1.3631,1.3726,1.4168,1.4118,1.3726,1.3726,1.3726,1.3606,1.2818,1.2696,1.307,1.3545,1.3906,1.4273,1.4756,1.5118,1.541,1.541,1.541,1.541,1.541,1.569,1.6036,1.6036,1.6358,1.6743,1.709,1.7135,1.7357,1.8058,1.8221,1.8447,1.9202,1.967,2.0016,2.0346,2.0917,2.1452,2.1846,2.1582,2.1424,2.1663,2.1472,2.1582,2.2193,2.1403,2.093,2.1293,2.0633,2.0105,1.9798,1.9527,1.8821,1.7633,1.7302,1.6585,1.541,1.541,1.5254,1.5079,1.4269,1.3711,1.3408,1.2677,1.1545,2.3492,2.3595,2.3595,2.3595,2.3595,2.3551,2.3377,2.3465,2.3551,2.3377,2.3465,2.3595,2.3595,2.4032,2.4415,2.4545,2.5118,2.5261,2.4403,2.4,2.3537,2.2862,2.2899,2.2653,2.1819,2.0965,1.9669,1.7882,1.7733,1.6865,1.4869,1.5999,1.6168,1.5032,1.5756,1.5385,1.3803,1.4646,1.4372,1.2989,1.3656,1.3921,1.393,1.4168,1.4287,1.4278,1.4828,1.5071,1.5177,1.5726,1.5611,1.5119,1.5119,1.5119,1.5061,1.4464,1.3999,1.3734,1.4332,1.451,1.4628,1.5225,1.541,1.541,1.541,1.5526,1.569,1.569,1.6255,1.681,1.681,1.7191,1.7633,1.7841,1.7895,1.8167,1.9073,1.9137,1.9242,2.0169,2.0584,2.0845,2.1028,2.1582,2.2146,2.2649,2.2438,2.2225,2.2225,2.2225,2.2331,2.2649,2.2021,2.1582,2.1697,2.0841,2.0181,1.9798,1.9798,1.915,1.7688,1.7712,1.7105,1.5645,1.5713,1.5708,1.5661,1.4578,1.4026,1.3889,1.2837,1.1922,2.3595,2.3595,2.3595,2.3595,2.3595,2.3465,2.2875,2.3201,2.3421,2.2844,2.3187,2.3595,2.3595,2.4032,2.4545,2.4907,2.5818,2.6078,2.4942,2.5162,2.5015,2.3902,2.3771,2.3895,2.4249,2.326,2.1941,2.0393,2.0207,1.9668,1.8499,1.9033,1.8754,1.7321,1.81,1.7759,1.6311,1.7092,1.7092,1.6244,1.6254,1.6311,1.6311,1.7092,1.7457,1.7457,1.7457,1.7512,1.7512,1.7523,1.7523,1.7512,1.7512,1.7512,1.7512,1.7457,1.6574,1.5352,1.5352,1.5352,1.5352,1.541,1.541,1.541,1.541,1.5921,1.6492,1.6492,1.6978,1.7578,1.7578,1.7578,1.7797,1.8501,1.8661,1.9032,2.0434,2.0245,2.0131,2.1411,2.121,2.0979,2.1568,2.2253,2.2694,2.2694,2.3187,2.3551,2.3551,2.3551,2.3334,2.274,2.3187,2.3024,2.1791,2.1649,2.1135,1.9901,1.9798,1.915,1.7688,1.8047,1.761,1.6105,1.6465,1.6646,1.6665,1.5175,1.4473,1.4437,1.2949,1.2298,2.2993,2.3301,2.3595,2.3595,2.3595,2.3551,2.3334,2.3465,2.3551,2.3334,2.3736,2.4116,2.4116,2.4871,2.5566,2.5922,2.6116,2.6195,2.6139,2.5928,2.5715,2.5602,2.6188,2.6622,2.6713,2.4972,2.3358,2.2191,2.1774,2.1075,1.9997,2.0254,2.0132,1.9522,2.0265,2.0165,1.9202,1.9057,1.8792,1.8448,1.8448,1.8448,1.8448,1.8746,1.8863,1.8875,1.9405,1.9068,1.8354,1.9211,1.8778,1.7622,1.8109,1.8012,1.7578,1.7578,1.7302,1.6856,1.6856,1.6856,1.6856,1.6856,1.6856,1.6856,1.6856,1.7024,1.7246,1.7246,1.7731,1.834,1.834,1.9008,1.9799,2.0016,2.0382,2.0815,2.128,2.1232,2.1183,2.1602,2.1913,2.2128,2.2346,2.286,2.329,2.329,2.3465,2.3595,2.3595,2.3595,2.3508,2.3334,2.3098,2.2665,2.1744,2.1342,2.0904,2.0456,2.0376,2.0084,1.9467,1.9067,1.8392,1.7399,1.6954,1.6875,1.7168,1.5984,1.5556,1.5878,1.4037,1.3237,2.3011,2.3198,2.3417,2.2998,2.3013,2.316,2.3248,2.3266,2.3411,2.3791,2.4158,2.4496,2.4847,2.5607,2.637,2.6947,2.7052,2.7148,2.738,2.7065,2.6944,2.7176,2.7792,2.8258,2.8521,2.7196,2.5657,2.4143,2.3618,2.2928,2.1946,2.226,2.225,2.1907,2.2357,2.2189,2.1274,2.1052,2.0838,2.0567,2.0361,2.0289,2.0289,2.0289,2.0289,2.0289,2.0771,2.0476,1.9775,2.0637,2.0241,1.9105,1.9533,1.943,1.9052,1.9052,1.8919,1.8626,1.7895,1.7578,1.7578,1.7578,1.7578,1.7578,1.7578,1.7797,1.8058,1.8251,1.8903,1.949,1.9723,2.0432,2.1113,2.1113,2.1424,2.1758,2.1993,2.1852,2.1838,2.2271,2.2529,2.2785,2.2965,2.3334,2.3684,2.3924,2.3969,2.3969,2.3969,2.3744,2.3684,2.3939,2.3599,2.3132,2.247,2.2032,2.169,2.1401,2.1116,2.0828,2.0411,1.9698,1.8956,1.8227,1.754,1.7324,1.7607,1.6612,1.6314,1.6558,1.4593,1.3673,2.3542,2.3327,2.3052,2.2017,2.2041,2.2424,2.2722,2.275,2.308,2.4225,2.4471,2.4745,2.5688,2.6217,2.6874,2.7843,2.8421,2.8682,2.8568,2.852,2.8537,0.0,2.8591,2.8896,2.9672,2.9731,2.8699,2.6254,2.5729,2.5196,2.4378,2.4912,2.4964,2.43,2.4259,2.3751,2.2672,2.3139,2.3124,2.2569,2.2094,2.1871,2.1871,2.1838,2.1838,2.1871,2.1838,2.1791,2.1791,2.1791,2.1744,2.1697,2.1758,2.1744,2.1697,2.1697,2.1342,2.0534,1.8519,1.7786,1.7786,1.7786,1.7786,1.7829,1.7829,1.8328,1.902,1.9608,2.0307,2.0979,2.1568,2.1758,2.1744,2.1744,2.1744,2.1946,2.2589,2.2253,2.2179,2.3363,2.3143,2.2934,2.3553,2.3655,2.3879,2.4522,2.4627,2.4627,2.4627,2.4103,2.3954,2.4567,2.4627,2.4384,2.3782,2.3659,2.3344,2.2671,2.195,2.125,2.0565,2.0053,1.9438,1.8701,1.8308,1.8008,1.8008,1.7139,1.6636,1.6636,1.4728,1.3818,2.3231,2.3126,2.2991,2.274,2.2754,2.2986,2.3604,2.3746,2.3973,2.4807,2.5297,2.573,2.6234,2.6754,2.737,2.8182,2.8075,2.8194,2.9062,2.8912,0.0,2.954,0.0,2.9998,3.0196,3.0032,2.9468,2.8371,2.7709,2.7045,2.6394,2.5893,2.5579,2.5399,2.5086,2.4808,2.4498,2.4658,2.4406,2.3787,2.4129,2.4312,2.4296,2.3914,2.3914,2.4271,2.3477,2.3098,2.304,2.3098,2.2546,2.1758,2.2253,2.2146,2.1697,2.1697,2.1615,2.1376,2.0837,2.0369,2.0004,2.0004,2.0268,2.0627,2.0627,2.0788,2.0962,2.1156,2.1315,2.152,2.1649,2.2053,2.2452,2.2452,2.2815,2.3172,2.3319,2.3231,2.3216,2.3551,2.3465,2.3584,2.4224,2.4373,2.4597,2.5255,2.536,2.536,2.536,2.5211,2.5166,2.5345,2.536,2.5097,2.4496,2.3912,2.3469,2.3186,2.2526,2.2168,2.239,2.1715,2.0968,2.0081,1.9367,1.8654,1.8008,1.7794,1.7647,1.7579,1.6428,1.586,2.3511,2.3119,2.2712,2.2232,2.2506,2.3004,2.3535,2.3898,2.4429,2.5533,2.6021,2.6455,2.7209,2.7578,2.8049,2.8856,2.873,2.8839,2.9708,2.967,2.9711,0.0,3.0388,0.0,3.0487,3.0324,3.0042,2.9604,2.8815,2.809,2.7467,2.6992,2.6736,2.6736,2.6336,2.6038,2.5855,2.5411,2.5142,2.4977,2.5142,2.5221,2.5182,2.491,2.491,2.5182,2.4552,2.4127,2.3945,2.4168,2.3606,2.2591,2.3187,2.3054,2.2546,2.2546,2.2377,2.2146,2.2146,2.1927,2.1609,2.1307,2.1424,2.1697,2.1697,2.1697,2.1744,2.2053,2.2146,2.2193,2.2469,2.2801,2.3098,2.3098,2.3363,2.3595,2.3595,2.3595,2.3684,2.3984,2.4283,2.4597,2.4986,2.5061,2.5285,2.5944,2.6033,2.6153,2.6437,2.5959,2.5719,2.6019,2.6033,2.589,2.557,2.512,2.4688,2.4297,2.3563,2.3153,2.3125,2.2322,2.169,2.1175,2.0333,1.9431,1.8596,1.8596,1.8395,1.8008,1.707,1.6636,2.4195,2.3328,2.2332,2.1386,2.2,2.2895,2.3271,2.3951,2.49,2.6403,2.6719,2.7082,2.8244,2.8485,2.8764,2.957,2.9731,2.988,3.0286,3.0444,3.0506,3.0506,3.056,3.0601,3.0601,3.0532,3.0414,3.0225,2.9437,2.8704,2.8112,2.8047,2.7992,2.7897,2.756,2.721,2.6873,2.5947,2.5693,2.6175,2.5635,2.5411,2.5411,2.5335,2.5335,2.5411,2.5259,2.4989,2.4632,2.5028,2.4657,2.3879,2.4307,2.4225,2.3794,2.3794,2.3478,2.3039,2.3039,2.2995,2.2815,2.2086,2.1899,2.1932,2.1932,2.1932,2.2086,2.2634,2.283,2.292,2.3465,2.3595,2.3595,2.3595,2.367,2.3729,2.3729,2.3804,2.4073,2.4836,2.5379,2.577,2.5845,2.586,2.6038,2.6617,2.6722,2.6916,2.755,2.6572,2.6093,2.6662,2.6722,2.6722,2.6722,2.6608,2.6176,2.5453,2.4738,2.3943,2.3138,2.2445,2.2002,2.1877,2.1164,2.0333,1.9497,1.9365,1.8911,1.8134,1.7207,1.6784,2.4906,2.3643,2.2316,2.2123,2.2689,2.3545,2.4526,2.5322,2.6199,2.7397,2.7794,2.8074,2.8633,2.8872,2.915,2.9605,2.9845,2.9969,3.0061,3.0324,3.0506,0.0,3.0567,3.06,3.06,3.0548,0.0,3.0217,2.9937,2.9585,2.9169,2.8828,2.8424,2.7926,2.784,2.7754,2.7678,2.7206,2.6985,2.7066,2.664,2.6419,2.6436,2.6033,2.6068,2.6385,2.5561,0.0,2.5689,2.5335,2.5105,2.4934,2.5012,2.5012,2.4934,2.4934,2.4855,2.4776,2.4776,2.4496,2.3918,2.2891,2.286,2.326,2.326,2.326,2.3304,2.3406,2.3465,2.3465,2.3551,2.3595,2.3595,2.3595,2.4029,2.4448,2.4448,2.4881,2.5576,2.6693,2.6604,2.6531,2.7041,2.7149,2.7256,2.739,2.7445,2.749,2.761,2.743,2.7275,2.738,2.7445,2.7445,2.7445,2.6872,2.6176,2.5453,2.4738,2.3943,2.3138,2.2944,2.2567,2.1877,2.1753,2.1239,2.0398,1.9628,1.9233,1.9044,1.8192,1.7794,2.5308,2.4065,2.2877,2.3302,2.3935,2.4736,2.576,2.6578,2.7296,2.8013,2.8355,2.8638,2.9049,2.9316,2.957,2.9912,3.0073,3.0338,3.0918,3.0777,3.0775,3.1241,3.097,3.0755,3.0755,3.0664,3.0548,3.041,3.0318,3.0041,2.957,2.938,2.8927,2.8166,2.8306,2.821,2.7897,2.7707,2.7517,2.7303,2.7334,2.7115,2.6691,2.6674,2.6691,2.6657,2.6193,2.598,2.6013,2.598,2.5672,2.5221,2.5503,2.5449,2.5221,2.5221,2.5221,2.5221,2.5221,2.5012,2.4736,2.4194,2.3806,2.3595,2.3595,2.3794,2.4032,2.4032,2.4241,2.443,2.443,2.443,2.4523,2.4922,2.5528,2.6069,2.6069,2.657,2.723,2.7806,2.7953,2.8007,2.8047,2.8263,2.8295,2.7715,2.8125,2.8304,2.766,2.7845,2.7959,2.7625,2.7625,2.7625,2.7625,2.7306,2.6774,2.6014,2.5618,2.4951,2.3767,2.3708,2.3352,2.2567,2.2506,2.2125,2.1302,2.0846,2.0398,1.9955,1.911,1.8775,2.569,2.4563,2.362,2.424,2.4966,2.5746,2.6685,2.7504,2.8192,2.8529,2.8856,2.9142,2.9512,2.9776,3.0023,3.0256,3.0328,3.071,3.1753,3.1372,3.1241,3.1927,3.1505,0.0,3.0918,3.0782,3.0683,3.0614,3.0521,3.0272,2.9799,2.9712,2.938,2.8646,2.8805,2.8688,2.8147,2.8065,2.7851,2.7542,2.7765,2.756,2.6954,2.721,2.7115,2.6808,2.6725,2.647,2.6191,2.6556,2.6229,2.5561,2.5997,2.5872,2.5524,2.5524,2.5524,2.5524,2.5524,2.5449,2.5373,2.5373,2.4712,2.3948,2.3948,2.4225,2.4576,2.4576,2.4855,2.5253,2.5397,2.5445,2.567,2.6519,2.7185,2.7702,2.7946,2.8329,2.8672,2.8945,2.9313,2.9451,2.8966,2.9271,2.9225,2.8174,2.881,2.8996,2.7944,2.8189,2.8286,2.766,2.7625,2.7625,2.7625,2.7625,2.7306,2.6563,2.651,2.5906,2.4567,2.4408,2.4002,2.3365,2.3198,2.2823,2.2137,2.2121,2.1717,2.1005,2.027,1.9984,2.6242,2.5201,2.4311,2.4382,2.4966,2.5824,2.7,2.8009,2.8833,2.923,2.9624,2.9927,3.0086,3.03,3.0463,3.0552,0.0,3.0879,3.1774,3.1893,3.1908,3.1985,0.0,0.0,3.0976,3.0786,3.0678,3.0601,3.0472,3.0286,2.9984,2.9796,2.957,2.9312,2.9332,2.9206,2.8905,2.854,2.8342,2.8298,2.802,2.7869,2.7783,2.7439,2.7272,2.7224,2.6873,2.6691,0.0,2.6691,2.6657,2.659,2.6624,2.6624,2.6573,2.6573,2.6573,2.6573,2.6573,2.628,2.5924,2.5924,2.554,2.5051,2.5051,2.5105,2.5144,2.5144,2.5182,2.5365,2.6022,2.6198,2.6519,2.7891,2.826,2.8613,2.9763,2.9659,2.962,3.0721,3.0567,3.0208,3.0123,3.0166,2.9978,2.9316,2.9316,2.918,2.8511,2.8479,2.8286,2.766,2.7625,2.7625,2.7625,2.7625,2.7306,2.6563,2.651,2.6122,2.5342,2.4681,2.4292,2.4176,2.3484,2.3078,2.3017,2.2744,2.2591,2.2526,2.2115,2.1465,2.7442,2.6742,2.6206,2.656,2.6954,2.7561,2.8513,2.906,2.9381,2.9551,2.9874,3.0145,3.019,3.0431,3.0617,3.0656,3.0657,3.1145,3.255,3.229,3.2334,3.3438,3.2684,3.1973,3.1719,3.1164,3.0759,3.0616,3.0516,3.0393,3.0254,3.0155,2.9962,2.9589,2.957,2.9474,2.9246,2.8915,2.8633,2.8394,2.8489,2.8334,2.7897,2.7946,2.7862,2.7648,2.747,2.7286,0.0,2.7051,2.6939,2.6691,2.6691,2.6691,2.6691,2.6691,2.6691,2.6691,2.6691,2.659,2.6401,2.6401,2.628,2.598,2.5357,2.5411,2.5689,2.5689,2.6184,2.6816,2.7114,2.7898,2.8727,2.9291,2.9755,3.0235,3.073,3.0658,3.0617,3.1112,3.1015,3.074,3.0335,3.0601,3.0518,2.954,3.0038,3.0123,2.918,2.9361,2.9384,2.879,2.8429,2.8188,2.8188,2.8547,2.8666,2.8385,2.8399,2.8031,2.7257,2.6905,2.6345,2.5382,2.5079,2.4677,2.4142,2.4038,2.3944,2.3956,2.3273,2.2913,2.8333,2.7951,2.7751,2.8126,2.8365,2.8709,2.9525,2.9748,2.9799,2.9839,3.0079,3.0309,3.0348,3.0542,3.0693,0.0,3.0916,3.1604,3.305,3.2916,3.3138,3.4413,3.349,3.257,3.2187,3.1348,3.0774,3.0608,3.0532,3.0467,3.0398,3.0398,3.0215,2.9796,2.9731,2.9625,2.9494,2.9246,2.8984,2.8718,2.8984,2.8803,2.8228,2.8342,2.8264,2.8047,2.7954,2.7754,0.0,2.7487,2.7303,2.7051,2.7051,2.7004,2.6873,2.6873,2.6808,2.6691,2.6691,2.6843,2.7029,2.7029,2.7182,2.7247,2.655,2.6418,2.6557,2.6825,2.766,2.8501,2.8501,2.9465,3.0429,3.0429,3.0818,3.119,3.119,3.119,3.119,3.119,3.119,3.1122,3.0941,3.1237,3.1321,3.0669,3.1108,3.1223,3.0405,3.0522,3.0477,3.0177,2.9725,2.935,2.8906,2.931,2.9579,2.9579,2.9579,2.9332,2.8761,2.8523,2.7867,2.6835,2.6302,2.5772,2.518,2.5088,2.5059,2.5059,2.459,2.4386,2.8711,2.8482,2.8482,2.8501,2.8501,2.8709,2.9525,2.9861,3.0022,3.0167,3.0374,3.0544,3.0679,3.0698,3.0711,3.0703,3.1418,3.2262,3.3083,3.3936,3.448,3.4499,3.4488,3.3809,3.2167,3.1211,3.0675,3.0611,3.055,0.0,3.0398,3.0398,3.0286,3.0013,2.9796,2.9696,2.9696,2.9494,2.9392,2.9392,2.9392,2.9246,2.8994,2.8565,2.8394,2.8394,2.8047,2.7897,0.0,2.7897,2.7897,2.7897,2.7897,2.7648,2.7286,2.7286,2.7019,2.6691,2.6691,2.7182,2.7772,2.7772,2.8332,2.8958,2.8958,2.8416,2.7941,2.8738,2.9499,3.0091,3.0091,3.0632,3.119,3.119,3.119,3.119,3.119,3.119,3.119,3.119,3.119,3.1427,3.2138,3.2256,3.2527,3.3271,3.2747,3.2345,3.2425,3.1836,3.1434,3.1549,3.1577,3.1036,2.9678,2.9579,2.9579,2.9579,2.9579,2.9579,2.9579,2.8832,2.8396,2.8396,2.6895,2.6069,2.6083,2.5767,2.5586,2.5598,2.6176,2.5931,2.9631,2.9665,2.9754,2.9574,2.9665,2.9876,3.0112,3.0266,3.0343,3.0407,3.0535,3.0641,3.0679,3.0693,3.1087,3.2288,3.2574,0.0,3.5369,3.5864,3.6031,3.6136,3.4667,3.3031,3.1404,3.0996,3.078,3.0673,3.0618,3.0544,3.0467,3.0417,3.0355,3.0286,3.0032,2.9908,2.9908,2.9713,2.9551,2.9412,2.9412,2.9246,2.8994,2.8863,2.8815,2.8797,2.87,2.8507,2.8237,2.8237,2.8102,2.7897,2.7897,2.7811,2.7707,2.7707,2.7619,2.7617,2.8154,2.8487,2.8784,2.9327,2.9464,2.9506,3.0023,2.9433,2.8772,2.9533,2.9922,3.0226,3.0717,3.1021,3.119,3.119,3.119,3.119,3.119,3.119,3.119,3.119,3.1596,3.2019,3.2239,3.2713,3.3136,3.3372,3.3203,3.3094,3.31,3.2916,3.28,3.2908,3.2901,3.2363,3.1074,3.0905,3.0911,3.0911,3.0911,3.0911,3.0911,3.0654,3.0279,2.9723,2.9231,2.8374,2.7195,2.7118,2.6758,2.6189,2.6445,2.6314,3.0215,3.0286,3.0405,3.0234,3.0324,3.0487,3.0487,3.0506,3.0544,3.0564,3.0641,3.0694,3.0708,3.0691,3.1155,3.2508,3.2889,3.3769,0.0,3.6531,3.6738,3.681,3.4718,3.2878,0.0,3.1246,3.084,3.0703,3.0639,3.0558,3.0506,3.0448,3.0398,3.0398,3.0136,3.0061,3.015,2.9943,2.9746,2.9626,2.9533,2.9394,2.9156,2.9062,2.8994,2.8994,2.8994,2.8863,0.0,2.8633,2.8489,2.8326,2.8326,2.8228,2.8138,2.8423,2.8464,2.8475,2.9266,2.9727,3.0047,3.0543,3.0709,3.0763,3.1235,3.0643,2.9922,3.0395,3.0531,3.0654,3.127,3.1312,3.123,3.1389,3.1329,3.119,3.119,3.119,3.1275,3.1546,3.1968,3.25,3.3017,3.3508,3.3914,3.4201,3.3998,3.3931,3.4201,3.3998,3.3953,3.4255,3.4074,3.3583,3.279,3.223,3.1796,3.1539,3.1482,3.1482,3.1482,3.1482,3.1278,3.0777,3.045,2.9766,2.8684,2.8051,2.7417,2.6973,2.6658,2.6533,0.0,3.046,3.0506,3.051,3.056,3.0598,3.0598,3.0595,0.0,3.0679,3.0689,3.0714,3.079,3.0775,3.1064,3.1936,3.2692,3.3749,0.0,3.6276,3.668,3.6628,3.4594,3.3167,3.3116,3.1758,3.084,3.0723,3.0645,3.0579,3.0498,3.0448,3.0398,3.0398,3.015,3.015,3.0398,3.015,3.0013,2.9999,2.9813,2.9607,2.9392,2.9178,2.9021,0.0,2.9017,2.9017,2.8994,2.8994,2.9012,2.9085,2.9085,2.8901,2.8699,2.9447,2.9529,2.9372,3.0172,3.0902,3.1475,3.1515,3.198,3.255,3.2517,3.1914,3.1291,3.1291,3.1291,3.1389,3.1752,3.1545,3.1368,3.1785,3.1593,3.1275,3.1343,3.136,3.1546,3.2239,3.2432,3.2865,3.4252,3.4539,3.481,3.552,3.503,3.4827,3.552,3.5013,3.4844,3.5537,3.5052,3.464,3.4576,3.3391,3.2382,3.164,3.1582,3.1524,3.1482,3.1482,3.1482,3.1482,3.0703,3.0329,3.0329,2.862,2.7802,2.7802,2.704,2.6658,3.0559,0.0,3.0582,3.0579,3.0579,3.0598,0.0,3.0646,3.0679,3.0698,3.0706,3.0894,3.1558,3.161,3.2231,3.437,3.4826,3.5493,3.718,3.7007,3.6493,3.5926,3.4199,3.285,3.2326,3.1346,3.0781,3.0859,3.0739,3.0657,3.0568,3.0506,3.0448,3.0398,3.0343,3.0343,3.0398,3.0343,3.0209,2.9999,2.9954,2.9729,2.9412,2.9494,2.9336,2.9017,2.9222,2.92,2.8994,2.8994,2.9365,2.9934,2.9934,3.0235,3.0716,3.0917,3.0921,3.0979,3.1773,3.2174,3.2374,3.2667,3.2883,3.2983,3.2616,3.235,3.2179,3.2179,3.2179,3.2231,3.2316,3.2004,3.1852,3.255,3.2381,3.2188,3.2763,3.2882,3.2933,3.3119,3.3592,3.4083,3.4438,3.4979,3.5419,3.5588,3.547,3.5419,3.5605,3.547,3.5419,3.5605,3.547,3.5161,3.4624,3.3836,3.3093,3.2382,3.2327,3.2064,3.1524,3.1482,3.1482,3.1482,3.0703,3.0329,3.0329,2.9192,2.8684,2.8684,2.8492,2.8051,3.0742,3.0972,3.1237,3.1245,3.1293,3.1334,3.1334,3.1052,3.0764,3.0712,3.0703,3.0956,3.1751,3.1853,3.2615,3.5152,3.5185,0.0,3.718,3.7007,3.6416,3.5652,3.4038,3.2728,0.0,3.1194,3.0762,3.0898,3.0781,3.0671,3.0652,3.0588,3.0525,3.0448,3.0448,3.0417,3.0398,3.0398,3.0323,3.0182,3.0061,2.9893,2.9678,2.9696,2.9551,2.9353,2.9764,2.9866,2.9751,3.0,3.0356,3.0742,3.0742,3.1017,3.1439,3.1806,3.1953,3.2063,3.2871,3.3146,3.3193,3.3405,3.3494,3.3419,3.3148,3.3087,3.2996,3.2616,3.2484,3.2639,3.3223,3.3031,3.2915,3.3952,3.3843,3.3592,3.4008,3.4112,3.4098,3.4254,3.4607,3.4916,3.4989,3.5351,3.5622,3.5622,3.5622,3.5622,3.5622,3.5622,3.5622,3.5622,3.5622,3.547,3.5098,3.4752,3.4103,3.3145,3.2788,3.2437,3.2007,3.1682,3.1482,3.1482,3.1087,3.0837,3.0837,3.0011,2.9566,2.9566,2.9192,2.8748,3.1038,3.1625,3.2154,3.1903,3.2031,3.2168,3.2004,3.1395,0.0,0.0,0.0,0.0,0.0,3.2186,0.0,0.0,0.0,0.0,3.6507,3.6603,3.6219,3.5411,3.3942,0.0,3.1981,3.1164,3.0756,3.0898,3.0781,3.0723,3.0703,3.0646,3.0577,3.0516,3.051,3.0467,3.0417,3.0398,3.0398,3.0398,3.0163,3.0028,2.9999,2.9994,2.9937,2.9888,3.0541,0.0,3.0779,3.1212,3.1458,3.1568,3.1568,3.1659,3.1843,3.254,3.2797,3.2889,3.3568,3.3807,3.3807,3.3807,3.3807,3.3807,3.3807,3.3807,3.3671,3.3046,3.2891,3.3148,3.4194,3.4239,3.4278,3.5497,3.5411,3.5119,3.5244,3.5261,3.5295,3.5427,3.5486,3.5531,3.5708,3.565,3.5622,3.5694,3.5667,3.5622,3.5622,3.5622,3.5622,3.5622,3.5622,3.5622,3.5622,3.5622,3.5115,3.3987,3.3287,3.2788,3.2602,3.2007,3.164,3.1482,3.1482,3.1482,3.1482,3.0837,3.0464,3.0464,2.9752,2.9373,3.1668,3.2489,3.284,3.1415,3.1638,3.1981,3.1125,3.0839,3.0714,0.0,0.0,0.0,0.0,3.3993,3.5282,0.0,0.0,3.6411,0.0,0.0,3.5372,3.4507,0.0,3.2712,3.1981,3.1171,3.0761,3.0898,3.0879,3.082,3.0703,3.0698,3.0645,3.0587,3.053,3.0506,3.0487,3.0417,3.0398,3.0398,3.0355,3.0209,3.0032,3.0975,3.1042,3.0518,0.0,3.1696,3.1274,3.1372,3.1806,3.243,3.243,3.2834,3.344,3.3568,3.3623,3.3623,3.3752,3.3807,3.3807,3.3807,3.3807,3.3807,3.3807,3.3807,3.3908,3.4475,3.46,3.4666,3.4869,3.5097,3.5533,3.6327,3.6165,3.6023,3.6697,3.6856,3.6741,3.629,3.6243,3.6236,3.6274,3.5898,3.5739,3.6224,3.5898,3.5622,3.5622,3.5622,3.5622,3.5622,3.5622,3.5622,3.5622,3.5622,3.5515,3.5316,3.464,3.3786,3.2641,3.2492,3.212,3.1524,3.1482,3.1482,3.1482,3.1409,3.1351,3.1278,3.1161,3.1055,3.1157,3.1906,3.2409,3.1621,3.2478,3.3371,3.2878,3.2383,0.0,0.0,0.0,0.0,0.0,0.0,3.5064,3.5911,0.0,3.7084,3.618,3.5334,3.4468,0.0,0.0,3.2054,3.1274,3.0904,3.0768,3.0897,3.0898,3.0879,3.0801,3.0801,3.0759,3.066,3.0594,3.054,3.0506,3.0417,3.0398,3.0398,3.0398,3.0573,3.095,3.145,3.1761,3.1868,0.0,3.2705,3.2486,3.2637,3.2908,3.3256,3.3256,3.3476,3.3807,3.3807,3.3807,3.3807,3.3807,3.3807,3.3862,3.4321,3.4468,3.4541,3.5018,3.5147,3.522,3.5605,3.5367,3.5192,3.6119,3.6497,3.6833,3.7603,3.7606,3.7546,3.7925,3.8016,3.7861,3.7305,3.7193,3.7117,3.6882,3.6374,3.6097,3.6374,3.5941,3.5622,3.5622,3.5622,3.5622,3.5622,3.5622,3.5622,3.5622,3.5622,3.547,3.5098,3.4783,3.3987,3.2641,3.2586,3.2272,3.1524,3.1884,3.2063,3.2063,3.2422,3.2587,3.2587,3.2587,3.2541,3.087,3.14,3.1927,3.2085,0.0,3.4045,3.4371,3.3787,0.0,0.0,0.0,0.0,0.0,3.4507,0.0,3.5949,3.6988,3.718,3.5718,3.4757,3.3814,3.2737,3.2148,3.1493,3.0685,3.0692,3.0795,3.0898,3.0898,3.0898,3.0898,3.0898,3.0859,3.0742,3.0654,3.0576,3.0525,3.0448,3.0398,3.0398,3.0609,3.1064,3.1718,3.2102,3.2596,3.3138,3.3524,3.3672,3.3607,3.3746,3.3807,3.3807,3.3807,3.3807,3.3807,3.3807,3.3807,3.3825,3.4027,3.4082,3.4229,3.5055,3.5312,3.544,3.6101,3.6303,3.634,3.6523,3.6101,3.5881,3.7165,3.7624,3.7936,3.856,3.8707,3.8707,3.8707,3.8707,3.8546,3.8013,3.7893,3.779,3.7433,3.6943,3.658,3.658,3.6139,3.5739,3.5622,3.5622,3.5622,3.5622,3.5622,3.569,3.5876,3.5893,3.5761,3.5393,3.5195,3.4595,3.3398,3.3341,3.3011,3.2264,3.2541,3.2736,3.2751,3.3245,3.3499,3.3499,3.3499,3.3574,3.1603,3.1842,3.2062,3.2678,3.2468,0.0,3.3974,3.3647,0.0,3.3968,0.0,0.0,0.0,3.5468,3.6815,3.768,3.7238,3.6488,3.5622,0.0,3.3603,3.1987,3.1859,3.154,3.0685,3.0774,3.0897,3.0898,3.0898,3.0898,3.0898,3.0898,3.0898,3.0898,3.0693,3.0595,3.0583,3.0467,3.0398,3.0398,3.1218,3.1641,3.1756,3.3314,3.3911,3.377,3.4358,3.4435,3.4125,3.3891,3.3807,3.3807,3.3807,3.3807,3.3807,3.3807,3.3807,3.3917,3.4642,3.4899,3.5045,3.5917,3.6211,3.6211,3.6266,3.6303,3.645,3.7184,3.7349,3.7331,3.7489,3.8046,3.8634,3.8689,3.8707,3.8707,3.8707,3.8707,3.8546,3.8013,3.7893,3.7893,3.7859,3.747,3.7135,3.7135,3.6684,3.6182,3.565,3.5622,3.5622,3.5622,3.5622,3.591,3.6637,3.6688,3.6992,3.7638,3.703,3.631,3.5498,3.5465,3.5181,3.4492,3.3804,3.3425,3.3425,3.3469,3.3499,3.3499,3.3499,3.3829,3.01,3.0941,3.1845,3.2083,3.2352,0.0,0.0,3.3974,3.3993,3.4834,3.5276,0.0,0.0,0.0,3.6599,3.6246,3.6477,3.6238,3.4872,3.393,3.2968,3.1833,3.134,3.0953,3.0626,3.0782,3.0898,3.0898,3.0898,3.0898,3.0898,3.0898,3.0898,3.0898,3.0693,3.0595,3.0602,3.0467,3.0679,3.1218,3.1545,3.2256,3.3276,3.391,3.4428,3.4875,3.4918,3.487,3.4755,3.4464,3.4353,3.4348,3.4141,3.4043,3.4018,3.385,3.4119,3.4596,3.488,3.5367,3.5954,3.678,3.7037,3.7129,3.7643,3.779,3.7863,3.8157,3.8248,3.8248,3.8248,3.8469,3.8707,3.8707,3.8707,3.8707,3.8707,3.8707,3.8627,3.8433,3.8382,3.8547,3.9071,3.8721,3.8528,3.903,3.8408,3.7759,3.7541,3.7223,3.7043,3.7043,3.7043,3.6975,3.6789,3.7212,3.7601,3.7889,3.7635,3.7129,3.6389,3.5926,3.5379,3.469,3.4304,3.4098,3.4098,3.4532,3.4741,3.4741,3.4741,3.4876,2.9484,3.041,3.1371,3.1641,0.0,0.0,3.393,3.441,3.4853,3.5699,3.5605,3.5335,3.5239,0.0,0.0,0.0,3.5422,3.5334,3.3641,3.2891,3.2218,3.1391,3.0891,3.0597,3.0607,3.0782,3.0898,3.0898,3.0898,3.0898,3.0898,3.0898,3.0898,3.0898,3.0693,3.0723,3.1013,3.0879,3.1391,3.2487,3.2487,3.3083,3.4199,3.4468,3.4949,3.5493,3.5223,3.5105,3.5088,3.4793,3.4694,3.4674,3.4334,3.42,3.4189,3.4197,3.4541,3.5064,3.5624,3.6174,3.6798,3.7606,3.7863,3.7973,3.8524,3.8707,3.8707,3.8707,3.8707,3.8707,3.8707,3.8707,3.8707,3.8707,3.8707,3.8707,3.8707,3.8909,3.9074,3.9074,3.9276,3.9643,4.0175,3.9984,3.9873,4.0257,3.9536,3.8893,3.8721,3.8242,3.7905,3.7905,3.7905,3.7787,3.7499,3.7956,3.8345,3.8582,3.8582,3.8252,3.7536,3.6996,3.6366,3.566,3.537,3.5072,3.4801,3.528,3.5504,3.5504,3.5504,3.5504,3.0256,3.0448,3.0609,0.0,0.0,0.0,3.3814,3.4872,3.5705,3.6512,3.5825,3.5152,3.5427,3.527,0.0,3.4288,3.418,3.3603,3.1929,3.1698,3.1391,3.0494,3.0525,3.0597,3.0607,3.0782,3.0898,3.0898,3.0898,3.0898,3.0898,3.0898,3.0898,3.0898,3.0712,3.1033,3.1885,3.1763,3.2545,3.4199,3.4199,3.4199,3.4237,3.5122,3.5493,3.5493,3.5223,3.5105,3.5088,3.4832,3.4694,3.4674,3.4334,3.4218,3.4282,3.4797,3.5009,3.5247,3.6909,3.7526,3.7624,3.8432,3.8707,3.8707,3.8707,3.8707,3.8707,3.8707,3.8707,3.8707,3.8707,3.8707,3.8707,3.8707,3.8707,3.8707,3.8707,3.9331,3.99,3.99,4.0561,4.1111,4.113,4.113,4.0928,4.0402,3.9863,3.9347,3.8782,3.8259,3.7922,3.7922,3.7922,3.821,3.8937,3.9005,3.9309,4.002,4.007,3.9749,3.9039,3.8933,3.8525,3.7806,3.7024,3.6228,3.5504,3.5504,3.5504,3.5504,3.5504,3.5504,2.9467,3.039,0.0,3.1641,0.0,0.0,0.0,3.4256,0.0,0.0,3.4059,3.3513,3.3406,3.3485,0.0,3.3062,3.3158,3.291,3.1852,3.1698,3.1391,3.0494,3.0525,3.0597,3.0607,3.0782,3.0898,3.0898,3.0898,3.0898,3.0898,3.0898,3.0898,3.0898,3.1309,3.1637,3.1904,3.2321,3.3103,3.4199,3.4199,3.4526,3.5122,3.5391,3.5493,3.5493,3.5417,3.5383,3.5369,3.5289,3.5254,3.5223,3.4735,3.4908,3.5368,3.5106,3.5752,3.6817,3.7342,3.7863,3.8377,3.8615,3.8707,3.8707,3.8707,3.8707,3.8707,3.8707,3.8707,3.8707,3.8707,3.8707,3.8707,3.8707,3.8707,3.8854,3.9423,3.9717,4.0065,4.0634,4.0946,4.1295,4.1864,4.1937,4.2087,4.2481,4.1725,4.0779,3.9799,3.9559,3.9242,3.8717,3.914,3.9326,3.9022,3.9462,3.9851,4.007,4.007,3.9986,3.9766,3.9199,3.8525,3.7806,3.7024,3.6228,3.5504,3.5504,3.5504,3.5504,3.5504,3.5504,2.9525,3.039,0.0,3.1621,3.2468,3.3237,3.3383,0.0,0.0,0.0,3.3004,3.2732,3.267,3.2699,0.0,3.2235,3.2313,3.2141,3.1295,3.1179,3.0987,3.0456,3.0525,3.0597,3.0607,3.0782,3.0898,3.0898,3.0898,3.0898,3.0898,3.0898,3.0898,3.0898,3.1558,3.2075,3.2397,3.309,3.3853,3.4718,3.4718,3.4988,3.5493,3.5493,3.5493,3.5493,3.5493,3.5493,3.5493,3.5493,3.5493,3.5446,3.5035,3.5363,3.6042,3.5899,3.6686,3.7902,3.8236,3.8572,3.8855,3.8855,3.8773,3.8707,3.8707,3.8707,3.8707,3.8707,3.8707,3.8707,3.8707,3.8707,3.8707,3.8707,3.8946,3.9313,3.979,4.0396,4.1001,4.1479,4.1827,4.2213,4.269,4.2782,4.2928,4.3424,4.2523,4.1375,4.0254,4.007,3.9918,3.9462,3.9817,3.9901,3.9462,3.9817,4.007,4.007,4.007,4.007,4.007,3.961,3.9032,3.8246,3.7499,3.6692,3.5958,3.5604,3.5504,3.5504,3.5504,3.5504,3.0179,3.0398,0.0,3.1443,3.17,0.0,3.1994,3.3029,3.3618,3.2622,0.0,3.2348,3.2589,3.2474,3.2148,3.1674,3.1583,3.1295,3.0513,3.0398,3.0398,3.0398,3.0525,3.0597,3.0607,3.0782,3.0898,3.0898,3.0898,3.0898,3.0898,3.0898,3.0937,3.1016,3.1675,3.2434,3.3325,3.398,3.4718,3.5493,3.5493,3.5493,3.5493,3.5493,3.5493,3.5493,3.5493,3.5493,3.5493,3.5493,3.5493,3.546,3.5207,3.5639,3.6479,3.6931,3.7716,3.8622,3.9335,3.9389,3.9152,3.9152,3.8961,3.875,3.875,3.8719,3.8707,3.8707,3.8707,3.8726,3.8799,3.8817,3.8836,3.8909,3.9423,3.9937,4.0084,4.1258,4.2323,4.2396,4.3002,4.3497,4.3497,4.3497,4.3479,4.3444,4.2562,4.1508,4.0385,4.0204,4.0154,4.0154,4.0121,4.007,4.007,4.007,4.007,4.007,4.007,4.007,4.007,4.007,3.9731,3.8908,3.8206,3.7397,3.6615,3.5831,3.5504,3.5504,3.5504,3.5504,3.034,3.0398,0.0,0.0,3.1756,3.1879,3.1127,3.1336,3.1557,3.1128,3.0782,3.0566,3.061,3.0745,3.0823,3.0706,3.0679,3.0609,3.0417,3.0398,3.0398,3.0398,3.0525,3.0597,3.0607,3.0782,3.0898,3.0898,3.0898,3.0898,3.0898,3.0898,3.1211,3.1894,3.2576,3.3343,3.4216,3.4897,3.5315,3.5493,3.5493,3.5493,3.5493,3.5493,3.5493,3.5493,3.5493,3.5493,3.5493,3.5493,3.5493,3.546,3.5207,3.5982,3.7242,3.7139,3.8033,3.9354,3.9542,3.9552,3.9486,3.9486,3.9282,3.9008,3.9008,3.8855,3.8707,3.8707,3.8707,3.8854,3.9478,3.9643,3.979,4.0432,4.023,4.0249,4.1515,4.2066,4.2488,4.3112,4.3369,4.3497,4.3497,4.3497,4.3375,4.2939,4.2655,4.2262,4.1508,4.1013,4.075,4.075,4.0368,4.007,4.007,4.007,4.007,4.007,4.007,4.007,4.007,4.007,3.9731,3.8908,3.8206,3.7397,3.6615,3.5831,3.5504,3.5504,3.5504,3.5504,3.0398,0.0,0.0,3.0797,0.0,3.0846,3.0302,3.0208,3.0188,3.0048,2.9996,2.9999,2.9999,3.0209,3.0398,3.0398,3.0398,3.0398,3.0398,3.0398,3.0398,3.0448,3.0544,3.0601,3.0645,3.0801,3.0898,3.0898,3.0898,3.0898,3.0898,3.1309,3.1738,3.2187,3.3258,3.405,3.4485,3.5166,3.5493,3.5493,3.5493,3.5493,3.5493,3.5493,3.5493,3.5493,3.5493,3.5493,3.5493,3.5493,3.5493,3.5532,3.5776,3.6629,3.7761,3.8039,3.8956,4.0024,4.0024,3.9944,3.984,3.984,3.9486,3.9099,3.9099,3.8923,3.8707,3.8707,3.8982,3.9276,3.9313,3.99,4.0579,4.102,4.1075,4.1277,4.2121,4.2598,4.3002,4.3406,4.3497,4.3497,4.3497,4.3497,4.3339,4.2788,4.2711,4.248,4.1895,4.1251,4.0903,4.0903,4.0417,4.007,4.007,4.007,4.007,4.007,4.007,4.007,4.007,4.007,3.9901,3.9489,3.8707,3.7962,3.7144,3.6399,3.5846,3.5504,3.5504,3.5504,3.0398,0.0,3.0323,3.0323,3.0022,0.0,2.9696,2.957,2.9454,2.9454,2.9729,2.9999,2.9999,3.0209,3.0398,3.0398,3.0398,3.0398,3.0398,3.0398,3.0417,3.0487,3.0571,3.0621,3.0691,3.0823,3.0898,3.0898,3.0898,3.0898,3.0898,3.1738,3.2266,3.2402,3.3769,3.4574,3.471,3.5224,3.5493,3.5493,3.5493,3.5493,3.5493,3.5493,3.5493,3.5493,3.5493,3.5493,3.5493,3.5493,3.557,3.5776,3.6449,3.7315,3.8315,3.9027,3.9796,4.0489,4.0489,4.0356,4.0158,4.0158,3.9757,3.9264,3.9186,3.899,3.8762,3.8719,3.9276,3.9772,3.9258,4.0212,4.135,4.1497,4.2029,4.2506,4.2506,4.302,4.3497,4.3497,4.3497,4.3497,4.3497,4.3497,4.3339,4.2902,4.2826,4.2637,4.2144,4.1596,4.1233,4.1233,4.0805,4.046,4.046,4.046,4.046,4.046,4.0341,4.0273,4.0273,4.0155,4.007,4.007,3.9315,3.8525,3.7822,3.6964,3.6228,3.5504,3.5504,3.5504,0.0,0.0,3.0042,0.0,2.9877,2.9696,0.0,0.0,2.9661,0.0,2.9845,2.9999,2.9999,3.0209,3.0398,3.0398,3.0398,3.0398,3.0398,3.0398,3.0417,3.0487,3.0557,3.0637,3.0683,3.0823,3.0898,3.0898,3.0898,3.0898,3.0898,3.1738,3.2519,3.3223,3.4062,3.4835,3.5526,3.5526,3.5493,3.5493,3.5493,3.5493,3.5493,3.5493,3.5493,3.5493,3.5493,3.5493,3.5493,3.5493,3.5911,3.6546,3.6661,3.77,3.9142,3.9258,3.9796,4.0489,4.0489,4.0473,4.0457,4.0457,4.0232,3.9901,3.9622,3.9308,3.8999,3.8762,3.9276,4.0029,4.0634,4.146,4.2323,4.3002,4.3259,4.3332,4.3332,4.3406,4.3497,4.3497,4.3497,4.3497,4.3497,4.3497,4.3497,4.341,4.341,4.3356,4.3267,4.288,4.2653,4.2653,4.2287,4.1999,4.1999,4.1999,4.1999,4.1999,4.1407,4.1052,4.1052,4.0426,4.007,4.007,3.9315,3.8525,3.7822,3.6964,3.6228,3.5504,3.5504,3.5504,3.0275,3.0209,3.0142,0.0,3.0409,3.001,3.0484,3.0219,2.9877,2.9877,3.0047,3.0182,3.0028,3.0209,3.0398,3.0398,3.0398,3.0398,3.0398,3.0398,3.0448,3.0544,3.0582,3.065,3.0803,3.0864,3.0898,3.0898,3.0898,3.1113,3.1601,3.2422,3.3244,3.4046,3.4788,3.5329,3.5641,3.5565,3.5493,3.5493,3.5493,3.5493,3.5493,3.5493,3.5493,3.5493,3.5493,3.5493,3.5532,3.5988,3.6392,3.6796,3.7777,3.8623,3.9354,3.9796,4.02,4.0489,4.0489,4.0489,4.0489,4.0489,4.0194,3.9797,3.9645,3.9567,3.9538,3.9412,4.0286,4.1222,4.1148,4.2029,4.2947,4.2837,4.3167,4.3497,4.3497,4.3497,4.3497,4.3497,4.3497,4.3497,4.3497,4.3497,4.3497,4.3497,4.3883,4.4176,4.4176,4.3814,4.3554,4.3554,4.2819,4.2286,4.2286,4.2286,4.2286,4.2286,4.1999,4.1813,4.1813,4.1491,4.1322,4.1322,3.9731,3.8525,3.7822,3.7355,3.6779,3.6058,3.6058,3.6237,0.0,0.0,3.0252,3.1328,3.0953,3.0581,0.0,0.0,3.0677,0.0,3.0593,3.0592,3.0174,3.0267,3.0398,3.0398,3.0398,3.0398,3.0398,3.0398,3.0467,3.0583,3.0607,3.07,3.0878,3.0898,3.0898,3.0898,3.1113,3.1504,3.2168,3.3168,3.3985,3.4589,3.531,3.5649,3.5603,3.5545,3.5493,3.5493,3.5493,3.5493,3.5493,3.5493,3.5493,3.5493,3.5493,3.5622,3.5853,3.6449,3.6969,3.7488,3.8796,3.9411,3.9681,4.0277,4.0489,4.0489,4.0489,4.0489,4.0489,4.0489,4.0346,4.0122,3.9966,4.0173,4.0418,4.0257,4.1222,4.2158,4.157,4.2451,4.3332,4.2745,4.3057,4.3497,4.3497,4.3497,4.3497,4.3497,4.3497,4.3497,4.3497,4.3497,4.3552,4.3754,4.4323,4.4711,4.4766,4.454,4.4304,4.4184,4.3408,4.2861,4.2861,4.2861,4.2861,4.2861,4.2675,4.2574,4.2574,4.2388,4.2179,4.1984,4.0139,3.8894,3.8334,3.7825,3.7315,3.6716,3.6716,3.6971,0.0,3.0013,0.0,3.1096,3.1287,0.0,0.0,0.0,3.2532,3.1763,3.1609,3.1391,3.0533,3.0398,3.0398,3.0398,3.0398,3.0398,3.0398,3.0448,3.0525,3.0583,3.0652,3.0757,3.0897,3.0898,3.0898,3.0898,3.168,3.2148,3.2207,3.3697,3.4564,3.4614,3.5238,3.5597,3.5603,3.5545,3.5493,3.5493,3.5493,3.5493,3.5493,3.5493,3.5493,3.5493,3.5493,3.593,3.6642,3.668,3.768,3.9161,3.9258,3.9758,4.0431,4.0469,4.0489,4.0489,4.0489,4.0489,4.0489,4.0489,4.103,4.1564,4.0927,4.1324,4.1849,4.1224,4.1662,4.2286,4.2249,4.2873,4.3479,4.3442,4.3461,4.3497,4.3497,4.3497,4.3497,4.3497,4.3497,4.3497,4.3497,4.3497,4.3754,4.4525,4.4672,4.4766,4.4957,4.5088,4.4912,4.4331,4.4397,4.4451,4.4451,4.4451,4.4451,4.4451,4.3758,4.3352,4.3352,4.2675,4.193,4.1082,4.0286,3.9834,3.9774,3.8294,3.7529,3.736,3.736,3.7375,0.0,0.0,0.0,3.089,3.1197,3.155,3.2484,3.2812,3.2814,3.2526,3.2064,3.1602,3.1295,3.0794,3.0398,3.0398,3.0398,3.0417,3.0467,3.0487,3.0544,3.0641,3.0679,3.0759,3.0897,3.0898,3.0898,3.0898,3.1191,3.1814,3.2857,3.3446,3.4236,3.5205,3.5455,3.5584,3.5545,3.5526,3.5493,3.5493,3.5493,3.5493,3.5526,3.6045,3.5988,3.5565,3.6642,3.6949,3.6796,3.7911,3.8738,3.9354,3.9873,4.0239,4.0489,4.0489,4.0489,4.0489,4.0489,4.0489,4.0585,4.1143,4.1264,4.1209,4.1534,4.1902,4.2174,4.193,4.2451,4.3057,4.3057,4.3277,4.3497,4.3497,4.3497,4.3497,4.3497,4.3497,4.3497,4.3497,4.3497,4.3497,4.3497,4.392,4.4378,4.4672,4.559,4.6137,4.5802,4.5909,4.5721,4.5129,4.479,4.4587,4.4587,4.4587,4.4587,4.4587,4.4316,4.4164,4.4164,4.391,4.339,4.2515,4.1229,4.0101,3.903,3.8402,3.8054,3.8033,3.8033,3.8272,2.9632,0.0,0.0,0.0,0.0,3.1534,3.2737,3.3111,3.3229,3.332,3.291,3.2449,3.216,3.1641,3.1064,3.0494,3.066,3.0852,3.0941,3.1204,3.1448,3.1561,3.1603,3.1551,3.1347,3.1582,3.1504,3.0937,3.1672,3.2485,3.3262,3.3799,3.4524,3.5545,3.5584,3.5565,3.5493,3.5493,3.5493,3.5493,3.5776,3.5776,3.5545,3.6642,3.6699,3.6007,3.77,3.795,3.7257,3.87,3.945,3.9758,4.0277,4.0489,4.0489,4.0489,4.0489,4.0489,4.0489,4.0681,4.1027,4.1604,4.18,4.1888,4.2359,4.2679,4.2853,4.2724,4.3075,4.3497,4.3497,4.3497,4.3497,4.3497,4.3497,4.3497,4.3497,4.3497,4.3571,4.3846,4.3901,4.3993,4.425,4.4745,4.5204,4.548,4.6434,4.69,4.6342,4.6344,4.6112,4.5267,4.4869,4.4587,4.4587,4.4587,4.4587,4.4587,4.4587,4.4587,4.4587,4.4327,4.3739,4.2909,4.1597,4.0253,3.887,3.8551,3.8512,3.8736,3.8736,3.8746,0.0,0.0,0.0,0.0,0.0,0.0,3.3312,0.0,3.3846,3.4134,3.418,3.391,3.3083,3.291,3.2372,3.0737,3.1179,3.1768,3.1831,3.2624,3.323,3.3291,3.3371,3.3086,3.2305,3.2949,3.2734,3.1093,3.3197,3.4216,3.3369,3.4768,3.5584,3.5493,3.5493,3.5493,3.5493,3.5493,3.5493,3.5512,3.6334,3.6295,3.5603,3.7276,3.7565,3.6853,3.8584,3.8834,3.8104,3.8969,3.9796,4.0489,4.0489,4.0489,4.0489,4.0489,4.0489,4.0489,4.0489,4.1066,4.1797,4.1835,4.2718,4.3732,4.3428,4.3652,4.3924,4.3597,4.3497,4.3497,4.3497,4.3497,4.3497,4.3497,4.3497,4.3497,4.3497,4.3497,4.3736,4.4544,4.4709,4.4966,4.5755,4.592,4.6214,4.7003,4.7094,4.6924,4.6465,4.6365,4.5915,4.472,4.4587,4.4587,4.4587,4.4587,4.4587,4.4587,4.4587,4.4587,4.4587,4.3756,4.2909,4.1997,4.1147,4.0239,3.9424,3.8751,3.8766,3.9424,3.9424,3.8855,2.9846,0.0,0.0,0.0,0.0,0.0,0.0,0.0,3.3358,3.4045,3.3699,3.3372,3.3776,3.3333,3.2756,3.2275,3.241,3.2622,3.2788,3.3042,3.3234,3.336,3.3393,3.3301,3.3086,3.3262,3.3219,0.0,3.3294,3.3819,3.4145,3.5018,3.5526,3.5493,3.5493,3.5493,3.5493,3.5493,3.5493,3.5512,3.6334,3.6584,3.643,3.8142,3.845,3.7738,3.9431,3.97,3.8988,3.9815,4.0296,4.0489,4.0489,4.0489,4.0489,4.0489,4.0489,4.0489,4.0489,4.1066,4.1912,4.2547,4.3061,4.3548,4.4077,4.3968,4.3631,4.3513,4.3497,4.3497,4.3497,4.3497,4.3497,4.3497,4.3497,4.3497,4.3497,4.3497,4.3736,4.4544,4.4709,4.4966,4.5755,4.6379,4.6856,4.7095,4.7204,4.7089,4.6489,4.6014,4.5459,4.4665,4.4587,4.4587,4.4587,4.4587,4.4587,4.4587,4.4587,4.4587,4.4587,4.3756,4.2909,4.1997,4.1147,4.0239,3.9424,3.923,3.923,3.9424,3.9424,3.8855,3.0075,3.0182,0.0,0.0,0.0,0.0,3.1215,3.1795,3.262,0.0,3.3795,3.3699,3.4584,3.4353,3.4026,3.4026,3.4045,3.3987,3.3782,3.4088,3.4367,3.4471,3.4473,3.4336,3.3984,3.428,3.4159,3.3429,3.394,3.4484,3.4897,3.5282,3.5493,3.5493,3.5493,3.5493,3.5493,3.5493,3.5493,3.5512,3.668,3.7046,3.6776,3.8854,3.9335,3.8623,3.9931,4.0219,3.9835,4.0296,4.0489,4.0489,4.0489,4.0489,4.0489,4.0489,4.0489,4.0546,4.0912,4.1604,4.2453,4.3156,4.3602,4.3912,4.4242,4.3943,4.3497,4.3497,4.3497,4.3497,4.3497,4.3497,4.3497,4.3497,4.3497,4.3497,4.3497,4.3754,4.4232,4.5039,4.5204,4.5571,4.6709,4.7297,4.7609,4.7609,4.7506,4.715,4.6478,4.5865,4.5267,4.4682,4.4587,4.4587,4.4587,4.4587,4.4587,4.4587,4.4587,4.4587,4.4587,4.3426,4.252,4.1997,4.0774,3.9935,3.9424,3.9424,3.9424,3.9424,3.8943,3.8144,3.0417,3.0475,0.0,3.0142,3.0176,0.0,3.1054,3.1278,3.1819,0.0,3.391,3.418,3.5064,3.5353,3.5411,3.5315,3.5624,3.556,3.4758,3.538,3.592,3.5993,3.5996,3.5703,3.4922,3.5557,3.532,3.3709,3.4885,3.5621,3.552,3.5493,3.5493,3.5493,3.5493,3.5493,3.5493,3.5603,3.5641,3.5661,3.7334,3.7738,3.7065,3.9431,4.0104,3.9469,4.0181,4.0489,4.0489,4.0489,4.0489,4.0489,4.0489,4.0489,4.0489,4.0489,4.0489,4.0623,4.1508,4.2338,4.3133,4.3633,4.417,4.4527,4.4117,4.3836,4.3597,4.3582,4.3513,4.3497,4.3497,4.3497,4.3497,4.3497,4.3497,4.3497,4.3497,4.4121,4.4947,4.5736,4.5975,4.6526,4.8049,4.8249,4.821,4.821,4.7614,4.6955,4.6383,4.5783,4.5178,4.4682,4.4587,4.4587,4.4587,4.4587,4.4587,4.4587,4.4587,4.457,4.4457,4.2892,4.1933,4.1869,4.0255,3.9424,3.9424,3.9424,3.9424,3.9337,3.8308,3.7266,3.0506,3.0994,3.1328,3.0515,3.1341,0.0,3.0842,3.113,3.1738,0.0,3.2199,3.2449,3.3256,3.3987,3.4237,3.3545,3.5301,3.6484,3.5734,3.579,3.592,3.5993,3.5996,3.5937,3.5762,3.5888,3.5834,3.5416,3.5522,3.5573,3.5507,3.5493,3.5493,3.5493,3.5493,3.5493,3.5493,3.6142,3.6469,3.6488,3.8219,3.895,3.8834,3.9969,4.0412,4.0258,4.0431,4.0489,4.0489,4.0489,4.0489,4.0489,4.0489,4.0489,4.0489,4.0489,4.0489,4.0623,4.1508,4.216,4.2755,4.3533,4.417,4.4527,4.4117,4.4194,4.4308,4.3986,4.3693,4.3497,4.3497,4.3497,4.3497,4.3497,4.3497,4.3497,4.3497,4.4121,4.4947,4.5736,4.6434,4.7186,4.8141,4.7897,4.7572,4.7572,4.6589,4.5833,4.5681,4.5142,4.472,4.4626,4.4587,4.4587,4.4587,4.4587,4.4587,4.4587,4.4587,4.427,4.3562,4.2583,4.1674,4.0946,3.9935,3.9424,3.9424,3.9424,3.9424,3.9337,3.8308,3.7266,3.0563,3.1195,3.1749,3.1263,0.0,0.0,0.0,3.109,3.1333,3.2122,3.1987,3.2083,3.3314,3.3596,3.3673,3.3686,3.487,3.5834,3.595,3.6701,3.7269,3.7284,3.7305,3.7294,3.7292,3.7235,3.7147,3.7007,3.6873,3.6584,3.6122,3.6103,3.5911,3.5512,3.5493,3.5493,3.5493,3.6315,3.6699,3.6719,3.8469,3.9296,3.9315,4.0123,4.0489,4.0489,4.0489,4.0489,4.0489,4.0489,4.0489,4.0489,4.0489,4.0489,4.0489,4.0489,4.0489,4.0646,4.1777,4.2431,4.2948,4.3897,4.4488,4.4732,4.4175,4.4016,4.4004,4.3804,4.3612,4.3497,4.3497,4.3497,4.3497,4.3497,4.3497,4.3608,4.4011,4.4727,4.5553,4.6342,4.7168,4.7752,4.7824,4.7614,4.7299,4.6955,4.6112,4.5511,4.5511,4.4944,4.4587,4.4587,4.4587,4.4587,4.4587,4.4587,4.4587,4.4587,4.4587,4.4196,4.3306,4.2458,4.1412,4.0045,3.961,3.9424,3.9424,3.887,3.862,3.8546,3.7496,3.6462,0.0,0.0,3.2058,3.1722,0.0,3.2257,0.0,0.0,0.0,3.2256,3.2083,0.0,0.0,0.0,0.0,3.3653,0.0,0.0,0.0,3.7237,0.0,3.8124,3.8375,3.8507,3.8315,3.8197,3.8116,3.8108,3.7916,3.7531,3.6988,3.6949,3.6584,3.5757,3.5892,3.5834,3.5493,3.6642,3.7123,3.6969,3.87,3.9527,3.9546,4.02,4.0489,4.0489,4.0489,4.0489,4.0489,4.0489,4.0489,4.0489,4.0489,4.0489,4.0489,4.0489,4.0604,4.0934,4.2183,4.2891,4.3387,4.4379,4.4781,4.4806,4.429,4.3836,4.3513,4.3563,4.3548,4.3497,4.3497,4.3497,4.3534,4.3681,4.3718,4.3938,4.4764,4.5571,4.6324,4.6985,4.7755,4.8172,4.7674,4.7385,4.6999,4.6478,4.5783,4.532,4.532,4.4906,4.4587,4.4587,4.4587,4.4587,4.4587,4.4587,4.4587,4.4587,4.444,4.3948,4.3108,4.2062,4.0842,3.9424,3.9424,3.9265,3.9104,3.8234,3.7829,3.7753,3.654,3.5521,0.0,0.0,0.0,0.0,3.2499,0.0,0.0,0.0,3.2506,3.1141,0.0,0.0,0.0,0.0,0.0,0.0,0.0,0.0,3.4739,3.6304,3.7155,3.6402,3.7544,3.8127,3.7356,3.7198,3.742,3.805,3.744,3.7267,3.7815,3.7853,3.7469,3.6603,3.7315,3.7007,3.5512,3.7834,3.8623,3.7873,3.9546,4.0354,4.0354,4.045,4.0489,4.0489,4.0489,4.0489,4.0489,4.0489,4.0489,4.0489,4.0489,4.0489,4.0489,4.0489,4.0989,4.1797,4.2706,4.3331,4.3878,4.475,4.4638,4.4175,4.4447,4.4035,4.3563,4.3849,4.3726,4.3497,4.3497,4.3497,4.3663,4.4397,4.4562,4.4782,4.559,4.6416,4.7003,4.7095,4.7755,4.8267,4.821,4.7263,4.6478,4.643,4.5407,4.472,4.472,4.4626,4.4587,4.4587,4.4587,4.4587,4.4587,4.4587,4.4587,4.4587,4.3873,4.3047,4.2189,4.0585,3.961,3.9409,3.9424,3.8943,3.7994,3.7829,3.7829,3.7753,3.5775,3.4815,0.0,0.0,0.0,0.0,0.0,0.0,3.1619,0.0,3.1662,0.0,0.0,0.0,0.0,0.0,0.0,0.0,3.2365,0.0,0.0,0.0,3.6223,3.7358,0.0,0.0,3.8558,3.8535,3.8781,3.945,3.8766,3.8458,3.8738,3.8738,3.8354,3.7488,3.7315,3.7161,3.6949,3.8007,3.8623,3.8757,3.9931,4.0489,4.0489,4.0489,4.0489,4.0489,4.0489,4.0489,4.0489,4.0489,4.0489,4.0489,4.0489,4.0489,4.0489,4.0489,4.1046,4.1896,4.2544,4.3331,4.4193,4.4872,4.4757,4.4337,4.4261,4.3899,4.3513,4.3679,4.3597,4.3497,4.3497,4.3846,4.4287,4.4635,4.5057,4.5626,4.6434,4.6874,4.726,4.7719,4.7798,4.7797,4.7797,4.6999,4.6143,4.5459,4.4906,4.4587,4.4587,4.4587,4.4587,4.4587,4.4587,4.4587,4.4587,4.4587,4.4384,4.3873,4.2583,4.1609,4.128,4.006,3.9424,3.9424,3.9424,3.887,3.7829,3.719,3.654,3.6015,3.5142,3.4345,3.0475,0.0,0.0,0.0,0.0,0.0,0.0,0.0,0.0,0.0,0.0,0.0,0.0,0.0,3.1509,3.1972,0.0,3.2363,0.0,3.375,0.0,0.0,0.0,0.0,0.0,3.9035,3.9253,4.0116,3.948,3.9204,3.9604,3.9623,3.9238,3.8373,3.7969,3.7815,3.8007,3.845,3.8892,3.9296,4.0104,4.0489,4.0489,4.0489,4.0489,4.0489,4.0489,4.0489,4.0489,4.0489,4.0489,4.0489,4.0489,4.0489,4.0489,4.0489,4.12,4.2187,4.2431,4.3329,4.444,4.471,4.4638,4.4346,4.3986,4.3693,4.3497,4.3497,4.3644,4.3828,4.3828,4.4433,4.5094,4.5314,4.581,4.6452,4.7278,4.7311,4.7341,4.7926,4.7554,4.7044,4.691,4.6495,4.5883,4.4998,4.472,4.4587,4.4587,4.4587,4.4587,4.4587,4.4587,4.4587,4.4587,4.4384,4.3739,4.2645,4.1412,4.0554,4.0378,3.9737,3.9424,3.9424,3.9104,3.8457,3.7343,3.6304,3.5278,3.4275,3.4275,3.3687,0.0,0.0,0.0,3.0837,0.0,0.0,0.0,0.0,3.2988,0.0,0.0,0.0,0.0,3.334,3.3066,3.2324,3.2187,0.0,0.0,0.0,0.0,0.0,0.0,0.0,0.0,3.7578,3.7731,0.0,3.862,3.8819,4.0373,4.045,4.0085,3.9277,3.9988,3.9604,3.8027,3.9604,4.0027,3.9296,4.0104,4.0489,4.0489,4.0489,4.0489,4.0489,4.0489,4.0489,4.0489,4.0489,4.0489,4.0489,4.0489,4.0489,4.0489,4.0489,4.1585,4.2994,4.2622,4.3411,4.4516,4.4175,4.4028,4.3955,4.3631,4.3532,4.3497,4.3497,4.4066,4.4672,4.4672,4.5259,4.6067,4.6856,4.702,4.7297,4.8104,4.7802,4.7409,4.7428,4.691,4.624,4.5648,4.5545,4.5511,4.5459,4.4944,4.4587,4.4587,4.4587,4.4587,4.4587,4.4587,4.4587,4.4587,4.3814,4.2583,4.0878,4.0758,4.0309,3.9481,3.9409,3.9424,3.9424,3.8383,3.7343,3.6277,3.521,3.4191,3.3154,3.3154,3.2513,0.0,0.0,3.0373,3.0242,0.0,0.0,0.0,0.0,0.0,0.0,0.0,0.0,0.0,0.0,3.318,3.2903,3.2864,3.2751,0.0,0.0,0.0,0.0,0.0,0.0,0.0,0.0,3.7602,3.9212,3.9095,0.0,4.0431,4.1046,4.0969,4.0123,3.9835,3.9681,3.9642,3.9681,3.9835,4.0085,4.0354,4.0489,4.0489,4.0489,4.0489,4.0489,4.0489,4.0489,4.0489,4.0489,4.0489,4.0489,4.0489,4.0489,4.0566,4.1143,4.1927,4.2813,4.3601,4.4209,4.4527,4.4117,4.4016,4.3924,4.3597,4.3497,4.3497,4.3497,4.3699,4.403,4.4562,4.5296,4.6104,4.6929,4.7517,4.7842,4.7743,4.753,4.7299,4.6801,4.624,4.5732,4.5563,4.5196,4.4906,4.4906,4.472,4.4587,4.4587,4.4587,4.4587,4.4587,4.4587,4.4384,4.3814,4.2379,4.1346,4.0758,4.0185,3.9737,3.9409,3.9424,3.9104,3.8383,3.7994,3.6958,3.521,3.4897,3.4108,3.3068,3.2239,3.1589,2.9589,2.9662,0.0,2.9861,2.9961,0.0,3.0562,0.0,3.1367,0.0,0.0,0.0,0.0,0.0,3.3993,3.3722,3.3664,3.3246,0.0,3.2419,0.0,0.0,0.0,0.0,0.0,3.6656,3.725,3.9181,3.9339,3.9819,0.0,4.1797,4.1854,4.0989,4.045,4.0296,4.0489,3.9988,3.9988,4.0489,4.0489,4.0489,4.0489,4.0489,4.0489,4.0489,4.0489,4.0489,4.0489,4.0489,4.0489,4.0489,4.0408,4.0356,4.0452,4.1297,4.2045,4.2786,4.3984,4.4308,4.4184,4.3912,4.3836,4.3772,4.3582,4.3497,4.3497,4.3497,4.3699,4.4103,4.4929,4.5718,4.6489,4.7085,4.7612,4.7797,4.7194,4.6864,4.6589,4.6143,4.5597,4.5178,4.5178,4.4869,4.4587,4.4587,4.4587,4.4587,4.4587,4.4587,4.4587,4.4587,4.4327,4.368,4.2458,4.1346,4.0554,4.0239,3.9737,3.9424,3.9424,3.9424,3.887,3.7829,3.742,3.6397,3.4664,3.4345,3.3518,3.2413,3.1134,3.0316]},{"header":{"parameterUnit":"m.s-1","parameterCategory":1,"la1":30.6,"la2":29.2853,"lo1":-89.7004,"lo2":-87.6739,"dy":0.0162,"dx":0.0183,"nx":112,"ny":82,"refTime":"2024-08-05T18:00:00:Z","depth":0,"parameterNumber":3,"parameterNumberName":"V-component_of_WINDS"},"data":[0.0,0.0,0.0,0.0,0.0,0.0,0.0,0.0,0.0,0.0,0.0,0.0,0.0,0.0,0.0,0.0,0.0,0.0,0.0,0.0,0.0,0.0,0.0,0.0,0.0,0.0,0.0,0.0,0.0,0.0,0.0,0.0,0.0,0.0,0.0,0.0,0.0,0.0,0.0,0.0,0.0,0.0,0.0,0.0,0.0,0.0,0.0,0.0,0.0,0.0,0.0,0.0,0.0,0.0,0.0,0.0,0.0,0.0,0.0,0.0,0.0,0.0,0.0,0.0,0.0,0.0,0.0,0.0,0.0,0.0,0.0,0.0,0.0,0.0,0.0,0.0,0.0,0.0,0.0,0.0,0.0,0.0,0.0,0.0,0.0,0.0,0.0,0.0,0.0,0.0,-1.7202,-1.6539,-1.5921,-1.613,-1.7468,-1.7677,-1.7797,-1.7797,0.0,0.0,0.0,0.0,0.0,0.0,0.0,0.0,0.0,0.0,0.0,0.0,0.0,0.0,0.0,0.0,0.0,0.0,0.0,0.0,0.0,0.0,0.0,0.0,0.0,0.0,0.0,0.0,0.0,0.0,0.0,0.0,0.0,0.0,0.0,0.0,0.0,0.0,0.0,0.0,0.0,0.0,0.0,0.0,0.0,0.0,0.0,0.0,0.0,0.0,0.0,0.0,0.0,0.0,0.0,0.0,0.0,0.0,0.0,0.0,0.0,0.0,0.0,0.0,0.0,0.0,0.0,0.0,0.0,0.0,0.0,0.0,0.0,0.0,0.0,0.0,0.0,0.0,0.0,0.0,0.0,0.0,0.0,0.0,0.0,0.0,0.0,0.0,0.0,0.0,0.0,0.0,0.0,0.0,0.0,0.0,0.0,0.0,0.0,0.0,0.0,0.0,0.0,0.0,-1.6595,-1.6482,-1.6368,-1.6708,-1.7523,-1.8167,-1.8555,-1.8555,0.0,0.0,0.0,0.0,0.0,0.0,0.0,0.0,0.0,0.0,0.0,0.0,0.0,0.0,0.0,0.0,0.0,0.0,0.0,0.0,0.0,0.0,0.0,0.0,0.0,0.0,0.0,0.0,0.0,0.0,0.0,0.0,0.0,0.0,0.0,0.0,0.0,0.0,0.0,0.0,0.0,0.0,0.0,0.0,0.0,0.0,0.0,0.0,0.0,0.0,0.0,0.0,0.0,0.0,0.0,0.0,0.0,0.0,0.0,0.0,0.0,0.0,0.0,0.0,0.0,0.0,0.0,0.0,0.0,0.0,0.0,0.0,0.0,0.0,0.0,0.0,0.0,0.0,0.0,0.0,0.0,0.0,0.0,0.0,0.0,0.0,0.0,0.0,0.0,0.0,0.0,0.0,0.0,0.0,0.0,0.0,0.0,0.0,0.0,0.0,0.0,0.0,0.0,-1.7357,-1.7246,-1.7633,-1.7357,-1.7413,-1.8112,-1.8501,-1.8715,-1.8715,-1.8283,0.0,0.0,0.0,0.0,0.0,0.0,0.0,0.0,0.0,0.0,0.0,0.0,0.0,0.0,0.0,0.0,0.0,0.0,0.0,0.0,0.0,0.0,0.0,0.0,0.0,0.0,0.0,0.0,0.0,0.0,0.0,0.0,0.0,0.0,0.0,0.0,0.0,0.0,0.0,0.0,0.0,0.0,0.0,0.0,0.0,0.0,0.0,0.0,0.0,0.0,0.0,0.0,0.0,0.0,0.0,0.0,0.0,0.0,0.0,0.0,0.0,0.0,0.0,0.0,0.0,0.0,0.0,0.0,0.0,0.0,0.0,0.0,0.0,0.0,0.0,0.0,0.0,0.0,0.0,0.0,0.0,0.0,0.0,0.0,0.0,0.0,0.0,0.0,0.0,0.0,0.0,0.0,0.0,0.0,0.0,0.0,0.0,0.0,0.0,0.0,0.0,0.0,-1.8124,-1.8058,-1.8661,-1.8058,-1.7895,-1.8661,-1.8608,-1.8589,-1.8758,-1.8301,0.0,0.0,0.0,0.0,0.0,0.0,0.0,0.0,0.0,0.0,0.0,0.0,0.0,0.0,0.0,0.0,0.0,0.0,0.0,0.0,0.0,0.0,0.0,0.0,0.0,0.0,0.0,0.0,0.0,0.0,0.0,0.0,0.0,0.0,0.0,0.0,0.0,0.0,0.0,0.0,0.0,0.0,0.0,0.0,0.0,0.0,0.0,0.0,0.0,0.0,0.0,0.0,0.0,0.0,0.0,0.0,0.0,0.0,0.0,0.0,0.0,0.0,0.0,0.0,0.0,0.0,0.0,0.0,0.0,0.0,0.0,0.0,0.0,0.0,0.0,0.0,0.0,0.0,0.0,0.0,0.0,0.0,0.0,0.0,0.0,0.0,0.0,0.0,0.0,0.0,0.0,0.0,0.0,0.0,0.0,0.0,0.0,0.0,0.0,0.0,0.0,0.0,-1.8221,-1.8661,-1.8715,-1.8058,-1.7895,-1.8661,-1.8211,-1.8268,-1.8933,-1.7994,0.0,0.0,0.0,0.0,0.0,0.0,0.0,0.0,0.0,0.0,0.0,0.0,0.0,0.0,0.0,0.0,0.0,0.0,0.0,0.0,0.0,0.0,0.0,0.0,0.0,0.0,0.0,0.0,0.0,0.0,0.0,0.0,0.0,0.0,0.0,0.0,0.0,0.0,0.0,0.0,0.0,0.0,0.0,0.0,0.0,0.0,0.0,0.0,0.0,0.0,0.0,0.0,0.0,0.0,0.0,0.0,0.0,0.0,0.0,0.0,0.0,0.0,0.0,0.0,0.0,0.0,0.0,0.0,0.0,0.0,0.0,0.0,0.0,0.0,0.0,0.0,0.0,0.0,0.0,0.0,0.0,0.0,0.0,0.0,0.0,0.0,0.0,0.0,0.0,0.0,0.0,0.0,0.0,0.0,0.0,0.0,0.0,0.0,0.0,0.0,0.0,0.0,-1.8221,-1.8874,0.0,-1.915,-1.8964,-1.8865,-1.9002,-1.8895,-1.8507,0.0,0.0,0.0,0.0,0.0,0.0,0.0,0.0,0.0,0.0,0.0,0.0,0.0,0.0,0.0,0.0,0.0,0.0,0.0,0.0,0.0,0.0,0.0,0.0,0.0,0.0,0.0,0.0,0.0,0.0,0.0,0.0,0.0,0.0,0.0,0.0,0.0,0.0,0.0,0.0,0.0,0.0,0.0,0.0,0.0,0.0,0.0,0.0,0.0,0.0,0.0,0.0,0.0,0.0,0.0,0.0,0.0,0.0,0.0,0.0,0.0,0.0,0.0,0.0,0.0,0.0,0.0,0.0,0.0,0.0,0.0,0.0,0.0,0.0,0.0,0.0,0.0,0.0,0.0,0.0,0.0,0.0,0.0,0.0,0.0,0.0,0.0,0.0,0.0,0.0,0.0,0.0,0.0,0.0,0.0,0.0,0.0,0.0,0.0,0.0,0.0,0.0,-1.7716,-1.8608,-1.9254,0.0,-1.9798,-1.9597,-1.907,-1.9196,-1.8907,-1.8003,0.0,0.0,0.0,0.0,0.0,0.0,0.0,0.0,0.0,0.0,0.0,0.0,0.0,0.0,0.0,0.0,0.0,0.0,0.0,0.0,0.0,0.0,0.0,0.0,0.0,0.0,0.0,0.0,0.0,0.0,0.0,0.0,0.0,0.0,0.0,0.0,0.0,0.0,0.0,0.0,0.0,0.0,0.0,0.0,0.0,0.0,0.0,0.0,0.0,0.0,0.0,0.0,0.0,0.0,0.0,0.0,0.0,0.0,0.0,0.0,0.0,0.0,0.0,0.0,0.0,0.0,0.0,0.0,0.0,0.0,0.0,0.0,0.0,0.0,0.0,0.0,0.0,0.0,0.0,0.0,0.0,0.0,0.0,0.0,0.0,0.0,0.0,0.0,0.0,0.0,0.0,0.0,0.0,0.0,0.0,0.0,0.0,0.0,0.0,0.0,0.0,0.0,-1.8478,-1.9359,-1.9798,-1.9798,-1.9798,-1.9585,-1.907,-1.8518,-1.7965,0.0,0.0,0.0,0.0,0.0,0.0,0.0,0.0,0.0,0.0,0.0,0.0,0.0,0.0,0.0,0.0,0.0,0.0,0.0,0.0,0.0,0.0,0.0,0.0,0.0,0.0,0.0,0.0,0.0,0.0,0.0,0.0,0.0,0.0,0.0,0.0,0.0,0.0,0.0,0.0,0.0,0.0,0.0,0.0,0.0,0.0,0.0,0.0,0.0,0.0,0.0,0.0,0.0,0.0,0.0,0.0,0.0,0.0,0.0,0.0,0.0,0.0,0.0,0.0,0.0,0.0,0.0,0.0,0.0,0.0,0.0,0.0,0.0,0.0,0.0,0.0,0.0,0.0,0.0,0.0,0.0,0.0,0.0,0.0,0.0,0.0,0.0,0.0,0.0,0.0,0.0,0.0,0.0,0.0,0.0,0.0,0.0,0.0,0.0,0.0,0.0,0.0,0.0,-1.8584,-1.9359,-1.9798,-1.9798,-1.9472,-1.9032,-1.8493,-1.8292,-1.779,-1.6835,0.0,0.0,0.0,0.0,0.0,0.0,0.0,0.0,0.0,0.0,0.0,0.0,0.0,0.0,0.0,0.0,0.0,0.0,0.0,0.0,0.0,0.0,0.0,0.0,0.0,0.0,0.0,0.0,0.0,0.0,0.0,0.0,0.0,0.0,0.0,0.0,0.0,0.0,0.0,0.0,0.0,0.0,0.0,0.0,0.0,0.0,0.0,0.0,0.0,0.0,0.0,0.0,0.0,0.0,0.0,0.0,0.0,0.0,0.0,0.0,0.0,0.0,0.0,0.0,0.0,0.0,0.0,0.0,0.0,0.0,0.0,0.0,0.0,0.0,0.0,0.0,0.0,0.0,0.0,0.0,0.0,0.0,0.0,0.0,0.0,0.0,0.0,0.0,0.0,0.0,0.0,0.0,0.0,0.0,0.0,0.0,0.0,0.0,0.0,0.0,0.0,0.0,-1.8964,-1.9527,-1.9798,-1.9798,-1.9334,-1.8807,-1.8254,-1.8003,-1.7488,-1.6572,0.0,0.0,0.0,0.0,0.0,0.0,0.0,0.0,0.0,0.0,0.0,0.0,0.0,0.0,0.0,0.0,0.0,0.0,0.0,0.0,0.0,0.0,0.0,0.0,0.0,0.0,0.0,0.0,0.0,0.0,0.0,0.0,0.0,0.0,0.0,0.0,0.0,0.0,0.0,0.0,0.0,0.0,0.0,0.0,0.0,0.0,0.0,0.0,0.0,0.0,0.0,0.0,0.0,0.0,0.0,0.0,0.0,0.0,0.0,0.0,0.0,0.0,0.0,0.0,0.0,0.0,0.0,0.0,0.0,0.0,0.0,0.0,0.0,0.0,0.0,0.0,0.0,0.0,0.0,0.0,0.0,0.0,0.0,0.0,0.0,0.0,0.0,0.0,0.0,0.0,0.0,0.0,0.0,0.0,0.0,0.0,0.0,0.0,0.0,0.0,0.0,0.0,-1.9506,-1.9798,-1.9786,-1.9736,-1.9258,-1.8731,-1.8179,-1.7614,-1.7118,-1.659,0.0,0.0,0.0,0.0,0.0,0.0,0.0,0.0,0.0,0.0,0.0,0.0,0.0,0.0,0.0,0.0,0.0,0.0,0.0,0.0,0.0,0.0,0.0,0.0,0.0,0.0,0.0,0.0,0.0,0.0,0.0,0.0,0.0,0.0,0.0,0.0,0.0,0.0,0.0,0.0,0.0,0.0,0.0,0.0,0.0,0.0,0.0,0.0,0.0,0.0,0.0,0.0,0.0,0.0,0.0,0.0,0.0,0.0,0.0,0.0,-1.4089,-1.4071,0.0,0.0,0.0,0.0,0.0,0.0,0.0,0.0,0.0,0.0,0.0,0.0,0.0,0.0,0.0,0.0,0.0,0.0,0.0,0.0,0.0,0.0,0.0,0.0,0.0,0.0,0.0,0.0,0.0,0.0,0.0,0.0,0.0,0.0,0.0,0.0,0.0,0.0,0.0,0.0,-1.9672,-1.9798,-1.9648,-1.9233,-1.8706,-1.8154,-1.7601,-1.7036,-1.6807,-1.7118,-1.7105,0.0,0.0,0.0,0.0,0.0,0.0,0.0,0.0,0.0,0.0,0.0,0.0,0.0,0.0,0.0,0.0,0.0,0.0,0.0,0.0,0.0,0.0,0.0,0.0,0.0,0.0,0.0,0.0,0.0,0.0,0.0,0.0,0.0,0.0,0.0,0.0,0.0,0.0,0.0,0.0,0.0,0.0,0.0,0.0,0.0,0.0,0.0,0.0,0.0,0.0,0.0,0.0,0.0,0.0,0.0,0.0,0.0,0.0,0.0,-1.6104,-1.5818,0.0,0.0,0.0,0.0,0.0,0.0,0.0,0.0,0.0,0.0,0.0,0.0,0.0,0.0,0.0,0.0,0.0,0.0,0.0,0.0,0.0,0.0,0.0,0.0,0.0,0.0,0.0,0.0,0.0,0.0,0.0,0.0,0.0,0.0,0.0,0.0,0.0,0.0,0.0,0.0,-1.9684,-1.9798,-1.9597,-1.9083,-1.853,-1.7978,-1.7438,-1.7097,-1.6993,-1.7271,-1.7853,0.0,0.0,0.0,0.0,0.0,0.0,0.0,0.0,0.0,0.0,0.0,0.0,0.0,0.0,0.0,0.0,0.0,0.0,0.0,0.0,0.0,0.0,0.0,0.0,0.0,0.0,0.0,0.0,0.0,0.0,0.0,0.0,0.0,0.0,0.0,0.0,0.0,0.0,0.0,0.0,0.0,0.0,0.0,0.0,0.0,0.0,0.0,0.0,0.0,0.0,0.0,0.0,0.0,-2.0139,-1.9852,-2.0171,-1.9812,-1.9852,-2.0073,-1.8707,-1.8031,-1.797,-1.7693,0.0,0.0,0.0,0.0,0.0,0.0,0.0,0.0,0.0,0.0,0.0,0.0,0.0,0.0,0.0,0.0,0.0,0.0,0.0,0.0,0.0,0.0,-2.2962,-2.34,-2.3497,-2.3245,-2.2208,0.0,0.0,0.0,0.0,0.0,0.0,0.0,0.0,0.0,0.0,0.0,-1.9697,-1.9798,-1.956,-1.8945,-1.848,-1.7987,-1.7409,-1.732,-1.7394,-1.7585,-1.8631,-1.9525,0.0,0.0,0.0,0.0,0.0,0.0,0.0,0.0,0.0,0.0,0.0,0.0,0.0,0.0,0.0,0.0,0.0,0.0,0.0,0.0,0.0,0.0,0.0,0.0,0.0,0.0,0.0,0.0,0.0,0.0,0.0,0.0,-1.0115,-1.1598,0.0,0.0,0.0,0.0,0.0,0.0,0.0,0.0,0.0,0.0,0.0,0.0,0.0,-2.2214,-2.2921,-2.2863,-2.2863,-2.2921,-2.2775,-2.2731,-2.2805,-2.2717,-2.2731,-2.279,-2.2586,0.0,-1.9441,-1.9913,0.0,0.0,0.0,0.0,0.0,0.0,0.0,0.0,0.0,0.0,0.0,0.0,0.0,0.0,0.0,0.0,0.0,0.0,0.0,0.0,0.0,0.0,-2.3354,-2.2884,-2.2774,-2.3,-2.3849,-2.371,-2.3351,-2.3238,-2.2694,-2.2036,0.0,0.0,0.0,0.0,0.0,0.0,-1.9798,-1.9798,-1.9422,-1.8417,-1.8242,-1.7949,-1.7356,-1.7323,-1.7706,-1.8612,-1.938,-2.0291,-2.1411,-2.1645,0.0,0.0,0.0,0.0,0.0,0.0,0.0,0.0,0.0,0.0,0.0,0.0,0.0,0.0,0.0,0.0,0.0,0.0,0.0,0.0,0.0,0.0,0.0,0.0,0.0,0.0,0.0,0.0,0.0,-1.101,-1.2379,-1.3469,-1.4773,-1.5827,0.0,0.0,0.0,0.0,0.0,0.0,0.0,0.0,0.0,-2.3764,-2.4027,-2.439,-2.4986,-2.4986,-2.4986,-2.4986,-2.4986,-2.4986,-2.4986,-2.4986,-2.4868,-2.4696,-2.4696,-2.3753,-2.2195,-2.1811,-2.1935,-2.2283,0.0,0.0,0.0,0.0,-2.297,-2.3345,-2.3955,-2.4367,-2.4581,-2.4239,0.0,0.0,0.0,0.0,0.0,0.0,0.0,-2.4729,-2.5153,-2.5183,-2.5063,-2.5183,-2.5198,-2.5303,-2.5843,-2.5831,-2.5367,-2.4339,-2.3832,-2.3307,-2.2451,0.0,0.0,0.0,0.0,-1.9798,-1.9798,-1.9798,-1.9397,-1.8317,-1.8204,-1.7956,-1.7334,-1.7585,-1.8066,-1.8855,-1.9797,-2.0759,-2.1665,-2.2328,-2.3078,0.0,0.0,0.0,0.0,0.0,0.0,0.0,0.0,0.0,0.0,0.0,0.0,0.0,0.0,0.0,0.0,0.0,0.0,0.0,0.0,0.0,0.0,0.0,0.0,0.0,0.0,0.0,0.0,-1.2705,-1.4082,-1.488,-1.6353,-1.7551,0.0,0.0,0.0,0.0,0.0,0.0,-2.3447,-2.421,-2.4883,-2.5466,-2.5816,-2.6309,-2.687,-2.687,-2.687,-2.687,-2.687,-2.6843,-2.6785,-2.6785,-2.6614,-2.6354,-2.6354,-2.5818,-2.4898,-2.3694,-2.3363,-2.3582,-2.2721,-2.3077,-2.4024,-2.3545,-2.3779,-2.4399,-2.4969,-2.5491,-2.5819,-2.556,-2.5775,-2.6035,-2.5136,0.0,0.0,0.0,0.0,-2.6068,-2.6844,-2.6614,-2.627,-2.6605,-2.67,-2.6748,-2.6924,-2.7054,-2.6781,-2.5487,-2.5015,-2.4493,-2.3385,0.0,0.0,0.0,0.0,-1.9798,-1.9798,-1.9798,-1.9447,-1.8505,-1.8417,-1.8219,-1.7754,-1.8099,-1.8548,-1.9058,-2.0279,-2.1186,-2.168,-2.2977,-2.3958,-2.4576,0.0,0.0,0.0,0.0,0.0,0.0,0.0,0.0,0.0,0.0,0.0,0.0,0.0,0.0,0.0,0.0,0.0,0.0,0.0,0.0,0.0,0.0,0.0,0.0,0.0,0.0,0.0,0.0,0.0,-1.5157,-1.6581,0.0,0.0,0.0,0.0,-2.4398,-2.4623,-2.5114,-2.605,-2.6392,-2.6775,-2.7243,-2.754,-2.7954,-2.8484,-2.8484,-2.8484,-2.8484,-2.8484,-2.8337,-2.8108,-2.8108,-2.7996,-2.7794,-2.7794,-2.7542,-2.7031,-2.5644,-2.4713,-2.4184,-2.422,-2.4623,-2.5147,-2.5237,-2.5628,-2.6154,-2.6809,-2.7089,-2.72,-2.7894,-2.8172,-2.8243,-2.8168,-2.7732,0.0,0.0,-2.7221,-2.7045,-2.6397,-2.6222,-2.607,-2.5438,-2.5294,-2.5486,-2.6094,-2.6691,-2.712,0.0,-2.6693,-2.5874,-2.4785,0.0,-2.2102,-2.0967,-2.0245,-1.9798,-1.9798,-1.9798,-1.9597,-1.8995,-1.8933,-1.8922,-1.8808,-1.8838,-1.9077,-1.9647,-2.0917,-2.1665,-2.1695,-2.3396,-2.4585,-2.5144,-2.5689,0.0,0.0,0.0,0.0,0.0,0.0,0.0,0.0,0.0,0.0,0.0,0.0,0.0,0.0,0.0,0.0,0.0,0.0,0.0,0.0,0.0,0.0,0.0,0.0,0.0,0.0,0.0,0.0,-1.7379,-1.8581,0.0,-2.1062,-2.2377,-2.3687,-2.494,-2.6005,-2.6807,-2.7247,-2.801,-2.8452,-2.8494,-2.8913,-2.9225,-2.9353,-2.9383,-2.9362,-2.9362,-2.9326,-2.9267,-2.9167,-2.9167,-2.8913,-2.8481,-2.8481,-2.8183,-2.7648,-2.7155,-2.6553,-2.586,-2.5171,-2.5544,-2.6445,-2.605,-2.6313,-2.6908,-2.7105,-2.7435,-2.781,-2.8111,-2.793,-2.7636,-2.7636,-2.7752,-2.7905,-2.8097,-2.8068,-2.7992,-2.7998,-2.7637,-2.7209,-2.7,-2.6738,-2.6624,-2.6877,-2.6874,-2.6892,-2.7042,-2.6608,-2.6001,-2.5274,-2.3726,-2.2342,-2.1512,-2.0832,-2.0295,-1.985,-1.9798,-1.9597,-1.9083,-1.8983,-1.9162,-1.9524,-1.9527,-1.9752,-2.0303,-2.1201,-2.1695,-2.1695,-2.3351,-2.4567,-2.5166,-2.6016,-2.6539,0.0,0.0,0.0,0.0,0.0,0.0,0.0,0.0,0.0,0.0,0.0,0.0,0.0,0.0,0.0,0.0,0.0,0.0,0.0,0.0,0.0,0.0,0.0,0.0,0.0,-1.7366,-1.8221,-1.8955,-2.0051,-2.1183,-2.2372,-2.3723,-2.5001,-2.6128,-2.7345,-2.8152,-2.8461,-2.9241,-2.9617,-2.9493,-2.9882,-3.0069,-3.0005,-3.0001,-3.0015,-3.0044,-2.9992,-2.9917,-2.987,-2.987,-2.9584,-2.9101,-2.9012,-2.8693,-2.8201,-2.8112,-2.7744,-2.7128,-2.6059,-2.6286,-2.7126,-2.6416,-2.6607,-2.723,-2.7069,-2.7443,-2.8018,-2.8018,-2.7898,-2.7818,-2.7818,-2.8112,-2.8431,-2.8501,-2.8476,-2.8442,-2.8594,-2.8269,-2.7897,-2.7897,-2.7695,-2.7487,-2.7317,-2.7083,-2.6877,-2.6825,-2.6606,-2.623,-2.5505,-2.4176,-2.298,-2.2137,-2.1307,-2.0646,-2.0194,-1.9952,-1.9673,-1.9334,-1.9483,-1.9764,-2.0185,-2.0394,-2.0669,-2.1004,-2.1665,-2.2024,-2.2024,-2.3638,-2.474,-2.5205,-2.6193,-2.6906,-2.7303,0.0,0.0,0.0,0.0,0.0,0.0,0.0,0.0,0.0,0.0,0.0,0.0,0.0,0.0,0.0,0.0,0.0,0.0,0.0,0.0,0.0,0.0,0.0,-1.7566,-1.8221,-1.8967,-1.9608,-2.0846,-2.2298,-2.4025,-2.5067,-2.6366,-2.809,-2.8673,-2.9205,-2.9795,-3.0147,-3.0292,-3.0217,-3.0404,-3.047,-3.041,-3.039,-3.0445,-3.0501,-3.0498,-3.04,-3.021,-3.0198,-3.0041,-2.9695,-2.9513,-2.9193,-2.8815,-2.8535,-2.8237,-2.7833,-2.6882,-2.6852,-2.7224,-2.6368,-2.6556,-2.7241,-2.6841,-2.7182,-2.7755,-2.7755,-2.8298,-2.8943,-2.8943,-2.8943,-2.8846,-2.8473,-2.838,-2.8303,-2.8006,-2.7926,-2.7926,-2.7926,-2.7926,-2.7794,-2.7409,-2.7303,-2.7178,-2.6791,-2.6811,-2.6562,-2.5581,-2.4876,-2.4104,-2.2872,-2.1657,0.0,-2.0795,-2.0245,-1.985,-1.985,-2.0396,-2.0815,-2.0845,-2.1377,-2.1742,-2.1729,-2.2338,-2.2739,-2.2709,-2.4327,-2.5221,-2.5259,-2.6229,-2.6906,-2.7334,0.0,0.0,0.0,0.0,0.0,0.0,0.0,0.0,0.0,0.0,0.0,0.0,0.0,0.0,0.0,0.0,0.0,0.0,0.0,0.0,0.0,-1.6904,-1.7476,-1.7556,-1.8221,-1.898,-1.967,-2.1233,-2.2732,-2.385,-2.5765,-2.7457,-2.8743,-2.9502,-3.0038,-3.028,-3.0579,-3.0658,-3.0511,-3.0593,-3.0614,-3.0547,-3.0495,-3.0487,-3.0497,-3.0449,-3.042,-3.0419,-3.0372,-3.024,-3.0054,-2.9905,-2.9693,-2.9457,-2.9214,-2.8911,-2.8438,-2.7472,-2.7361,-2.7678,-2.7144,-2.7098,-2.7241,-2.6841,-2.6826,-2.6996,-2.6996,-2.7148,-2.7317,-2.7317,-2.7317,-2.7369,-2.7558,-2.7814,-2.8076,-2.8237,-2.8464,-2.87,-2.87,-2.8281,-2.7869,-2.7754,-2.7272,-2.6841,-2.6725,-2.6741,-2.6438,-2.5431,-2.4776,-2.4031,-2.2844,-2.242,0.0,-2.0944,-2.0646,-2.056,-2.056,-2.0696,-2.1156,-2.2073,-2.2345,-2.2411,-2.2443,-2.2996,-2.3326,-2.3216,-2.4492,-2.5561,-2.628,-2.6839,-2.7317,0.0,0.0,0.0,0.0,0.0,0.0,0.0,0.0,0.0,0.0,0.0,0.0,0.0,0.0,0.0,0.0,0.0,0.0,0.0,0.0,0.0,0.0,-1.7319,-1.7688,-1.8015,-1.8715,-1.9411,-2.0144,-2.1566,-2.2979,-2.4155,-2.61,-2.7763,-2.8996,-2.9718,-3.0208,-3.049,-3.0696,-3.0758,-3.0606,-3.0668,-3.0665,-3.0599,-3.0562,-3.0567,-3.0586,-3.0534,-3.0526,-3.0548,-3.0507,-3.0405,-3.0271,-3.0084,-2.9939,-2.9796,-2.9513,-2.9254,0.0,0.0,0.0,0.0,0.0,-2.766,-2.75,-2.7286,-2.721,-2.7178,-2.7004,-2.6971,-2.6939,-2.6758,-2.6808,-2.6987,-2.7224,-2.7707,-2.8129,-2.8183,-2.8464,-2.8725,-2.8558,-2.8201,-2.7869,-2.7695,-2.7272,-2.6906,-2.6725,-2.6556,0.0,-2.5335,-2.495,-2.4374,-2.3216,-2.2875,-2.242,-2.1704,-2.1355,-2.1161,-2.1161,-2.1403,-2.1894,-2.2649,-2.292,0.0,0.0,0.0,-2.3781,-2.4131,-2.5034,0.0,0.0,0.0,0.0,0.0,0.0,0.0,0.0,-3.1968,-3.2477,0.0,0.0,0.0,0.0,0.0,0.0,0.0,0.0,0.0,0.0,0.0,0.0,0.0,0.0,0.0,0.0,-1.7407,-1.7841,-1.8608,-1.9254,-1.994,-2.0597,-2.1769,-2.3081,-2.4453,-2.6135,-2.7662,-2.8894,-2.9489,-2.9978,-3.0403,-3.054,0.0,0.0,0.0,-3.0621,-3.0578,-3.0577,-3.0606,-3.0664,-3.0664,-3.0646,-3.0586,-3.054,-3.0477,-3.0362,-3.0095,-2.9969,-2.9939,-2.957,-2.9392,-2.931,-2.8694,-2.8446,-2.8394,-2.8394,-2.821,-2.7954,-2.7926,0.0,0.0,-2.7426,-2.7272,-2.7178,-2.6808,-2.6971,-2.7241,-2.7241,-2.7747,-2.8192,-2.7908,-2.8102,-2.8264,-2.7982,-2.7869,-2.7736,-2.7396,-2.7255,-2.7115,-2.6708,-2.6297,-2.5815,-2.5221,-2.5105,-2.4792,-2.3752,-2.3143,-2.2785,-2.2694,-2.2193,-2.1805,-2.1805,0.0,0.0,-2.2785,-2.3275,-2.3595,-2.3595,-2.3709,-2.4184,-2.5182,-2.5762,-2.6262,-2.6691,-2.6691,-2.7476,-2.9089,-2.9917,-3.1103,-3.2596,-3.1953,-3.2335,0.0,0.0,0.0,0.0,0.0,0.0,0.0,0.0,0.0,0.0,0.0,0.0,0.0,0.0,0.0,-1.8348,-1.7947,-1.7841,-1.8608,-1.8821,-1.9202,-1.9901,-2.1472,-2.2732,-2.3383,-2.5782,-2.7593,-2.8173,-2.9195,-2.984,-2.9942,-3.0018,-3.0155,-3.0346,-3.032,-3.036,-3.0525,-3.0464,-3.045,-3.045,-3.045,0.0,-3.0508,-3.0242,-3.016,-3.0213,-2.9905,-2.9765,-2.9748,-2.9494,-2.9267,-2.9067,-2.891,-2.8682,-2.8394,-2.8394,-2.8368,-2.8246,-2.7992,-2.7678,-2.7409,-2.7334,-2.7083,-2.6808,-2.6725,-2.6758,0.0,-2.6825,-2.7129,-2.75,-2.7439,-2.7707,-2.7982,-2.7926,-2.7648,-2.7378,-2.7334,-2.7051,-2.6674,-2.621,-2.6068,-2.5689,-2.4712,-2.4552,-2.4348,-2.3681,-2.3508,-2.3246,-2.274,-2.2603,-2.2498,-2.2498,-2.2603,-2.2875,-2.3377,-2.3551,-2.3595,-2.3595,-2.443,-2.4973,-2.5182,-2.6087,-2.6624,-2.6691,-2.6691,-2.7476,-2.9089,-2.9917,-3.1103,-3.2614,-3.3109,-3.3746,0.0,0.0,0.0,0.0,0.0,0.0,0.0,0.0,0.0,0.0,0.0,-1.9784,-1.946,0.0,-1.8821,-1.9202,-1.8608,-1.8394,-1.915,-1.9034,-1.9089,-1.9722,-2.0913,-2.2009,-2.3003,-2.4903,-2.6626,-2.7911,-2.8625,-2.9213,-2.9723,-2.966,-2.9739,-3.0043,-3.0037,-3.0166,-3.0393,-3.0225,-3.0227,-3.0344,-3.0208,-3.0143,-3.0144,-2.9979,-2.9912,-2.9945,-2.9786,-2.9696,-2.9678,-2.9279,-2.8952,-2.8682,-2.8682,-2.8682,-2.8682,-2.8682,-2.8682,-2.8658,-2.8264,-2.8002,-2.7805,-2.7409,-2.7178,-2.6954,-2.6758,-2.6841,-2.6971,-2.6758,-2.7147,-2.75,-2.7115,-2.7303,-2.753,-2.7365,-2.7147,-2.6922,-2.6707,-2.6488,-2.621,-2.5689,-2.5373,-2.5012,-2.4511,-2.4199,-2.3921,-2.3638,-2.3595,-2.3508,-2.3201,-2.3143,-2.3143,-2.3143,-2.2875,-2.292,-2.3551,-2.3595,-2.3595,-2.3595,-2.4348,-2.4934,-2.5182,-2.5944,-2.647,-2.6691,-2.6691,-2.7698,-2.9722,-3.0112,-3.1301,-3.322,-3.3605,-3.4111,0.0,0.0,0.0,0.0,0.0,0.0,0.0,-1.9052,-1.9369,-1.9369,-1.9712,-1.9952,-1.9798,-1.9307,-1.9097,-1.9695,-1.9044,-1.8732,-1.9391,-1.8855,-1.8607,-1.9231,-2.001,-2.0955,-2.2207,-2.3643,-2.5236,-2.7098,-2.7692,-2.8379,-2.9303,-2.9147,-2.92,-2.9603,-2.9588,-2.9731,-3.0054,-2.9782,-2.9795,-3.0056,-2.9849,-2.972,-2.9663,-2.9623,-2.9531,-2.942,-2.9362,-2.9343,-2.9303,-2.8838,-2.8517,-2.8298,-2.8298,-2.8489,-2.8791,-2.8863,-2.8839,-2.8743,-2.8412,-2.8246,-2.8084,-2.7482,-2.7241,-2.7115,-2.6808,-2.6939,-2.7115,-2.6791,-2.7178,-2.75,-2.6873,-2.6939,-2.7083,-2.6674,-2.6539,-2.6436,-2.5961,-2.5852,-2.5689,-2.5144,-2.4712,-2.4348,-2.4266,-2.3779,-2.3421,-2.3421,-2.3421,-2.3377,-2.326,-2.3319,-2.3377,-2.3216,-2.292,-2.2875,-2.3377,-2.3421,-2.3465,-2.3595,-2.4116,-2.4632,-2.5182,-2.5726,-2.6227,-2.6691,-2.6691,-2.7786,-2.9955,-3.0206,-3.1379,-3.3488,-3.3707,-3.4111,-1.9798,-1.9798,-1.9786,-1.9736,-1.971,-1.9851,0.0,-2.0565,-2.0604,-2.0604,-2.0657,-2.0497,-1.9901,-1.9747,-1.9695,-1.9798,-1.8608,-1.7855,-1.8262,-1.7138,-1.6591,-1.7494,-1.8576,-1.9349,-1.9535,-2.1876,-2.3681,-2.4405,-2.6173,-2.749,-2.8066,-2.8066,-2.8314,-2.8879,-2.8554,-2.8645,-2.9232,-2.8913,-2.891,-2.9229,-2.9191,-2.9191,-2.917,-2.8975,-2.8709,-2.8372,-2.8174,-2.8094,-2.8112,-2.8029,-2.7992,-2.7954,-2.7954,-2.7982,-2.8065,-2.8342,-2.8264,-2.801,-2.7982,-2.7736,-2.7409,-2.7317,-2.7051,-2.6758,-2.6725,-2.6725,-2.6758,-2.6725,-2.6741,-2.6808,-2.6725,-2.6725,-2.6641,-2.6191,-2.6085,-2.5924,-2.5411,-2.5297,-2.5144,-2.4576,-2.443,-2.4225,-2.3752,-2.3187,-2.2785,-2.2785,-2.2785,-2.2589,-2.1993,-2.2438,-2.2589,-2.1993,-2.2392,-2.274,-2.2785,-2.2785,-2.3009,-2.3551,-2.4116,-2.4632,-2.5182,-2.5726,-2.6227,-2.6691,-2.6691,-2.7349,-2.8697,-2.9788,-3.1011,-3.2317,-3.3323,-3.4111,-1.9799,-1.9798,-1.9798,-1.9798,-1.9798,-1.985,-2.0144,-2.0194,-2.0194,-2.0194,-2.0194,-2.0156,-1.985,-1.9423,-1.915,-1.915,-1.8274,-1.7574,-1.7456,-1.6658,-1.5972,-1.5717,-1.5967,-1.6977,-1.8897,-2.0444,-2.1719,-2.2859,-2.3837,-2.5094,-2.6755,-2.6368,-2.6615,-2.7761,-2.735,-2.7434,-2.8112,-2.787,-2.8011,-2.8557,-2.8464,-2.8402,-2.8402,-2.8304,-2.8192,-2.8013,-2.7601,-2.749,-2.753,-2.7217,-2.7265,-2.753,-2.753,-2.753,-2.7589,-2.7964,-2.802,-2.7869,-2.7619,-2.7439,-2.7272,-2.7036,-2.6858,-2.6691,-2.6691,-2.6691,-2.6691,-2.6691,-2.6505,-2.6297,-2.6297,-2.6052,-2.5783,-2.5577,-2.5524,-2.5373,-2.4855,-2.4736,-2.4592,-2.4032,-2.3651,-2.3333,-2.3098,-2.2529,-2.2021,-2.1657,-2.1866,-2.1993,-2.1758,-2.1946,-2.1866,-2.1245,-2.2067,-2.2543,-2.2146,-2.2815,-2.3334,-2.3595,-2.3794,-2.4307,-2.5182,-2.5411,-2.5908,-2.6691,-2.6691,-2.752,-2.9121,-2.9916,-3.116,-3.2773,-3.346,-3.4012,-1.9799,-1.9798,-1.9798,-1.9798,-1.9798,-1.985,-2.0055,-1.9952,-1.985,-2.0055,-1.9952,-1.9798,-1.9798,-1.9202,-1.865,-1.8412,-1.7588,-1.672,-1.5999,-1.5363,-1.4707,-1.3941,-1.3691,-1.4641,-1.7278,-1.8305,-1.9498,-2.1123,-2.1704,-2.2896,-2.4993,-2.4636,-2.5015,-2.6435,-2.5965,-2.6118,-2.6944,-2.6696,-2.6888,-2.754,-2.739,-2.7322,-2.7339,-2.7217,-2.7155,-2.7137,-2.6751,-2.6638,-2.669,-2.6302,-2.637,-2.6723,-2.6723,-2.6723,-2.6756,-2.706,-2.7326,-2.7547,-2.7241,-2.7147,-2.7083,-2.6774,-2.6691,-2.6691,-2.6691,-2.6624,-2.6505,-2.6505,-2.6139,-2.5762,-2.5762,-2.5486,-2.5182,-2.5012,-2.4973,-2.4776,-2.4085,-2.4059,-2.3975,-2.3201,-2.286,-2.2649,-2.2452,-2.1866,-2.1293,-2.0845,-2.1015,-2.1183,-2.1183,-2.1183,-2.1099,-2.0845,-2.1452,-2.1866,-2.1697,-2.2546,-2.3216,-2.3595,-2.3595,-2.4074,-2.5144,-2.5413,-2.5966,-2.6962,-2.7215,-2.8049,-2.9455,-3.0223,-3.1319,-3.2721,-3.3441,-3.3902,-1.9798,-1.9798,-1.9798,-1.9798,-1.9798,-1.9952,-2.0597,-2.0258,-2.0003,-2.066,-2.0245,-1.9798,-1.9798,-1.9202,-1.8412,-1.7684,-1.629,-1.483,-1.3332,-1.2477,-1.2066,-1.2244,-1.2243,-1.2638,-1.358,-1.5105,-1.6836,-1.8768,-2.012,-2.137,-2.2541,-2.3088,-2.379,-2.4852,-2.4461,-2.4782,-2.5851,-2.5459,-2.5459,-2.587,-2.5886,-2.5851,-2.5851,-2.5459,-2.5281,-2.5281,-2.5281,-2.5243,-2.5243,-2.5259,-2.5259,-2.5243,-2.5243,-2.5243,-2.5243,-2.5281,-2.5892,-2.6725,-2.6725,-2.6725,-2.6725,-2.6691,-2.6691,-2.6691,-2.6691,-2.6367,-2.6013,-2.6013,-2.5652,-2.5221,-2.5221,-2.5221,-2.5067,-2.4552,-2.443,-2.4142,-2.2995,-2.3187,-2.326,-2.1979,-2.2253,-2.2498,-2.1852,-2.121,-2.0795,-2.0795,-2.0245,-1.985,-1.985,-1.985,-2.0105,-2.0746,-2.0245,-2.037,-2.1602,-2.1744,-2.2271,-2.3508,-2.3595,-2.4074,-2.5144,-2.5894,-2.6733,-2.7755,-2.8518,-2.8977,-2.9011,-3.0604,-3.1395,-3.1497,-3.3084,-3.3788,-1.9812,-1.9813,-1.9798,-1.9798,-1.9798,-1.985,-2.0105,-1.9952,-1.985,-2.0105,-1.9567,-1.9097,-1.9097,-1.807,-1.7002,-1.6198,-1.5078,-1.3928,-1.2749,-1.168,-1.0849,-1.0409,-0.9987,-0.9887,-1.0254,-1.2724,-1.4953,-1.6571,-1.7554,-1.8976,-2.0981,-2.1437,-2.2163,-2.3266,-2.2805,-2.2893,-2.3606,-2.3119,-2.331,-2.4151,-2.4151,-2.4151,-2.4151,-2.3994,-2.3928,-2.3943,-2.3541,-2.3865,-2.4467,-2.3724,-2.4143,-2.5166,-2.4697,-2.4792,-2.5221,-2.5221,-2.5411,-2.5709,-2.5709,-2.5709,-2.5709,-2.5709,-2.5709,-2.5709,-2.5709,-2.5598,-2.5449,-2.5449,-2.5089,-2.4672,-2.4672,-2.4112,-2.3492,-2.3333,-2.2936,-2.2517,-2.2132,-2.2179,-2.2225,-2.1791,-2.1534,-2.1369,-2.1113,-2.0584,-2.0156,-2.0156,-1.9952,-1.9798,-1.9798,-1.9798,-1.9901,-2.0105,-2.0346,-2.0769,-2.1649,-2.21,-2.2913,-2.4164,-2.4283,-2.4802,-2.5951,-2.6608,-2.7267,-2.798,-2.8639,-2.9228,-2.9736,-3.0543,-3.12,-3.1673,-3.287,-3.339,-1.8634,-1.8619,-1.8627,-1.8958,-1.897,-1.9007,-1.9421,-1.9522,-1.947,-1.9438,-1.9044,-1.8543,-1.797,-1.6869,-1.5611,-1.4178,-1.3194,-1.2158,-1.0854,-0.9985,-0.9277,-0.8765,-0.8364,-0.8236,-0.8448,-1.0303,-1.2444,-1.4578,-1.5485,-1.6888,-1.8993,-1.9436,-2.0122,-2.1063,-2.0758,-2.0965,-2.1839,-2.1236,-2.1391,-2.2347,-2.2614,-2.2731,-2.2731,-2.2731,-2.2731,-2.2731,-2.2372,-2.2642,-2.3256,-2.2521,-2.2878,-2.391,-2.3486,-2.3571,-2.3952,-2.3952,-2.4107,-2.4384,-2.4973,-2.5221,-2.5221,-2.5221,-2.5221,-2.5221,-2.5221,-2.5067,-2.4855,-2.4665,-2.4194,-2.3749,-2.3505,-2.2892,-2.2346,-2.2346,-2.1993,-2.1663,-2.1424,-2.1568,-2.1554,-2.1135,-2.0917,-2.0696,-2.0497,-2.0105,-1.9874,-2.0075,-2.0112,-2.0112,-2.0112,-1.9924,-1.9874,-2.0087,-2.0515,-2.1011,-2.1605,-2.2518,-2.3464,-2.4511,-2.4834,-2.5379,-2.6361,-2.7237,-2.7971,-2.8474,-2.9336,-3.0006,-3.0497,-3.0917,-3.134,-3.1808,-3.2777,-3.3214,-1.6332,-1.6333,-1.6519,-1.7279,-1.7376,-1.752,-1.8648,-1.8921,-1.8858,-1.8672,-1.8608,-1.8143,-1.6602,-1.5753,-1.444,-1.2034,-1.0981,-0.9806,-0.7856,-0.7509,-0.7447,0.0,-0.7394,-0.754,-0.7812,-0.7897,-0.9325,-1.2734,-1.397,-1.5139,-1.6598,-1.7201,-1.7807,-1.8478,-1.8531,-1.9147,-2.0414,-1.9762,-1.975,-2.0411,-2.1151,-2.1493,-2.1493,-2.1554,-2.1554,-2.1493,-2.1554,-2.1602,-2.1602,-2.1602,-2.1649,-2.1697,-2.1663,-2.1649,-2.1697,-2.1697,-2.21,-2.2905,-2.4465,-2.5051,-2.5051,-2.5051,-2.5051,-2.4996,-2.4996,-2.4657,-2.4127,-2.3576,-2.3054,-2.2498,-2.1852,-2.1663,-2.1649,-2.1649,-2.1649,-2.1472,-2.0881,-2.121,-2.1232,-2.0042,-2.0295,-2.056,-1.9939,-1.9849,-2.0037,-2.0668,-2.0756,-2.0756,-2.0756,-2.0225,-2.01,-2.0706,-2.0756,-2.1011,-2.1602,-2.2848,-2.3858,-2.4525,-2.525,-2.5893,-2.644,-2.7727,-2.8682,-2.9214,-3.047,-3.119,-3.119,-3.1565,-3.1789,-3.1789,-3.2695,-3.3154,-1.3821,-1.4662,-1.5581,-1.5775,-1.623,-1.6777,-1.7387,-1.7491,-1.7578,-1.7858,-1.7468,-1.6789,-1.5763,-1.4983,-1.387,-1.2035,-1.0847,-0.9846,-0.8954,-0.7477,0.0,-0.6888,0.0,-0.5967,-0.6075,-0.6658,-0.7896,-1.0047,-1.1548,-1.3118,-1.4706,-1.6023,-1.677,-1.6971,-1.7566,-1.8024,-1.8377,-1.8163,-1.7977,-1.7763,-1.8348,-1.8655,-1.8643,-1.9193,-1.9193,-1.8708,-1.9787,-2.0257,-2.0205,-2.0257,-2.0841,-2.1663,-2.121,-2.1293,-2.1697,-2.1697,-2.1805,-2.2039,-2.2443,-2.2922,-2.3318,-2.3318,-2.301,-2.261,-2.261,-2.2489,-2.2381,-2.2197,-2.2072,-2.1899,-2.1744,-2.139,-2.1028,-2.1028,-2.0633,-2.0232,-2.0093,-2.0194,-2.0181,-1.985,-1.9952,-2.0143,-2.0416,-2.0451,-2.0639,-2.1192,-2.128,-2.128,-2.128,-2.1154,-2.1117,-2.1267,-2.128,-2.153,-2.2153,-2.3092,-2.4091,-2.5193,-2.5914,-2.6654,-2.7282,-2.8045,-2.8728,-2.9355,-3.011,-3.074,-3.119,-3.1291,-3.1351,-3.1389,-3.1897,-3.2161,-1.2898,-1.355,-1.433,-1.4855,-1.5252,-1.5736,-1.6479,-1.6811,-1.6868,-1.6661,-1.626,-1.5505,-1.4013,-1.3451,-1.2488,-1.0431,-0.9543,-0.8748,-0.7752,-0.6578,-0.591,0.0,-0.5701,0.0,-0.5376,-0.5826,-0.6523,-0.745,-0.9781,-1.1851,-1.3545,-1.4427,-1.4896,-1.4896,-1.5668,-1.627,-1.6631,-1.7302,-1.728,-1.6689,-1.728,-1.7578,-1.7633,-1.8015,-1.8015,-1.7633,-1.8501,-1.902,-1.9218,-1.8967,-1.9633,-2.0792,-2.0156,-2.0307,-2.0841,-2.0841,-2.1051,-2.1293,-2.1293,-2.1547,-2.1894,-2.2161,-2.1993,-2.1697,-2.1697,-2.1697,-2.1649,-2.139,-2.1293,-2.1245,-2.0953,-2.062,-2.0346,-2.0346,-2.0042,-1.9798,-1.9798,-1.9798,-1.9874,-2.0125,-2.0376,-2.0639,-2.0966,-2.1029,-2.1217,-2.1769,-2.1845,-2.1945,-2.2184,-2.1782,-2.1581,-2.1832,-2.1845,-2.2015,-2.2326,-2.3322,-2.4367,-2.5381,-2.617,-2.687,-2.756,-2.8189,-2.8654,-2.9012,-2.9585,-3.0208,-3.0797,-3.0797,-3.0918,-3.119,-3.1603,-3.1789,-1.2865,-1.2865,-1.3154,-1.4222,-1.4355,-1.4516,-1.5549,-1.6079,-1.6093,-1.5167,-1.4887,-1.4173,-1.1989,-1.1509,-1.0683,-0.8409,-0.7897,-0.7312,-0.5818,-0.5505,-0.5379,-0.5379,-0.5183,-0.5052,-0.5052,-0.5109,-0.5226,-0.5397,-0.8233,-1.0732,-1.2443,-1.2634,-1.2757,-1.3009,-1.3666,-1.4392,-1.505,-1.6451,-1.6845,-1.6197,-1.6968,-1.7302,-1.7302,-1.7413,-1.7413,-1.7302,-1.7523,-1.7907,-1.8394,-1.7852,-1.8328,-1.9423,-1.8821,-1.8927,-1.9527,-1.9527,-1.9876,-2.0383,-2.0383,-2.0434,-2.0633,-2.1328,-2.152,-2.1459,-2.1459,-2.1459,-2.1328,-2.0832,-2.0646,-2.0547,-1.9952,-1.9798,-1.9798,-1.9798,-1.9861,-1.9911,-1.9911,-1.9974,-2.011,-2.0382,-2.0921,-2.1338,-2.14,-2.1412,-2.1656,-2.2334,-2.2422,-2.2585,-2.3015,-2.2297,-2.1895,-2.2372,-2.2422,-2.2422,-2.2422,-2.3541,-2.4624,-2.5342,-2.6068,-2.6826,-2.7575,-2.8091,-2.8415,-2.8511,-2.8996,-2.9585,-3.0166,-3.0251,-3.0559,-3.1095,-3.1528,-3.1733,-1.2553,-1.2571,-1.2949,-1.3162,-1.3432,-1.3594,-1.3525,-1.382,-1.4004,-1.3511,-1.2813,-1.1989,-1.092,-1.0153,-0.9261,-0.821,-0.7372,-0.685,-0.6527,-0.5826,-0.5379,0.0,-0.4092,-0.3149,-0.3149,-0.3616,0.0,-0.5328,-0.6637,-0.8135,-0.9831,-1.0564,-1.1556,-1.2948,-1.313,-1.3312,-1.3425,-1.4314,-1.4728,-1.4619,-1.5381,-1.5796,-1.5806,-1.6425,-1.6368,-1.5853,-1.7079,0.0,-1.6922,-1.7413,-1.7743,-1.795,-1.7841,-1.7841,-1.795,-1.795,-1.8058,-1.8167,-1.8167,-1.8543,-1.9282,-2.0521,-2.0584,-2.0131,-2.0131,-2.0131,-2.008,-1.9991,-1.9952,-1.9952,-1.985,-1.9798,-1.9798,-1.9798,-2.0162,-2.0514,-2.0514,-2.0878,-2.0804,-1.9483,-1.9866,-2.0543,-2.1032,-2.1116,-2.1487,-2.278,-2.2927,-2.2965,-2.3065,-2.2915,-2.2887,-2.2975,-2.2927,-2.2927,-2.2927,-2.3774,-2.4624,-2.5342,-2.6068,-2.6826,-2.7575,-2.771,-2.7993,-2.8511,-2.8606,-2.8966,-2.954,-3.0081,-3.0335,-3.0477,-3.1038,-3.1291,-1.1534,-1.1608,-1.1846,-1.2001,-1.2393,-1.2672,-1.2634,-1.2963,-1.3093,-1.2472,-1.1673,-1.085,-1.0002,-0.9384,-0.8689,-0.7666,-0.7428,-0.7074,-0.615,-0.5635,-0.5426,-0.5368,-0.2982,-0.1276,-0.1276,-0.3291,-0.477,-0.5362,-0.5756,-0.6798,-0.8549,-0.8982,-1.0173,-1.232,-1.1943,-1.212,-1.3009,-1.3364,-1.3795,-1.4213,-1.4154,-1.4569,-1.541,-1.5323,-1.5332,-1.5468,-1.613,-1.6472,-1.6492,-1.6472,-1.6912,-1.7578,-1.7202,-1.7246,-1.7578,-1.7578,-1.7578,-1.7578,-1.7578,-1.7841,-1.8221,-1.8903,-1.9451,-1.9798,-1.9798,-1.9527,-1.9202,-1.9202,-1.8939,-1.8661,-1.8661,-1.8661,-1.8732,-1.8951,-1.9412,-1.9733,-1.9733,-2.0204,-2.0334,-1.947,-1.9939,-2.063,-2.1327,-2.1105,-2.1322,-2.2847,-2.2372,-2.2113,-2.3005,-2.275,-2.2641,-2.3078,-2.3078,-2.3078,-2.3078,-2.3424,-2.4002,-2.4794,-2.5175,-2.5837,-2.6982,-2.7034,-2.7342,-2.7993,-2.8042,-2.8319,-2.8919,-2.9225,-2.954,-2.9865,-3.0435,-3.094,-1.0707,-1.0808,-1.0951,-1.1239,-1.1576,-1.1937,-1.2091,-1.2318,-1.2258,-1.1454,-1.0431,-0.9539,-0.8952,-0.8398,-0.7625,-0.6362,-0.6585,-0.6388,-0.5029,-0.518,-0.5368,-0.5414,-0.2203,0.0,0.0,-0.2896,-0.4791,-0.4849,-0.5176,-0.609,-0.7637,-0.7892,-0.8982,-1.1212,-1.0627,-1.094,-1.2458,-1.2642,-1.3061,-1.3657,-1.3243,-1.3666,-1.4864,-1.4392,-1.4569,-1.5167,-1.5352,-1.5748,-1.6208,-1.5642,-1.6073,-1.7079,-1.6482,-1.6641,-1.7135,-1.7135,-1.7135,-1.7135,-1.7135,-1.7246,-1.7357,-1.7357,-1.8286,-1.9307,-1.9307,-1.8927,-1.8436,-1.8436,-1.8058,-1.76,-1.7701,-1.7734,-1.7891,-1.8483,-1.8859,-1.9039,-1.9028,-1.947,-1.9798,-1.9432,-1.9865,-2.0526,-2.1239,-2.0782,-2.0846,-2.231,-2.1416,-2.1164,-2.2628,-2.2322,-2.2199,-2.3005,-2.3078,-2.3078,-2.3078,-2.3078,-2.3424,-2.4234,-2.4292,-2.4908,-2.6229,-2.6404,-2.6774,-2.7357,-2.7524,-2.781,-2.8334,-2.857,-2.8951,-2.9448,-3.0194,-3.092,-1.0803,-1.0958,-1.1272,-1.1305,-1.1576,-1.1769,-1.1322,-1.0963,-1.0494,-0.9709,-0.8215,-0.7116,-0.7292,-0.644,-0.5166,-0.3413,0.0,-0.3109,-0.299,-0.4341,-0.5411,-0.5424,0.0,0.0,0.0,-0.1816,-0.2954,-0.2947,-0.4486,-0.5818,-0.6785,-0.7567,-0.8479,-0.9524,-0.946,-0.9843,-1.0807,-1.1531,-1.1958,-1.2012,-1.2696,-1.307,-1.3252,-1.3906,-1.4273,-1.4323,-1.505,-1.541,0.0,-1.541,-1.5468,-1.5584,-1.5526,-1.5526,-1.5575,-1.5575,-1.5575,-1.5575,-1.5575,-1.6026,-1.6595,-1.6595,-1.7146,-1.7786,-1.7786,-1.7743,-1.7688,-1.7688,-1.7633,-1.7678,-1.8136,-1.8259,-1.8483,-1.9349,-1.9605,-1.9574,-1.9328,-1.9911,-2.0073,-1.8459,-1.8824,-1.9431,-1.9562,-1.9497,-1.9748,-2.0719,-2.0719,-2.091,-2.1877,-2.1951,-2.2199,-2.3005,-2.3078,-2.3078,-2.3078,-2.3078,-2.3424,-2.4234,-2.4292,-2.4681,-2.5453,-2.6122,-2.651,-2.6616,-2.7255,-2.7625,-2.7675,-2.8851,-2.9441,-2.949,-3.0719,-3.1674,-0.9449,-0.9143,-0.896,-0.9601,-0.9545,-0.9222,-0.9264,-0.9093,-0.8913,-0.8613,-0.7657,-0.6959,-0.7109,-0.6191,-0.5192,-0.4445,-0.0669,0.2314,0.2633,0.0987,-0.0776,-0.1972,-0.0856,0.0,0.0,-0.068,-0.1949,-0.4167,-0.497,-0.5564,-0.5881,-0.6272,-0.7055,-0.8484,-0.8549,-0.8941,-0.9786,-1.0667,-1.1351,-1.1834,-1.1655,-1.2027,-1.3009,-1.281,-1.2992,-1.3485,-1.3846,-1.4204,0.0,-1.4688,-1.4932,-1.541,-1.541,-1.541,-1.541,-1.541,-1.541,-1.541,-1.541,-1.5584,-1.5864,-1.5864,-1.6026,-1.6472,-1.7346,-1.7302,-1.6922,-1.6922,-1.6842,-1.6757,-1.6943,-1.7348,-1.7864,-1.8214,-1.8503,-1.8619,-1.8556,-1.8787,-1.8854,-1.8144,-1.8269,-1.8654,-1.9233,-1.8844,-1.8977,-2.0398,-1.9694,-1.9562,-2.091,-2.0655,-2.096,-2.2696,-2.3331,-2.3653,-2.3653,-2.3954,-2.4267,-2.4566,-2.4579,-2.4909,-2.5641,-2.5982,-2.6576,-2.7578,-2.7853,-2.8263,-2.8771,-2.929,-2.9568,-2.9583,-3.0468,-3.125,-0.8258,-0.7817,-0.7436,-0.8198,-0.7933,-0.7558,-0.7911,-0.7832,-0.7637,-0.7717,-0.7152,-0.6581,-0.6589,-0.5937,-0.4724,0.0,0.223,0.5786,0.6126,0.4919,0.3483,0.2029,0.1316,0.0711,0.007,0.0,-0.1276,-0.437,-0.5109,-0.5372,-0.5428,-0.5428,-0.6079,-0.7567,-0.7897,-0.8285,-0.8877,-0.9786,-1.0478,-1.1024,-1.0478,-1.0912,-1.2274,-1.1958,-1.2143,-1.2634,-1.2887,-1.3312,0.0,-1.3855,-1.4213,-1.4688,-1.4688,-1.4815,-1.505,-1.505,-1.5167,-1.541,-1.541,-1.5498,-1.5605,-1.5605,-1.5693,-1.597,-1.6995,-1.6911,-1.6434,-1.6519,-1.6538,-1.6455,-1.6455,-1.7012,-1.7568,-1.7568,-1.7793,-1.8008,-1.8008,-1.8008,-1.8008,-1.8008,-1.8008,-1.8241,-1.8961,-1.8584,-1.8634,-2.0012,-1.9063,-1.8761,-2.0412,-1.9916,-2.0268,-2.2228,-2.3434,-2.4087,-2.4255,-2.4594,-2.482,-2.482,-2.482,-2.5052,-2.5558,-2.5795,-2.6445,-2.7547,-2.8083,-2.8623,-2.9222,-2.9635,-2.9864,-2.9864,-3.0502,-3.1213,-0.7626,-0.7499,-0.7499,-0.7504,-0.7504,-0.7558,-0.7911,-0.7307,-0.6793,-0.7034,-0.618,-0.5386,-0.541,-0.5413,-0.3025,0.411,0.5823,0.6198,0.5833,0.606,0.6235,0.6238,0.4387,0.229,0.0211,0.0,-0.0736,-0.2611,-0.4361,0.0,-0.5428,-0.5428,-0.5818,-0.6654,-0.7567,-0.8027,-0.8027,-0.8877,-0.9338,-0.9338,-0.9338,-0.9786,-1.0624,-1.1469,-1.1834,-1.1834,-1.2634,-1.3009,0.0,-1.3009,-1.3009,-1.3009,-1.3009,-1.3485,-1.4204,-1.4204,-1.4746,-1.541,-1.541,-1.5693,-1.6115,-1.6115,-1.6357,-1.6719,-1.6719,-1.6406,-1.6213,-1.6592,-1.7031,-1.7373,-1.7373,-1.7686,-1.8008,-1.8008,-1.8008,-1.8008,-1.8008,-1.8008,-1.8008,-1.8008,-1.8008,-1.8144,-1.8555,-1.8623,-1.8779,-1.9209,-1.8906,-1.9052,-2.0459,-2.0184,-2.0413,-2.1785,-2.3259,-2.4357,-2.4793,-2.482,-2.482,-2.482,-2.482,-2.482,-2.482,-2.5508,-2.5906,-2.5906,-2.7488,-2.8325,-2.834,-2.9773,-3.0492,-3.0507,-3.1195,-3.1879,-0.6841,-0.6509,-0.6189,-0.6828,-0.6509,-0.6078,-0.6195,-0.602,-0.583,-0.5911,-0.5659,-0.5403,-0.541,-0.134,0.2993,0.6057,0.6332,0.0,0.6475,0.6485,0.6434,0.6291,0.5724,0.3909,0.0343,0.0,-0.0269,-0.0803,-0.3692,-0.5386,-0.5372,-0.5432,-0.5557,-0.5818,-0.6658,-0.7111,-0.7111,-0.7962,-0.8683,-0.9274,-0.9274,-0.9786,-1.0624,-1.0863,-1.0989,-1.0982,-1.1233,-1.1663,-1.2205,-1.2205,-1.2512,-1.3009,-1.3009,-1.3191,-1.3364,-1.3364,-1.3545,-1.3769,-1.3961,-1.4126,-1.4273,-1.4542,-1.5094,-1.5771,-1.6048,-1.6315,-1.6611,-1.7051,-1.7275,-1.7451,-1.7734,-1.791,-1.8008,-1.8008,-1.8008,-1.8008,-1.8008,-1.8008,-1.8008,-1.8008,-1.8242,-1.8486,-1.8613,-1.8887,-1.9131,-1.9268,-1.917,-1.9203,-1.9693,-1.9583,-2.0002,-2.1371,-2.1984,-2.2872,-2.4278,-2.5363,-2.5937,-2.5937,-2.5937,-2.5937,-2.5937,-2.6181,-2.6554,-2.7117,-2.7618,-2.8498,-2.9678,-3.0118,-3.0646,-3.121,-3.1377,-3.164,-0.6079,-0.5818,-0.5498,-0.6083,-0.5826,-0.5376,-0.5376,-0.5379,-0.5386,-0.5389,-0.5403,-0.4587,-0.1811,0.2348,0.5634,0.6466,0.6244,0.6106,0.0,0.6524,0.6478,0.6408,0.5654,0.4037,0.0,0.0477,0.0,0.0,-0.2748,-0.4703,-0.5379,-0.5369,-0.5428,-0.5428,-0.6268,-0.6527,-0.6203,-0.7051,-0.7762,-0.8355,-0.8678,-0.9268,-1.011,-1.0434,-1.0624,-1.0624,-1.0624,-1.0863,0.0,-1.1351,-1.1655,-1.2097,-1.2097,-1.2274,-1.2528,-1.2655,-1.2897,-1.3202,-1.3492,-1.3705,-1.3852,-1.4081,-1.4647,-1.5338,-1.5573,-1.6379,-1.7275,-1.7549,-1.7627,-1.7609,-1.7512,-1.7716,-1.794,-1.7579,-1.7725,-1.8008,-1.8008,-1.8008,-1.8057,-1.8213,-1.8457,-1.8669,-1.9062,-1.9346,-1.958,-1.9746,-1.9629,-1.959,-1.9746,-1.9629,-1.99,-2.0992,-2.1395,-2.2123,-2.3281,-2.4955,-2.6094,-2.6465,-2.6533,-2.6533,-2.6533,-2.6533,-2.6714,-2.7229,-2.7537,-2.8247,-2.9317,-2.995,-3.0584,-3.1029,-3.1351,-3.1482,0.0,-0.5302,-0.5379,-0.5243,-0.5183,-0.5189,-0.5189,-0.5326,0.0,-0.541,-0.4998,-0.2552,0.419,0.5426,0.5477,0.5703,0.5912,0.6103,0.0,0.6396,0.6468,0.6541,0.4631,0.3194,0.2897,0.1109,0.0,0.0,-0.1539,-0.3349,-0.5309,-0.5369,-0.5428,-0.5428,-0.6203,-0.6203,-0.5428,-0.6203,-0.6654,-0.6719,-0.7502,-0.842,-0.9338,-1.0047,-1.0491,0.0,-1.0561,-1.0561,-1.0624,-1.0624,-1.0631,-1.0658,-1.0658,-1.1094,-1.1814,-1.2047,-1.2611,-1.3308,-1.3671,-1.4001,-1.4344,-1.4445,-1.4743,-1.5092,-1.5163,-1.6437,-1.7794,-1.7794,-1.7794,-1.7579,-1.6706,-1.7217,-1.7657,-1.6811,-1.7332,-1.8057,-1.8096,-1.8105,-1.8213,-1.8613,-1.863,-1.8975,-1.9775,-1.9941,-2.0098,-2.0508,-2.0225,-2.0107,-2.0508,-2.0215,-2.0117,-2.0518,-2.1375,-2.1962,-2.2027,-2.3818,-2.53,-2.6314,-2.6383,-2.6452,-2.6533,-2.6533,-2.6533,-2.6533,-2.7284,-2.767,-2.767,-2.938,-3.0208,-3.0208,-3.097,-3.1351,-0.3347,0.0,-0.5049,-0.3687,-0.3349,-0.3351,0.0,-0.4375,-0.541,-0.5413,-0.1005,0.352,0.5707,0.5859,0.5828,0.6293,0.6298,0.6338,0.6556,0.6525,0.6517,0.6577,0.58,0.4106,0.1058,0.0274,0.0,0.0,-0.0402,-0.2009,-0.5252,-0.5379,-0.5369,-0.5428,-0.5624,-0.5624,-0.5428,-0.5624,-0.6009,-0.6719,-0.6915,-0.7827,-0.9274,-0.8807,-0.932,-1.0561,-0.9919,-0.9983,-1.0624,-1.0624,-1.0688,-1.0895,-1.0895,-1.1154,-1.1484,-1.156,-1.1715,-1.1892,-1.2276,-1.2431,-1.2671,-1.3615,-1.3958,-1.4171,-1.495,-1.5517,-1.5869,-1.5869,-1.5869,-1.5807,-1.5587,-1.6219,-1.6936,-1.7035,-1.7765,-1.8584,-1.8916,-1.8984,-1.9014,-1.9121,-1.9394,-1.9678,-1.9883,-2.0195,-2.0449,-2.0547,-2.0478,-2.0449,-2.0557,-2.0478,-2.0449,-2.0557,-2.0789,-2.1231,-2.1952,-2.3147,-2.4264,-2.53,-2.537,-2.5734,-2.6452,-2.6533,-2.6533,-2.6533,-2.7284,-2.767,-2.767,-2.8812,-2.9317,-2.9317,-2.9504,-2.995,-0.269,-0.4009,-0.5157,-0.4183,-0.2669,-0.1437,-0.1437,-0.2239,-0.2421,-0.0804,0.2686,0.5528,0.5956,0.5832,0.5898,0.6357,0.6283,0.0,0.6556,0.6525,0.6503,0.6447,0.6155,0.511,0.0,0.1021,0.0,0.0,0.0,-0.087,-0.2817,-0.4503,-0.5382,-0.5369,-0.5369,-0.5432,-0.5428,-0.5428,-0.562,-0.6141,-0.6527,-0.7177,-0.8091,-0.8027,-0.8544,-0.9396,-0.9456,-0.9776,-1.0244,-1.0771,-1.1049,-1.1189,-1.1189,-1.1289,-1.1443,-1.1577,-1.163,-1.167,-1.1964,-1.2064,-1.2163,-1.2823,-1.3025,-1.3164,-1.373,-1.3875,-1.4091,-1.495,-1.5234,-1.5133,-1.4792,-1.5402,-1.6143,-1.6013,-1.6689,-1.7487,-1.7703,-1.7757,-1.8035,-1.8695,-1.8986,-1.9354,-2.0099,-2.041,-2.0566,-2.0566,-2.0566,-2.0566,-2.0566,-2.0566,-2.0566,-2.0566,-2.0566,-2.0789,-2.1298,-2.1821,-2.2787,-2.4192,-2.4707,-2.5229,-2.5804,-2.6233,-2.6533,-2.6533,-2.6905,-2.7162,-2.7162,-2.7986,-2.8427,-2.8427,-2.8812,-2.9254,-0.1491,-0.2906,-0.4591,-0.4555,-0.224,0.014,0.0698,0.0822,0.0,0.0,0.0,0.0,0.0,0.5748,0.0,0.0,0.0,0.0,0.6437,0.6454,0.6386,0.6244,0.6138,0.0,0.5783,0.2795,0.0604,0.0067,0.0,0.0,0.0,-0.2883,-0.4706,-0.497,-0.5243,-0.5372,-0.5432,-0.5428,-0.5428,-0.5428,-0.6137,-0.6588,-0.6719,-0.7339,-0.7882,-0.8289,-0.9192,0.0,-1.0001,-1.0976,-1.145,-1.149,-1.149,-1.1523,-1.159,-1.1844,-1.1937,-1.1971,-1.2218,-1.2305,-1.2305,-1.2305,-1.2305,-1.2305,-1.2305,-1.2305,-1.2673,-1.4369,-1.4816,-1.4672,-1.4164,-1.471,-1.5351,-1.4794,-1.5397,-1.6097,-1.6154,-1.6162,-1.6646,-1.8148,-1.8374,-1.8793,-2.01,-2.0479,-2.0566,-2.0401,-2.0489,-2.0566,-2.0566,-2.0566,-2.0566,-2.0566,-2.0566,-2.0566,-2.0566,-2.0566,-2.1308,-2.2925,-2.3963,-2.4707,-2.5016,-2.5804,-2.6314,-2.6533,-2.6533,-2.6533,-2.6533,-2.7162,-2.755,-2.755,-2.8233,-2.8739,0.3958,0.2129,-0.086,-0.0823,-0.0414,0.0837,0.3891,0.454,0.4317,0.0,0.0,0.0,0.0,0.607,0.63,0.0,0.0,0.642,0.0,0.0,0.6237,0.6084,0.0,0.5915,0.5783,0.5077,0.3301,0.0202,0.0,0.0,0.0,-0.0536,-0.1539,-0.308,-0.4631,-0.5379,-0.5376,-0.5432,-0.5428,-0.5428,-0.5557,-0.6009,-0.6658,-0.6161,-0.7238,-0.9403,0.0,-0.9691,-1.1152,-1.1341,-1.1577,-1.1804,-1.1804,-1.1951,-1.2171,-1.2218,-1.2238,-1.2238,-1.2285,-1.2305,-1.2305,-1.2305,-1.2305,-1.2305,-1.2305,-1.2305,-1.2425,-1.2975,-1.3195,-1.3134,-1.3037,-1.3913,-1.4809,-1.514,-1.5913,-1.6702,-1.7015,-1.7088,-1.7426,-1.8691,-1.8867,-1.8964,-1.9186,-2.0001,-2.0323,-1.9362,-2.0001,-2.0566,-2.0566,-2.0566,-2.0566,-2.0566,-2.0566,-2.0566,-2.0566,-2.0566,-2.0712,-2.1011,-2.1962,-2.322,-2.4933,-2.5158,-2.5664,-2.6452,-2.6533,-2.6533,-2.6533,-2.6589,-2.6658,-2.6714,-2.685,-2.7475,0.4102,0.3776,0.2907,0.1934,0.2556,0.3507,0.4037,0.4912,0.0,0.0,0.0,0.0,0.0,0.0,0.6183,0.6332,0.0,0.6539,0.638,0.623,0.6078,0.0,0.0,0.5364,0.4256,0.4895,0.3914,0.027,0.0,0.0,0.0,0.0,-0.0403,-0.1205,-0.3013,-0.4428,-0.5379,-0.5432,-0.5428,-0.5428,-0.5428,-0.5666,-0.6086,-0.5758,-0.6318,-0.7651,0.0,-0.9378,-1.0243,-1.1397,-1.1977,-1.2104,-1.2104,-1.2184,-1.2305,-1.2305,-1.2305,-1.2305,-1.2305,-1.2305,-1.2325,-1.2492,-1.2545,-1.2572,-1.2746,-1.2792,-1.2819,-1.2959,-1.2872,-1.2896,-1.3146,-1.3646,-1.4139,-1.4529,-1.5003,-1.536,-1.5516,-1.5553,-1.5876,-1.7001,-1.7245,-1.7407,-1.7989,-1.9036,-1.9599,-1.9036,-1.9923,-2.0566,-2.0566,-2.0566,-2.0566,-2.0566,-2.0566,-2.0566,-2.0566,-2.0566,-2.0789,-2.1298,-2.1735,-2.2925,-2.4933,-2.5004,-2.5441,-2.6452,-2.6753,-2.6904,-2.6904,-2.7205,-2.7344,-2.7344,-2.7344,-2.767,0.3722,0.4483,0.5414,0.4082,0.0,0.5774,0.422,0.4899,0.0,0.0,0.0,0.0,0.0,0.6084,0.0,0.6339,0.6522,0.6556,0.6298,0.6129,0.5962,0.5772,0.5741,0.4918,0.2887,0.3565,0.2965,0.0202,0.0,0.0,0.0,0.0,0.0,0.0,-0.1741,-0.3551,-0.5382,-0.5369,-0.5428,-0.5428,-0.5466,-0.5477,-0.5593,-0.5661,-0.5894,-0.6292,-0.8281,-0.9259,-0.9637,-1.1537,-1.2305,-1.2305,-1.2305,-1.2305,-1.2305,-1.2305,-1.2305,-1.2311,-1.2385,-1.2405,-1.2458,-1.2759,-1.2852,-1.2899,-1.314,-1.3213,-1.3227,-1.3293,-1.314,-1.306,-1.3527,-1.3694,-1.3808,-1.4035,-1.4088,-1.4088,-1.4088,-1.4088,-1.4412,-1.5455,-1.5696,-1.5944,-1.6764,-1.7819,-1.8638,-1.8638,-1.952,-2.0323,-2.0566,-2.0566,-2.0566,-2.0566,-2.0566,-2.0605,-2.0713,-2.0723,-2.1065,-2.1902,-2.1886,-2.2574,-2.4376,-2.4783,-2.5445,-2.6478,-2.7185,-2.7469,-2.7482,-2.7896,-2.8109,-2.8109,-2.8109,-2.8172,0.5218,0.5329,0.5437,0.5542,0.5725,0.0,0.6067,0.6009,0.0,0.5989,0.0,0.0,0.0,0.6254,0.6491,0.6644,0.6566,0.6434,0.6281,0.0,0.5925,0.564,0.5689,0.4996,0.2887,0.1276,0.027,0.0,0.0,0.0,0.0,0.0,0.0,0.0,-0.1743,-0.3553,-0.5393,-0.5372,-0.5428,-0.5428,-0.5504,-0.5579,-0.5599,-0.5874,-0.6515,-0.7487,-0.8726,-0.9793,-1.076,-1.1835,-1.2305,-1.2305,-1.2305,-1.2305,-1.2305,-1.2305,-1.2305,-1.2345,-1.2694,-1.2788,-1.2842,-1.3073,-1.318,-1.318,-1.32,-1.3213,-1.3267,-1.3534,-1.3594,-1.3587,-1.3552,-1.3848,-1.4062,-1.4082,-1.4088,-1.4088,-1.4088,-1.4088,-1.4412,-1.5455,-1.5696,-1.5696,-1.5779,-1.6683,-1.7415,-1.7415,-1.839,-1.9441,-2.0479,-2.0566,-2.0566,-2.0566,-2.0566,-2.0732,-2.1152,-2.1182,-2.1357,-2.184,-2.1487,-2.1709,-2.2833,-2.426,-2.5444,-2.6467,-2.7496,-2.8047,-2.8047,-2.8084,-2.8109,-2.8109,-2.8109,-2.8386,0.497,0.5386,0.5544,0.5657,0.5705,0.0,0.0,0.6067,0.607,0.6142,0.622,0.0,0.0,0.0,0.6701,0.7292,0.6925,0.639,0.6149,0.5983,0.5813,0.5613,0.5597,0.4833,0.2882,0.1075,0.0,0.0,0.0,0.0,0.0,0.0,0.0,0.0,-0.1743,-0.3553,-0.5396,-0.5372,-0.541,-0.5504,-0.5562,-0.5688,-0.5867,-0.5979,-0.6303,-0.6779,-0.7901,-0.8613,-0.8988,-1.0045,-1.0421,-1.0501,-1.1093,-1.1391,-1.1465,-1.207,-1.2418,-1.2592,-1.2782,-1.2872,-1.3086,-1.3387,-1.348,-1.3514,-1.3701,-1.3754,-1.3781,-1.3888,-1.3921,-1.3921,-1.3921,-1.4001,-1.4088,-1.4088,-1.4088,-1.4088,-1.4088,-1.4088,-1.425,-1.4657,-1.4734,-1.4797,-1.49,-1.5841,-1.6653,-1.6869,-1.8423,-1.9761,-2.0172,-2.0953,-2.1387,-2.1387,-2.1387,-2.1348,-2.124,-2.1484,-2.1709,-2.1875,-2.1728,-2.2089,-2.3071,-2.4346,-2.547,-2.6498,-2.7903,-2.8612,-2.8612,-2.8976,-2.9151,-2.9151,-2.9151,-2.9264,0.4868,0.5362,0.5532,0.5579,0.0,0.0,0.5983,0.6067,0.6146,0.6295,0.6599,0.6868,0.7249,0.0,0.0,0.0,0.6725,0.623,0.5932,0.58,0.5681,0.5535,0.5447,0.4709,0.288,0.1075,0.0,0.0,0.0,0.0,0.0,0.0,0.0,0.0,-0.1743,-0.3636,-0.5538,-0.5514,-0.5535,-0.5728,-0.5728,-0.5833,-0.603,-0.6078,-0.6162,-0.6338,-0.7326,-0.7783,-0.7859,-0.8917,-0.9296,-0.9372,-1.0415,-1.0783,-1.0944,-1.2026,-1.2572,-1.2849,-1.2966,-1.3166,-1.3394,-1.3687,-1.3781,-1.3821,-1.4021,-1.4088,-1.4088,-1.4088,-1.4088,-1.4088,-1.4088,-1.4088,-1.4088,-1.4088,-1.4088,-1.4088,-1.4088,-1.4162,-1.4222,-1.4222,-1.4295,-1.4429,-1.4623,-1.5248,-1.5908,-1.647,-1.8226,-1.9604,-1.9943,-2.1089,-2.1885,-2.1885,-2.1885,-2.1816,-2.165,-2.1914,-2.2139,-2.2275,-2.2275,-2.2532,-2.3002,-2.4255,-2.5464,-2.6508,-2.7883,-2.8783,-2.9202,-2.9603,-2.9792,-2.9792,-2.9792,-2.9792,0.5335,0.5369,0.5466,0.0,0.0,0.0,0.5962,0.6149,0.6376,0.652,0.7207,0.7472,0.6486,0.7096,0.0,0.62,0.6027,0.5925,0.563,0.5589,0.5535,0.5446,0.5382,0.4709,0.288,0.1075,0.0,0.0,0.0,0.0,0.0,0.0,0.0,0.0,-0.1744,-0.3673,-0.5766,-0.5672,-0.5739,-0.603,-0.603,-0.603,-0.6037,-0.6193,-0.6338,-0.6338,-0.7326,-0.7783,-0.7859,-0.8846,-0.9296,-0.9372,-1.0415,-1.0789,-1.0974,-1.2322,-1.2829,-1.2916,-1.3434,-1.3566,-1.3694,-1.3988,-1.4088,-1.4088,-1.4088,-1.4088,-1.4088,-1.4088,-1.4088,-1.4088,-1.4088,-1.4088,-1.4088,-1.4088,-1.4088,-1.4088,-1.4088,-1.4315,-1.4522,-1.4522,-1.4763,-1.4963,-1.497,-1.497,-1.5404,-1.6426,-1.7644,-1.8768,-1.9867,-2.1099,-2.1894,-2.1894,-2.1894,-2.206,-2.248,-2.2519,-2.2695,-2.3105,-2.3135,-2.2949,-2.2539,-2.3975,-2.5378,-2.6472,-2.7522,-2.8688,-2.9792,-2.9792,-2.9792,-2.9792,-2.9792,-2.9792,0.5196,0.5359,0.0,0.5579,0.0,0.0,0.0,0.6581,0.0,0.0,0.6775,0.6514,0.6948,0.666,0.0,0.6877,0.6295,0.5803,0.5616,0.5589,0.5535,0.5446,0.5382,0.4709,0.288,0.1075,0.0,0.0,0.0,0.0,0.0,0.0,0.0,0.0,-0.1915,-0.3885,-0.5769,-0.5772,-0.5837,-0.603,-0.603,-0.6088,-0.6193,-0.624,-0.6338,-0.6338,-0.6644,-0.6718,-0.6795,-0.7099,-0.7173,-0.7326,-0.9064,-0.9845,-1.0225,-1.2088,-1.3013,-1.34,-1.3499,-1.3781,-1.3968,-1.4055,-1.4088,-1.4088,-1.4088,-1.4088,-1.4088,-1.4088,-1.4088,-1.4088,-1.4088,-1.4088,-1.4088,-1.4088,-1.4088,-1.4142,-1.4349,-1.4456,-1.4583,-1.479,-1.4903,-1.503,-1.5237,-1.5264,-1.5423,-1.5989,-1.7819,-1.9889,-2.1947,-2.2495,-2.2656,-2.2353,-2.2598,-2.2705,-2.2529,-2.2783,-2.3008,-2.3135,-2.3135,-2.3086,-2.2959,-2.4139,-2.5378,-2.6472,-2.7522,-2.8688,-2.9792,-2.9792,-2.9792,-2.9792,-2.9792,-2.9792,0.5206,0.5359,0.0,0.5576,0.5725,0.6085,0.6868,0.0,0.0,0.0,0.6865,0.6437,0.6647,0.6504,0.0,0.6632,0.6135,0.5667,0.5518,0.5498,0.5464,0.5439,0.5382,0.4709,0.288,0.1075,0.0,0.0,0.0,0.0,0.0,0.0,0.0,0.0,-0.1999,-0.4009,-0.6005,-0.5909,-0.5969,-0.6122,-0.6122,-0.6169,-0.6338,-0.6338,-0.6338,-0.6338,-0.6338,-0.6338,-0.6338,-0.6338,-0.6338,-0.649,-0.8089,-0.8817,-0.9237,-1.0975,-1.192,-1.2224,-1.2332,-1.2813,-1.3379,-1.3379,-1.373,-1.4088,-1.4088,-1.4088,-1.4088,-1.4088,-1.4088,-1.4088,-1.4088,-1.4088,-1.4088,-1.4088,-1.4175,-1.4309,-1.4482,-1.4703,-1.4923,-1.5097,-1.5224,-1.5364,-1.5538,-1.5571,-1.5625,-1.5805,-1.794,-2.0404,-2.2775,-2.3135,-2.3047,-2.2783,-2.2988,-2.3037,-2.2783,-2.2988,-2.3135,-2.3135,-2.3135,-2.3135,-2.3135,-2.38,-2.4628,-2.5797,-2.6871,-2.8028,-2.9118,-2.9611,-2.9792,-2.9792,-2.9792,-2.9792,0.5321,0.5428,0.0,0.5686,0.5804,0.0,0.8274,0.7398,0.6383,0.7158,0.0,0.695,0.604,0.6533,0.676,0.5728,0.5569,0.5518,0.5449,0.5428,0.5428,0.5428,0.5382,0.4709,0.288,0.1075,0.0,0.0,0.0,0.0,0.0,0.0,0.0,0.0,-0.2007,-0.4126,-0.6252,-0.6145,-0.6122,-0.6338,-0.6338,-0.6338,-0.6338,-0.6338,-0.6338,-0.6338,-0.6338,-0.6338,-0.6338,-0.6338,-0.6338,-0.6412,-0.7403,-0.7901,-0.8171,-0.9465,-1.0018,-1.0258,-1.054,-1.1295,-1.2157,-1.2157,-1.2942,-1.3913,-1.3913,-1.3997,-1.4088,-1.4088,-1.4088,-1.4095,-1.4122,-1.4128,-1.4135,-1.4162,-1.4349,-1.4536,-1.4589,-1.5017,-1.5404,-1.5431,-1.5651,-1.5832,-1.5832,-1.5832,-1.5825,-1.592,-1.7848,-2.0133,-2.2501,-2.2862,-2.295,-2.295,-2.3047,-2.3135,-2.3135,-2.3135,-2.3135,-2.3135,-2.3135,-2.3135,-2.3135,-2.3135,-2.3637,-2.4787,-2.5891,-2.7046,-2.8096,-2.9275,-2.9792,-2.9792,-2.9792,-2.9792,0.5418,0.5428,0.0,0.0,0.7186,0.8096,0.9073,0.847,0.8014,0.8926,0.7889,0.6776,0.6576,0.6116,0.5713,0.5483,0.541,0.5466,0.5432,0.5428,0.5428,0.5428,0.5382,0.4709,0.288,0.1075,0.0,0.0,0.0,0.0,0.0,0.0,0.0,0.0,-0.1992,-0.4094,-0.6264,-0.6232,-0.6227,-0.6338,-0.6338,-0.6338,-0.6338,-0.6338,-0.6338,-0.6338,-0.6338,-0.6338,-0.6338,-0.6338,-0.6338,-0.6412,-0.7403,-0.7977,-0.8427,-0.9519,-1.0191,-1.0545,-1.0595,-1.0783,-1.095,-1.095,-1.1729,-1.2674,-1.2674,-1.3379,-1.4088,-1.4088,-1.4088,-1.4142,-1.4369,-1.4429,-1.4482,-1.4716,-1.4643,-1.4649,-1.511,-1.5311,-1.5464,-1.5691,-1.5785,-1.5832,-1.5832,-1.5832,-1.6109,-1.7131,-1.7777,-1.8596,-2.0133,-2.1123,-2.1667,-2.1667,-2.2492,-2.3135,-2.3135,-2.3135,-2.3135,-2.3135,-2.3135,-2.3135,-2.3135,-2.3135,-2.3637,-2.4787,-2.5891,-2.7046,-2.8096,-2.9275,-2.9792,-2.9792,-2.9792,-2.9792,0.5428,0.0,0.0,0.6056,0.0,0.8337,0.8689,0.8733,0.8871,0.9402,0.8038,0.6719,0.6719,0.6009,0.5428,0.5428,0.5428,0.5428,0.5428,0.5428,0.5428,0.5369,0.5386,0.5052,0.4102,0.1547,0.0,0.0,0.0,0.0,0.0,0.0,0.0,0.0,-0.2034,-0.4105,-0.6314,-0.628,-0.6338,-0.6338,-0.6338,-0.6338,-0.6338,-0.6338,-0.6338,-0.6338,-0.6338,-0.6338,-0.6338,-0.6338,-0.6338,-0.6345,-0.6954,-0.7369,-0.7683,-0.8259,-0.8636,-0.8965,-0.8965,-0.9314,-0.9749,-0.9749,-1.095,-1.2328,-1.2328,-1.3118,-1.4088,-1.4088,-1.4188,-1.4295,-1.4309,-1.4522,-1.477,-1.493,-1.495,-1.5023,-1.5331,-1.5504,-1.5651,-1.5798,-1.5832,-1.5832,-1.5832,-1.5832,-1.6204,-1.7505,-1.7692,-1.8141,-1.9314,-2.0567,-2.1293,-2.1293,-2.2403,-2.3135,-2.3135,-2.3135,-2.3135,-2.3135,-2.3135,-2.3135,-2.3135,-2.3135,-2.3387,-2.3963,-2.5136,-2.6213,-2.736,-2.8438,-2.9287,-2.9792,-2.9792,-2.9792,0.5428,0.0,0.562,0.562,0.6793,0.0,0.8027,0.8549,0.9075,0.9075,0.7827,0.6719,0.6719,0.6009,0.5428,0.5428,0.5428,0.5428,0.5428,0.5428,0.5432,0.5376,0.5116,0.5055,0.5343,0.2155,0.0,0.0,0.0,0.0,0.0,0.0,0.0,0.0,-0.1991,-0.4169,-0.6277,-0.629,-0.6338,-0.6338,-0.6338,-0.6338,-0.6338,-0.6338,-0.6338,-0.6338,-0.6338,-0.6338,-0.6338,-0.6338,-0.6352,-0.6308,-0.6427,-0.658,-0.6756,-0.6881,-0.7017,-0.7139,-0.7139,-0.7753,-0.8627,-0.8627,-1.0005,-1.1724,-1.198,-1.2857,-1.3822,-1.3997,-1.4295,-1.4476,-1.4289,-1.4636,-1.505,-1.5104,-1.5297,-1.5471,-1.5471,-1.5658,-1.5832,-1.5832,-1.5832,-1.5832,-1.5832,-1.5832,-1.6204,-1.7225,-1.7412,-1.777,-1.8764,-2.0175,-2.1122,-2.1122,-2.2387,-2.3359,-2.3359,-2.3359,-2.3359,-2.3359,-2.3291,-2.3252,-2.3252,-2.3184,-2.3135,-2.3135,-2.4211,-2.5378,-2.6483,-2.7602,-2.8688,-2.9792,-2.9792,-2.9792,0.0,0.0,0.6523,0.0,0.7242,0.8027,0.0,0.0,0.8156,0.0,0.7372,0.6719,0.6719,0.6009,0.5428,0.5428,0.5428,0.5428,0.5428,0.5428,0.5432,0.5376,0.4023,0.3694,0.5272,0.2155,0.0,0.0,0.0,0.0,0.0,0.0,0.0,0.0,-0.2009,-0.4123,-0.6264,-0.6264,-0.6338,-0.6338,-0.6338,-0.6338,-0.6338,-0.6338,-0.6338,-0.6338,-0.6338,-0.6338,-0.6338,-0.6338,-0.6332,-0.6444,-0.6464,-0.6647,-0.6902,-0.6922,-0.7017,-0.7139,-0.7139,-0.7228,-0.7316,-0.7316,-0.8277,-0.9579,-1.0524,-1.1643,-1.2766,-1.3822,-1.4295,-1.4569,-1.479,-1.509,-1.5404,-1.5651,-1.5745,-1.5772,-1.5772,-1.5798,-1.5832,-1.5832,-1.5832,-1.5832,-1.5832,-1.5832,-1.5832,-1.6015,-1.6015,-1.6103,-1.6285,-1.8645,-2.023,-2.023,-2.2603,-2.4248,-2.4248,-2.4248,-2.4248,-2.4248,-2.3906,-2.3701,-2.3701,-2.334,-2.3135,-2.3135,-2.4211,-2.5378,-2.6483,-2.7602,-2.8688,-2.9792,-2.9792,-2.9792,0.5338,0.6009,0.6613,0.0,0.6672,0.7274,0.7389,0.7325,0.7242,0.7242,0.6593,0.6141,0.6588,0.6009,0.5428,0.5428,0.5428,0.5428,0.5428,0.5428,0.5369,0.5386,0.3823,0.2614,0.2424,0.0943,0.0,0.0,0.0,0.0,0.0,0.0,-0.1088,-0.3428,-0.3273,-0.4103,-0.6285,-0.6271,-0.6338,-0.6338,-0.6338,-0.6338,-0.6338,-0.6338,-0.6338,-0.6338,-0.6338,-0.6338,-0.6345,-0.6346,-0.6417,-0.6488,-0.6661,-0.681,-0.6939,-0.7017,-0.7088,-0.7139,-0.7139,-0.7139,-0.7139,-0.7139,-0.836,-0.9923,-1.0438,-1.2003,-1.3614,-1.415,-1.4663,-1.5003,-1.4977,-1.5297,-1.5631,-1.5591,-1.5712,-1.5832,-1.5832,-1.5832,-1.5832,-1.5832,-1.5832,-1.5832,-1.5832,-1.5832,-1.5832,-1.5832,-1.5972,-1.6079,-1.6079,-1.8598,-2.0425,-2.0425,-2.2767,-2.4414,-2.4414,-2.4414,-2.4414,-2.4414,-2.4248,-2.4141,-2.4141,-2.3955,-2.3857,-2.3857,-2.4467,-2.5378,-2.6483,-2.7894,-2.9124,-3.0256,-3.0256,-3.0407,0.0,0.0,0.6568,0.6089,0.6368,0.671,0.0,0.0,0.6451,0.0,0.5877,0.567,0.6276,0.5815,0.5428,0.5428,0.5428,0.5428,0.5428,0.5428,0.5372,0.5393,0.4233,0.2484,0.0202,0.0,0.0,0.0,0.0,0.0,0.0,-0.1013,-0.3048,-0.6177,-0.4727,-0.4693,-0.6278,-0.6268,-0.6338,-0.6338,-0.6338,-0.6338,-0.6338,-0.6338,-0.6338,-0.6338,-0.6338,-0.6281,-0.6322,-0.6427,-0.6519,-0.661,-0.6841,-0.6949,-0.6997,-0.7102,-0.7139,-0.7139,-0.7139,-0.7139,-0.7139,-0.7139,-0.83,-0.9911,-1.0522,-1.2091,-1.3818,-1.4454,-1.5003,-1.5344,-1.513,-1.5451,-1.5772,-1.5558,-1.5671,-1.5832,-1.5832,-1.5832,-1.5832,-1.5832,-1.5832,-1.5832,-1.5832,-1.5832,-1.5852,-1.5925,-1.6132,-1.6495,-1.6849,-1.9136,-2.0895,-2.1193,-2.3324,-2.4746,-2.4746,-2.4746,-2.4746,-2.4746,-2.4639,-2.458,-2.458,-2.4473,-2.4598,-2.4854,-2.5326,-2.5988,-2.6842,-2.8245,-2.9549,-3.0809,-3.0809,-3.1022,0.0,0.6654,0.0,0.6823,0.6865,0.0,0.0,0.0,0.581,0.5672,0.5645,0.5535,0.5452,0.5428,0.5428,0.5428,0.5428,0.5428,0.5428,0.5369,0.5382,0.5393,0.5336,0.3845,0.0337,0.0,0.0,0.0,0.0,0.0,0.0,-0.3765,-0.6095,-0.6259,-0.6213,-0.6197,-0.6278,-0.6268,-0.6338,-0.6338,-0.6338,-0.6338,-0.6338,-0.6338,-0.6338,-0.6338,-0.6338,-0.6335,-0.6461,-0.6468,-0.6644,-0.6905,-0.6922,-0.701,-0.7129,-0.7136,-0.7139,-0.7139,-0.7139,-0.7139,-0.7139,-0.7139,-0.7327,-0.7985,-1.0394,-1.1266,-1.2,-1.4295,-1.5164,-1.5391,-1.5378,-1.5605,-1.5825,-1.5812,-1.5818,-1.5832,-1.5832,-1.5832,-1.5832,-1.5832,-1.5832,-1.5832,-1.5832,-1.5832,-1.5925,-1.6206,-1.6259,-1.6849,-1.8393,-2.0075,-2.1663,-2.2955,-2.461,-2.5664,-2.5664,-2.5664,-2.5664,-2.5664,-2.5264,-2.5029,-2.5029,-2.4639,-2.4945,-2.6172,-2.7173,-2.7763,-2.785,-2.8596,-2.9719,-3.1348,-3.1348,-3.1361,0.0,0.0,0.0,0.7702,0.7346,0.685,0.6683,0.623,0.5786,0.5735,0.5654,0.5572,0.5518,0.543,0.5428,0.5428,0.5428,0.5432,0.5372,0.5376,0.5386,0.5403,0.541,0.3981,0.0337,0.0,0.0,0.0,0.0,-0.118,-0.3889,-0.5447,-0.6268,-0.6287,-0.6331,-0.6274,-0.6268,-0.6264,-0.6338,-0.6338,-0.6338,-0.6338,-0.6264,-0.6356,-0.6346,-0.6271,-0.6461,-0.6515,-0.6488,-0.6685,-0.6831,-0.6939,-0.7031,-0.7095,-0.7139,-0.7139,-0.7139,-0.7139,-0.7139,-0.7139,-0.7156,-0.7255,-0.8395,-0.9989,-1.0935,-1.2512,-1.4111,-1.5054,-1.5451,-1.5671,-1.5671,-1.5752,-1.5832,-1.5832,-1.5832,-1.5832,-1.5832,-1.5832,-1.5832,-1.5832,-1.5832,-1.5832,-1.5832,-1.5985,-1.6152,-1.6259,-1.6593,-1.7365,-1.8855,-2.044,-2.2053,-2.3368,-2.4827,-2.5742,-2.5742,-2.5742,-2.5742,-2.5742,-2.5586,-2.5498,-2.5498,-2.5352,-2.5814,-2.7085,-2.794,-2.8604,-2.9145,-3.041,-3.1369,-3.1913,-3.1913,-3.2114,0.6569,0.0,0.0,0.0,0.0,0.728,0.7183,0.6736,0.6234,0.595,0.5803,0.5722,0.5671,0.5579,0.5477,0.5446,0.5406,0.544,0.5386,0.4872,0.47,0.5352,0.4301,0.2622,0.0205,0.0,0.0,0.0,-0.1314,-0.3343,-0.6165,-0.6264,-0.6321,-0.6268,-0.6274,-0.6271,-0.6338,-0.6338,-0.6338,-0.6338,-0.6308,-0.6308,-0.6268,-0.6461,-0.6471,-0.6349,-0.6647,-0.6692,-0.6569,-0.6824,-0.6956,-0.701,-0.7102,-0.7139,-0.7139,-0.7139,-0.7139,-0.7139,-0.7139,-0.7173,-0.7234,-0.7336,-0.8885,-1.0736,-1.1251,-1.3048,-1.4965,-1.5445,-1.5678,-1.5832,-1.5832,-1.5832,-1.5832,-1.5832,-1.5832,-1.5832,-1.5832,-1.5832,-1.5858,-1.5959,-1.5979,-1.6012,-1.6106,-1.6286,-1.6453,-1.6553,-1.6901,-1.7886,-1.979,-2.0998,-2.2366,-2.4196,-2.5128,-2.5742,-2.5742,-2.5742,-2.5742,-2.5742,-2.5742,-2.5742,-2.5742,-2.611,-2.6935,-2.8132,-2.8991,-2.9922,-3.0919,-3.1779,-3.2315,-3.2503,-3.2503,-3.2946,0.0,0.0,0.0,0.0,0.0,0.0,0.7385,0.0,0.704,0.6172,0.6027,0.5979,0.5833,0.5803,0.5708,0.542,0.5498,0.553,0.5398,0.3861,0.3346,0.505,0.2114,0.0,0.0,0.0,-0.0071,-0.0204,-0.4003,-0.6264,-0.6335,-0.6287,-0.6274,-0.6338,-0.6338,-0.6338,-0.6338,-0.6338,-0.6338,-0.6342,-0.6407,-0.64,-0.6278,-0.6573,-0.6624,-0.6498,-0.6803,-0.6848,-0.6719,-0.6871,-0.7017,-0.7139,-0.7139,-0.7139,-0.7139,-0.7139,-0.7139,-0.7139,-0.7139,-0.7241,-0.737,-0.7377,-0.8497,-1.0096,-1.1333,-1.2723,-1.4166,-1.5439,-1.5832,-1.5832,-1.5832,-1.5832,-1.5832,-1.5832,-1.5832,-1.5832,-1.5832,-1.5832,-1.5919,-1.6213,-1.6273,-1.6366,-1.6653,-1.6714,-1.682,-1.7108,-1.7257,-1.8366,-2.1298,-2.1744,-2.2767,-2.543,-2.5742,-2.5742,-2.5742,-2.5742,-2.5742,-2.5742,-2.5742,-2.5742,-2.5742,-2.6945,-2.8132,-2.9407,-3.0586,-3.1865,-3.3081,-3.2516,-3.2528,-3.3081,-3.3081,-3.3628,0.6412,0.0,0.0,0.0,0.0,0.0,0.0,0.0,0.6182,0.6003,0.5942,0.5884,0.5956,0.5878,0.5776,0.5691,0.5715,0.5752,0.5708,0.3984,0.2397,0.1602,0.0583,0.0,0.0,0.0,-0.1233,0.0,-0.5646,-0.6268,-0.6328,-0.6332,-0.6264,-0.6338,-0.6338,-0.6338,-0.6338,-0.6338,-0.6338,-0.6342,-0.6407,-0.6451,-0.6424,-0.6725,-0.678,-0.6654,-0.6953,-0.7,-0.6875,-0.7021,-0.7105,-0.7139,-0.7139,-0.7139,-0.7139,-0.7139,-0.7139,-0.7139,-0.7139,-0.7241,-0.739,-0.7502,-0.9153,-1.1262,-1.1707,-1.3442,-1.5343,-1.573,-1.5832,-1.5832,-1.5832,-1.5832,-1.5832,-1.5832,-1.5832,-1.5832,-1.5832,-1.5832,-1.5919,-1.6213,-1.6273,-1.6366,-1.6653,-1.6881,-1.7054,-1.7141,-1.8238,-1.9626,-2.1432,-2.2567,-2.3791,-2.5528,-2.5742,-2.5742,-2.5742,-2.5742,-2.5742,-2.5742,-2.5742,-2.5742,-2.5742,-2.6945,-2.8132,-2.9407,-3.0586,-3.1865,-3.3081,-3.2918,-3.2918,-3.3081,-3.3081,-3.3628,0.5982,0.6141,0.0,0.0,0.0,0.0,0.692,0.6541,0.6193,0.0,0.5959,0.5942,0.6098,0.6057,0.6,0.6,0.6003,0.5993,0.5805,0.4867,0.3158,0.0301,0.0,0.0,0.0,-0.1572,-0.3666,-0.612,-0.5451,-0.5385,-0.6232,-0.63,-0.6338,-0.6338,-0.6338,-0.6338,-0.6338,-0.6338,-0.6338,-0.6342,-0.6468,-0.6532,-0.6485,-0.6851,-0.6936,-0.681,-0.7041,-0.7092,-0.7024,-0.7105,-0.7139,-0.7139,-0.7139,-0.7139,-0.7139,-0.7139,-0.7139,-0.7149,-0.7214,-0.7336,-0.7581,-0.8291,-0.9966,-1.1869,-1.2582,-1.4172,-1.5832,-1.5832,-1.5832,-1.5832,-1.5832,-1.5832,-1.5832,-1.5832,-1.5832,-1.5832,-1.5832,-1.5925,-1.6099,-1.6393,-1.6453,-1.6587,-1.7001,-1.7215,-1.7328,-1.7328,-1.8594,-2.0135,-2.155,-2.2868,-2.4196,-2.5538,-2.5742,-2.5742,-2.5742,-2.5742,-2.5742,-2.5742,-2.5742,-2.5742,-2.5742,-2.74,-2.868,-2.9407,-3.1146,-3.2339,-3.3081,-3.3081,-3.3081,-3.3081,-3.3556,-3.4345,0.5432,0.5442,0.0,0.6338,0.6552,0.0,0.6742,0.672,0.6618,0.0,0.5979,0.6027,0.6183,0.6234,0.6244,0.6227,0.6041,0.5951,0.5894,0.6079,0.4729,0.0471,0.0,0.0,0.0,-0.3816,-0.6307,-0.6324,-0.4515,-0.4295,-0.6183,-0.6338,-0.6338,-0.6338,-0.6338,-0.6338,-0.6338,-0.6278,-0.6285,-0.6288,-0.6583,-0.6654,-0.6536,-0.6953,-0.7071,-0.6959,-0.7085,-0.7139,-0.7139,-0.7139,-0.7139,-0.7139,-0.7139,-0.7139,-0.7139,-0.7139,-0.7139,-0.7163,-0.7319,-0.7561,-0.7994,-0.9374,-1.0706,-1.2139,-1.3488,-1.4561,-1.5439,-1.554,-1.573,-1.5832,-1.5832,-1.5832,-1.5832,-1.5832,-1.5832,-1.5832,-1.5832,-1.6059,-1.6359,-1.6647,-1.6734,-1.6934,-1.7488,-1.7681,-1.7786,-1.7786,-1.9117,-2.0538,-2.1752,-2.3076,-2.4402,-2.5538,-2.5742,-2.5742,-2.5742,-2.5742,-2.5742,-2.5742,-2.5742,-2.5732,-2.5927,-2.8121,-2.9498,-2.959,-3.1877,-3.3081,-3.3081,-3.3081,-3.3081,-3.3154,-3.4191,-3.521,0.5379,0.5535,0.5665,0.5656,0.5809,0.0,0.5716,0.577,0.5811,0.0,0.5677,0.5722,0.5864,0.5993,0.6037,0.5915,0.4647,0.4318,0.598,0.623,0.4729,0.0471,0.0,0.0,0.0,-0.3851,-0.6318,-0.6325,-0.5944,-0.5873,-0.6261,-0.6338,-0.6338,-0.6338,-0.6338,-0.6338,-0.6338,-0.6373,-0.643,-0.6434,-0.6739,-0.6868,-0.6848,-0.7048,-0.7126,-0.7099,-0.7129,-0.7139,-0.7139,-0.7139,-0.7139,-0.7139,-0.7139,-0.7139,-0.7139,-0.7139,-0.7139,-0.7163,-0.7319,-0.8195,-0.9185,-0.9651,-1.0706,-1.2139,-1.3488,-1.3301,-1.2915,-1.3974,-1.5045,-1.5832,-1.5832,-1.5832,-1.5832,-1.5832,-1.5832,-1.5832,-1.5832,-1.6059,-1.6359,-1.6647,-1.6901,-1.7174,-1.7522,-1.8506,-1.922,-1.922,-2.1355,-2.2976,-2.3276,-2.451,-2.543,-2.5635,-2.5742,-2.5742,-2.5742,-2.5742,-2.5742,-2.5742,-2.5742,-2.6207,-2.722,-2.8588,-2.9863,-3.0855,-3.2339,-3.3081,-3.3081,-3.3081,-3.3081,-3.3154,-3.4191,-3.521,0.382,0.4801,0.5527,0.5583,0.0,0.0,0.0,0.5552,0.5525,0.5664,0.564,0.5657,0.5874,0.5848,0.5862,0.6016,0.5056,0.4321,0.4653,0.3776,0.2361,0.0244,0.0,-0.0895,-0.3345,-0.5482,-0.6634,-0.6525,-0.6502,-0.6451,-0.6369,-0.6366,-0.6332,-0.6342,-0.6338,-0.6338,-0.6338,-0.6403,-0.6471,-0.6474,-0.6783,-0.6929,-0.6932,-0.7075,-0.7139,-0.7139,-0.7139,-0.7139,-0.7139,-0.7139,-0.7139,-0.7139,-0.7139,-0.7139,-0.7139,-0.7139,-0.7139,-0.7258,-0.8121,-0.8536,-0.8836,-1.0336,-1.0886,-1.1361,-1.3295,-1.3878,-1.398,-1.4657,-1.5337,-1.5832,-1.5832,-1.5832,-1.5832,-1.5832,-1.5832,-1.5872,-1.6019,-1.6279,-1.658,-1.6867,-1.7168,-1.7617,-1.8478,-1.9117,-1.9834,-2.0538,-2.2366,-2.3692,-2.3692,-2.4913,-2.5742,-2.5742,-2.5742,-2.5742,-2.5742,-2.5742,-2.5742,-2.5742,-2.5742,-2.6294,-2.7589,-2.8773,-3.0226,-3.214,-3.2797,-3.3081,-3.3081,-3.3641,-3.3869,-3.3953,-3.4966,-3.5987,0.0,0.0,0.4577,0.5095,0.0,0.4965,0.0,0.0,0.0,0.5688,0.5657,0.0,0.0,0.0,0.0,0.6086,0.0,0.0,0.0,0.1463,0.0,-0.1248,-0.134,-0.2862,-0.6756,-0.7079,-0.6978,-0.6805,-0.6771,-0.6702,-0.6522,-0.6515,-0.6451,-0.6305,-0.6329,-0.6318,-0.6338,-0.6461,-0.6546,-0.6519,-0.6824,-0.697,-0.6973,-0.7088,-0.7139,-0.7139,-0.7139,-0.7139,-0.7139,-0.7139,-0.7139,-0.7139,-0.7139,-0.7139,-0.7139,-0.7139,-0.716,-0.731,-0.8678,-0.8629,-0.8434,-1.0757,-1.1165,-1.1068,-1.2909,-1.4561,-1.573,-1.5534,-1.5635,-1.5832,-1.5832,-1.5832,-1.5845,-1.5899,-1.5912,-1.5992,-1.6293,-1.6587,-1.686,-1.7101,-1.7382,-1.7891,-1.902,-1.9627,-2.0436,-2.155,-2.3076,-2.4097,-2.4097,-2.502,-2.5742,-2.5742,-2.5742,-2.5742,-2.5742,-2.5742,-2.5742,-2.5742,-2.5917,-2.6668,-2.7861,-2.9315,-3.1057,-3.3081,-3.3081,-3.324,-3.3398,-3.4275,-3.4664,-3.4746,-3.5908,-3.6944,0.0,0.0,0.0,0.0,0.3201,0.0,0.0,0.0,0.5732,0.5491,0.0,0.0,0.0,0.0,0.0,0.0,0.0,0.0,0.5269,0.2141,-0.1541,-0.5765,-0.6283,-0.6466,-0.7008,-0.6894,-0.6767,-0.6795,-0.677,-0.6739,-0.6668,-0.6675,-0.6607,-0.6454,-0.658,-0.6525,-0.6342,-0.6671,-0.681,-0.6678,-0.6973,-0.7115,-0.7115,-0.7132,-0.7139,-0.7139,-0.7139,-0.7139,-0.7139,-0.7139,-0.7139,-0.7139,-0.7139,-0.7139,-0.7139,-0.7139,-0.7227,-0.737,-0.7722,-0.8619,-0.9627,-1.0023,-1.1648,-1.3295,-1.2431,-1.3884,-1.5534,-1.4459,-1.4949,-1.5832,-1.5832,-1.5832,-1.5892,-1.6159,-1.6219,-1.6299,-1.6593,-1.6894,-1.7108,-1.7141,-1.7382,-1.7687,-1.7786,-1.9819,-2.155,-2.1651,-2.389,-2.543,-2.543,-2.5635,-2.5742,-2.5742,-2.5742,-2.5742,-2.5742,-2.5742,-2.5742,-2.5742,-2.6754,-2.7955,-2.9131,-3.1424,-3.2797,-3.3068,-3.3081,-3.3556,-3.4511,-3.4664,-3.4664,-3.4746,-3.6724,-3.7663,0.0,0.0,0.0,0.0,0.0,0.0,0.1173,0.0,0.2701,0.0,0.0,0.0,0.0,0.0,0.0,0.0,0.5634,0.0,0.0,0.0,-0.0711,-0.2776,0.0,0.0,-0.7059,-0.6968,-0.6925,-0.6956,-0.701,-0.6954,-0.6831,-0.6831,-0.6763,-0.661,-0.658,-0.6552,-0.6515,-0.6702,-0.681,-0.6834,-0.7041,-0.7139,-0.7139,-0.7139,-0.7139,-0.7139,-0.7139,-0.7139,-0.7139,-0.7139,-0.7139,-0.7139,-0.7139,-0.7139,-0.7139,-0.7139,-0.7238,-0.7482,-0.8366,-0.8717,-0.879,-0.9743,-1.1263,-1.2818,-1.3006,-1.437,-1.573,-1.5146,-1.5439,-1.5832,-1.5832,-1.5959,-1.6119,-1.6246,-1.64,-1.6607,-1.6901,-1.7061,-1.7201,-1.7368,-1.8109,-1.8708,-1.8708,-2.0436,-2.2257,-2.3791,-2.502,-2.5742,-2.5742,-2.5742,-2.5742,-2.5742,-2.5742,-2.5742,-2.5742,-2.5742,-2.6014,-2.6754,-2.8588,-2.9954,-3.0406,-3.2152,-3.3081,-3.3081,-3.3081,-3.3641,-3.4664,-3.5292,-3.5908,-3.6489,-3.7357,-3.8144,-0.5442,0.0,0.0,0.0,0.0,0.0,0.0,0.0,0.0,0.0,0.0,0.0,0.0,0.0,0.2411,0.3713,0.0,0.3902,0.0,0.1621,0.0,0.0,0.0,0.0,0.0,-0.7059,-0.6833,-0.6533,-0.6784,-0.7001,-0.6983,-0.6987,-0.6919,-0.6766,-0.6695,-0.6668,-0.6702,-0.678,-0.6858,-0.6929,-0.7071,-0.7139,-0.7139,-0.7139,-0.7139,-0.7139,-0.7139,-0.7139,-0.7139,-0.7139,-0.7139,-0.7139,-0.7139,-0.7139,-0.7139,-0.7139,-0.7265,-0.7629,-0.9019,-0.921,-0.9142,-1.0631,-1.1648,-1.2716,-1.3974,-1.5045,-1.5832,-1.5832,-1.5885,-1.5952,-1.5952,-1.6172,-1.6413,-1.6493,-1.6673,-1.6907,-1.7208,-1.7571,-1.7936,-1.8157,-1.9213,-2.0333,-2.0641,-2.1558,-2.2876,-2.4815,-2.543,-2.5742,-2.5742,-2.5742,-2.5742,-2.5742,-2.5742,-2.5742,-2.5742,-2.6014,-2.6935,-2.8495,-3.0226,-3.14,-3.1689,-3.2612,-3.3081,-3.3081,-3.3398,-3.4024,-3.5129,-3.6146,-3.7175,-3.8234,-3.8234,-3.8752,0.0,0.0,0.0,-0.5299,0.0,0.0,0.0,0.0,0.0,0.0,0.0,0.0,0.0,0.0073,0.0072,0.0141,0.014,0.0,0.0,0.0,0.0,0.0,0.0,0.0,0.0,-0.688,-0.6229,0.0,-0.6117,-0.6932,-0.7119,-0.7132,-0.7068,-0.6926,-0.7051,-0.6983,-0.6705,-0.6983,-0.7058,-0.6929,-0.7071,-0.7139,-0.7139,-0.7139,-0.7139,-0.7139,-0.7139,-0.7139,-0.7139,-0.7139,-0.7139,-0.7139,-0.7139,-0.7139,-0.7139,-0.7139,-0.7333,-0.7775,-0.906,-1.0522,-1.2032,-1.3295,-1.3776,-1.407,-1.5343,-1.5737,-1.5832,-1.5832,-1.6039,-1.6259,-1.6259,-1.6473,-1.6767,-1.7054,-1.723,-1.7215,-1.7508,-1.8589,-1.9517,-1.9524,-2.0641,-2.2055,-2.3384,-2.3583,-2.3692,-2.3791,-2.4913,-2.5742,-2.5742,-2.5742,-2.5742,-2.5742,-2.5742,-2.5742,-2.5742,-2.6849,-2.8588,-3.0944,-3.1134,-3.1777,-3.2982,-3.3068,-3.3081,-3.3081,-3.4108,-3.5129,-3.6119,-3.7266,-3.8308,-3.9337,-3.9337,-3.9793,0.0,0.0,-0.7012,-0.6428,0.0,0.0,0.0,0.0,0.0,0.0,0.0,0.0,0.0,0.0,-0.2029,-0.2084,-0.2082,-0.2003,0.0,0.0,0.0,0.0,0.0,0.0,0.0,0.0,-0.5536,-0.6123,-0.6718,0.0,-0.7129,-0.7238,-0.7224,-0.7075,-0.7024,-0.6997,-0.699,-0.6997,-0.7024,-0.7068,-0.7115,-0.7139,-0.7139,-0.7139,-0.7139,-0.7139,-0.7139,-0.7139,-0.7139,-0.7139,-0.7139,-0.7139,-0.7139,-0.7139,-0.7153,-0.7255,-0.796,-0.91,-1.0568,-1.1433,-1.2139,-1.3488,-1.3878,-1.4166,-1.5439,-1.5832,-1.5832,-1.5832,-1.5905,-1.6025,-1.6219,-1.6486,-1.678,-1.7081,-1.7295,-1.7769,-1.8686,-1.9324,-1.9834,-2.0837,-2.2055,-2.3176,-2.3592,-2.4412,-2.502,-2.502,-2.543,-2.5742,-2.5742,-2.5742,-2.5742,-2.5742,-2.5742,-2.6014,-2.6849,-2.8855,-3.0316,-3.1134,-3.1965,-3.2612,-3.3068,-3.3081,-3.3398,-3.4108,-3.4511,-3.5534,-3.7266,-3.7587,-3.8383,-3.9409,-3.999,-4.0432,-0.8484,-0.8226,0.0,-0.7307,-0.6711,0.0,-0.6427,0.0,-0.5884,0.0,0.0,0.0,0.0,0.0,-0.4249,-0.4215,-0.4208,-0.4082,0.0,-0.3765,0.0,0.0,0.0,0.0,0.0,-0.4826,-0.565,-0.6909,-0.7025,-0.7111,0.0,-0.737,-0.738,-0.7227,-0.7132,-0.7105,-0.7139,-0.7051,-0.7051,-0.7139,-0.7139,-0.7139,-0.7139,-0.7139,-0.7139,-0.7139,-0.7139,-0.7139,-0.7139,-0.7139,-0.7139,-0.7139,-0.758,-0.7753,-0.7771,-0.8027,-0.9321,-1.1165,-1.2198,-1.2915,-1.3403,-1.4268,-1.4561,-1.4752,-1.554,-1.5832,-1.5832,-1.5832,-1.5905,-1.6052,-1.6353,-1.664,-1.7035,-1.7839,-1.8157,-1.8708,-2.0033,-2.0743,-2.1355,-2.2257,-2.3484,-2.4402,-2.4402,-2.5128,-2.5742,-2.5742,-2.5742,-2.5742,-2.5742,-2.5742,-2.5742,-2.5742,-2.611,-2.703,-2.8773,-3.0316,-3.14,-3.1865,-3.2612,-3.3081,-3.3081,-3.3081,-3.3641,-3.4664,-3.5047,-3.6081,-3.7829,-3.8144,-3.8899,-3.9849,-4.0758,-4.1346]}]]